[[{"header":{"parameterUnit":"m.s-1","parameterCategory":1,"la1":30.6,"la2":28.766,"lo1":-90.7593,"lo2":-88.6598,"dy":0.0162,"dx":0.0183,"nx":116,"ny":114,"refTime":"2023-04-27T12:00:00:Z","depth":0,"parameterNumber":2,"parameterNumberName":"U-component_of_WINDS"},"data":[0.0,0.0,0.0,0.0,0.0,0.0,0.0,0.0,0.0,0.0,0.0,0.0,0.0,0.0,0.0,0.0,0.0,0.0,0.0,0.0,0.0,0.0,0.0,0.0,0.0,0.0,0.0,0.0,0.0,0.0,0.0,0.0,0.0,0.0,0.0,0.0,0.0,0.0,0.0,0.0,0.0,0.0,0.0,0.0,0.0,0.0,0.0,0.0,0.0,0.0,0.0,0.0,0.0,0.0,0.0,0.0,0.0,0.0,0.0,0.0,0.0,0.0,0.0,0.0,0.0,0.0,0.0,0.0,0.0,0.0,0.0,0.0,0.0,0.0,0.0,0.0,0.0,0.0,0.0,0.0,0.0,0.0,0.0,0.0,0.0,0.0,0.0,0.0,0.0,0.0,0.0,0.0,0.0,0.0,0.0,0.0,0.0,0.0,0.0,0.0,0.0,0.0,0.0,0.0,0.0,0.0,0.0,0.0,0.0,0.0,0.0,0.0,0.0,0.0,0.0,0.0,0.0,0.0,0.0,0.0,0.0,0.0,0.0,0.0,0.0,0.0,0.0,0.0,0.0,0.0,0.0,0.0,0.0,0.0,0.0,0.0,0.0,0.0,0.0,0.0,0.0,0.0,0.0,0.0,0.0,0.0,0.0,0.0,0.0,0.0,0.0,0.0,0.0,0.0,0.0,0.0,0.0,0.0,0.0,0.0,0.0,0.0,0.0,0.0,0.0,0.0,0.0,0.0,0.0,0.0,0.0,0.0,0.0,0.0,0.0,0.0,0.0,0.0,0.0,0.0,0.0,0.0,0.0,0.0,0.0,0.0,0.0,0.0,0.0,0.0,0.0,0.0,0.0,0.0,0.0,0.0,0.0,0.0,0.0,0.0,0.0,0.0,0.0,0.0,0.0,0.0,0.0,0.0,0.0,0.0,0.0,0.0,0.0,0.0,0.0,0.0,0.0,0.0,0.0,0.0,0.0,0.0,0.0,0.0,0.0,0.0,0.0,0.0,0.0,0.0,0.0,0.0,0.0,0.0,0.0,0.0,0.0,0.0,0.0,0.0,0.0,0.0,0.0,0.0,0.0,0.0,0.0,0.0,0.0,0.0,0.0,0.0,0.0,0.0,0.0,0.0,0.0,0.0,0.0,0.0,0.0,0.0,0.0,0.0,0.0,0.0,0.0,0.0,0.0,0.0,0.0,0.0,0.0,0.0,0.0,0.0,0.0,0.0,0.0,0.0,0.0,0.0,0.0,0.0,0.0,0.0,0.0,0.0,0.0,0.0,0.0,0.0,0.0,0.0,0.0,0.0,0.0,0.0,0.0,0.0,0.0,0.0,0.0,0.0,0.0,0.0,0.0,0.0,0.0,0.0,0.0,0.0,0.0,0.0,0.0,0.0,0.0,0.0,0.0,0.0,0.0,0.0,0.0,0.0,0.0,0.0,0.0,0.0,0.0,0.0,0.0,0.0,0.0,0.0,0.0,0.0,0.0,0.0,0.0,0.0,0.0,0.0,0.0,0.0,0.0,0.0,0.0,0.0,0.0,0.0,0.0,0.0,0.0,0.0,0.0,0.0,0.0,0.0,0.0,0.0,0.0,0.0,0.0,0.0,0.0,0.0,0.0,0.0,0.0,0.0,0.0,0.0,0.0,0.0,0.0,0.0,0.0,0.0,0.0,0.0,0.0,0.0,0.0,0.0,0.0,0.0,0.0,0.0,0.0,0.0,0.0,0.0,0.0,0.0,0.0,0.0,0.0,0.0,0.0,0.0,0.0,0.0,0.0,0.0,0.0,0.0,0.0,0.0,0.0,0.0,0.0,0.0,0.0,0.0,0.0,0.0,0.0,0.0,0.0,0.0,0.0,0.0,0.0,0.0,0.0,0.0,0.0,0.0,0.0,0.0,0.0,0.0,0.0,0.0,0.0,0.0,0.0,0.0,0.0,0.0,0.0,0.0,0.0,0.0,0.0,0.0,0.0,0.0,0.0,0.0,0.0,0.0,0.0,0.0,0.0,0.0,0.0,0.0,0.0,0.0,0.0,0.0,0.0,0.0,0.0,0.0,0.0,0.0,0.0,0.0,0.0,0.0,0.0,0.0,0.0,0.0,0.0,0.0,0.0,0.0,0.0,0.0,0.0,0.0,0.0,0.0,0.0,0.0,0.0,0.0,0.0,0.0,0.0,0.0,0.0,0.0,0.0,0.0,0.0,0.0,0.0,0.0,0.0,0.0,0.0,0.0,0.0,0.0,0.0,0.0,0.0,0.0,0.0,0.0,0.0,0.0,0.0,0.0,0.0,0.0,0.0,0.0,0.0,0.0,0.0,0.0,0.0,0.0,0.0,0.0,0.0,0.0,0.0,0.0,0.0,0.0,0.0,0.0,0.0,0.0,0.0,0.0,0.0,0.0,0.0,0.0,0.0,0.0,0.0,0.0,0.0,0.0,0.0,0.0,0.0,0.0,0.0,0.0,0.0,0.0,0.0,0.0,0.0,0.0,0.0,0.0,0.0,0.0,0.0,0.0,0.0,0.0,0.0,0.0,0.0,0.0,0.0,0.0,0.0,0.0,0.0,0.0,0.0,0.0,0.0,0.0,0.0,0.0,0.0,0.0,0.0,0.0,0.0,0.0,0.0,0.0,0.0,0.0,0.0,0.0,0.0,0.0,0.0,0.0,0.0,0.0,0.0,0.0,0.0,0.0,0.0,0.0,0.0,0.0,0.0,0.0,0.0,0.0,0.0,0.0,0.0,0.0,0.0,0.0,0.0,0.0,0.0,0.0,0.0,0.0,0.0,0.0,0.0,0.0,0.0,0.0,0.0,0.0,0.0,0.0,0.0,0.0,0.0,0.0,0.0,0.0,0.0,0.0,0.0,0.0,0.0,0.0,0.0,0.0,0.0,0.0,0.0,0.0,0.0,0.0,0.0,0.0,0.0,0.0,0.0,0.0,0.0,0.0,0.0,0.0,0.0,0.0,0.0,0.0,0.0,0.0,0.0,0.0,0.0,0.0,0.0,0.0,0.0,0.0,0.0,0.0,0.0,0.0,0.0,0.0,0.0,0.0,0.0,0.0,0.0,0.0,0.0,0.0,0.0,0.0,0.0,0.0,0.0,0.0,0.0,0.0,0.0,0.0,0.0,0.0,0.0,0.0,0.0,0.0,0.0,0.0,0.0,0.0,0.0,0.0,0.0,0.0,0.0,0.0,0.0,0.0,0.0,0.0,0.0,0.0,0.0,0.0,0.0,0.0,0.0,0.0,0.0,0.0,0.0,0.0,0.0,0.0,0.0,0.0,0.0,0.0,0.0,0.0,0.0,0.0,0.0,0.0,0.0,0.0,0.0,0.0,0.0,0.0,0.0,0.0,0.0,0.0,0.0,0.0,0.0,0.0,0.0,0.0,0.0,0.0,0.0,0.0,0.0,0.0,0.0,0.0,0.0,0.0,0.0,0.0,0.0,0.0,0.0,0.0,0.0,0.0,0.0,0.0,0.0,0.0,0.0,0.0,0.0,0.0,0.0,0.0,0.0,0.0,0.0,0.0,0.0,0.0,0.0,0.0,0.0,0.0,0.0,0.0,0.0,0.0,0.0,0.0,0.0,0.0,0.0,0.0,0.0,0.0,0.0,0.0,0.0,0.0,0.0,0.0,0.0,0.0,0.0,0.0,0.0,0.0,0.0,0.0,0.0,0.0,0.0,0.0,0.0,0.0,0.0,0.0,0.0,0.0,0.0,0.0,0.0,0.0,0.0,0.0,0.0,0.0,0.0,0.0,0.0,0.0,0.0,0.0,0.0,0.0,0.0,0.0,0.0,0.0,0.0,0.0,0.0,0.0,0.0,0.0,0.0,0.0,0.0,0.0,0.0,0.0,0.0,0.0,0.0,0.0,0.0,0.0,0.0,0.0,0.0,0.0,0.0,0.0,0.0,0.0,0.0,0.0,0.0,0.0,0.0,0.0,0.0,0.0,0.0,0.0,0.0,0.0,0.0,0.0,0.0,0.0,0.0,0.0,0.0,0.0,0.0,0.0,0.0,0.0,0.0,0.0,0.0,0.0,0.0,0.0,0.0,0.0,0.0,0.0,0.0,0.0,0.0,0.0,0.0,0.0,0.0,0.0,0.0,0.0,0.0,0.0,0.0,0.0,0.0,0.0,0.0,0.0,0.0,0.0,0.0,0.0,0.0,0.0,0.0,0.0,0.0,0.0,0.0,0.0,0.0,0.0,0.0,0.0,0.0,0.0,0.0,0.0,0.0,0.0,0.0,0.0,0.0,0.0,0.0,0.0,0.0,0.0,0.0,0.0,0.0,0.0,0.0,0.0,0.0,0.0,0.0,0.0,0.0,0.0,0.0,0.0,0.0,0.0,0.0,0.0,0.0,0.0,0.0,0.0,0.0,0.0,0.0,0.0,0.0,0.0,0.0,0.0,0.0,0.0,0.0,0.0,0.0,0.0,0.0,0.0,0.0,0.0,0.0,0.0,0.0,0.0,0.0,0.0,0.0,0.0,0.0,0.0,0.0,0.0,0.0,0.0,0.0,0.0,0.0,0.0,0.0,0.0,0.0,0.0,0.0,0.0,0.0,0.0,0.0,0.0,0.0,0.0,0.0,0.0,0.0,0.0,0.0,0.0,0.0,0.0,0.0,0.0,0.0,0.0,0.0,0.0,0.0,0.0,0.0,0.0,0.0,0.0,0.0,0.0,0.0,0.0,0.0,0.0,0.0,0.0,0.0,0.0,0.0,0.0,0.0,0.0,0.0,0.0,0.0,0.0,0.0,0.0,0.0,0.0,0.0,0.0,0.0,0.0,0.0,0.0,0.0,0.0,0.0,0.0,0.0,0.0,0.0,0.0,0.0,0.0,0.0,0.0,0.0,0.0,0.0,0.0,0.0,0.0,0.0,0.0,0.0,0.0,0.0,0.0,0.0,0.0,0.0,0.0,0.0,0.0,0.0,0.0,0.0,0.0,0.0,0.0,0.0,0.0,0.0,0.0,0.0,0.0,0.0,0.0,0.0,0.0,0.0,0.0,0.0,0.0,0.0,0.0,0.0,0.0,0.0,0.0,0.0,0.0,0.0,0.0,0.0,0.0,0.0,0.0,0.0,0.0,0.0,0.0,0.0,0.0,0.0,0.0,0.0,0.0,0.0,0.0,0.0,0.0,0.0,0.0,0.0,0.0,0.0,0.0,0.0,0.0,0.0,0.0,0.0,0.0,0.0,0.0,0.0,0.0,0.0,0.0,0.0,0.0,0.0,0.0,0.0,0.0,0.0,0.0,0.0,0.0,0.0,0.0,0.0,0.0,0.0,0.0,0.0,0.0,0.0,0.0,0.0,0.0,0.0,0.0,0.0,0.0,0.0,0.0,0.0,0.0,0.0,0.0,0.0,0.0,0.0,0.0,0.0,0.0,0.0,0.0,0.0,0.0,0.0,0.0,0.0,0.0,0.0,0.0,0.0,0.0,0.0,0.0,0.0,0.0,0.0,0.0,0.0,0.0,0.0,0.0,0.0,0.0,0.0,0.0,0.0,0.0,0.0,0.0,0.0,0.0,0.0,0.0,0.0,0.0,0.0,0.0,0.0,0.0,0.0,0.0,0.0,0.0,0.0,0.0,0.0,0.0,0.0,0.0,0.0,0.0,0.0,0.0,0.0,0.0,0.0,0.0,0.0,0.0,0.0,0.0,0.0,0.0,0.0,0.0,0.0,0.0,0.0,0.0,0.0,0.0,0.0,0.0,0.0,0.0,0.0,0.0,0.0,0.0,0.0,0.0,0.0,0.0,0.0,0.0,0.0,0.0,0.0,0.0,0.0,0.0,0.0,0.0,0.0,0.0,0.0,0.0,0.0,0.0,0.0,0.0,0.0,0.0,0.0,0.0,0.0,0.0,0.0,0.0,0.0,0.0,0.0,0.0,0.0,0.0,0.0,0.0,0.0,0.0,0.0,0.0,0.0,0.0,0.0,0.0,0.0,0.0,0.0,0.0,0.0,0.0,0.0,0.0,0.0,0.0,0.0,0.0,0.0,0.0,0.0,0.0,0.0,0.0,0.0,0.0,0.0,0.0,0.0,0.0,0.0,0.0,0.0,0.0,0.0,0.0,0.0,0.0,-2.0123,-1.753,0.0,0.0,0.0,0.0,0.0,0.0,0.0,0.0,0.0,0.0,0.0,0.0,0.0,0.0,0.0,0.0,0.0,0.0,0.0,0.0,0.0,0.0,0.0,0.0,0.0,0.0,0.0,0.0,0.0,0.0,0.0,0.0,0.0,0.0,0.0,0.0,0.0,0.0,1.4846,1.3524,1.2219,1.0457,1.1047,1.3538,0.0,0.0,0.0,0.0,0.0,0.0,0.0,0.0,0.0,0.0,0.0,0.0,0.0,0.0,0.0,0.0,0.0,0.0,0.0,0.0,0.0,0.0,0.0,0.0,0.0,0.0,0.0,0.0,0.0,0.0,0.0,0.0,0.0,0.0,0.0,0.0,0.0,0.0,0.0,0.0,0.0,0.0,0.0,0.0,0.0,0.0,0.0,0.0,0.0,0.0,0.0,0.0,0.0,0.0,0.0,0.0,0.0,0.0,0.0,0.0,0.0,0.0,0.0,0.0,0.0,0.0,0.0,0.0,0.0,0.0,-2.5779,-2.2933,0.0,0.0,0.0,0.0,0.0,0.0,0.0,0.0,0.0,0.0,0.0,0.0,0.0,0.0,0.0,0.0,0.0,0.0,0.0,0.0,0.0,0.0,0.0,0.0,0.0,0.0,0.0,0.0,0.0,0.0,0.0,0.0,0.0,0.0,0.0,0.0,0.0,0.0,1.3978,1.2041,0.9518,0.5362,0.5478,0.9132,1.003,0.0,0.0,0.0,0.0,0.0,0.0,0.0,0.0,0.0,0.0,0.0,0.0,0.0,0.0,0.0,0.0,0.0,0.0,0.0,0.0,0.0,0.0,0.0,0.0,0.0,0.0,0.0,0.0,0.0,0.0,0.0,0.0,0.0,0.0,0.0,0.0,0.0,0.0,0.0,0.0,0.0,0.0,0.0,0.0,0.0,0.0,0.0,0.0,0.0,0.0,0.0,0.0,0.0,0.0,0.0,0.0,0.0,0.0,0.0,0.0,0.0,0.0,0.0,-2.6817,-2.8733,-3.191,-3.2259,-3.3574,-3.5356,-3.1924,-2.9874,-2.8748,-2.743,0.0,0.0,0.0,0.0,0.0,0.0,0.0,0.0,0.0,0.0,0.0,0.0,0.0,0.0,0.0,0.0,0.0,0.0,0.0,0.0,0.0,1.7666,1.7612,1.6591,1.7477,1.788,0.0,0.0,0.0,0.0,0.0,0.0,0.0,1.7011,1.6459,1.4722,1.2682,0.9432,0.5081,0.2475,0.0193,-0.1568,0.2178,0.3816,0.3899,0.0,0.0,0.0,0.0,0.0,0.0,0.0,0.0,0.0,0.0,0.0,0.0,0.0,0.0,0.0,0.0,0.0,0.0,0.0,0.0,0.0,0.0,0.0,0.0,0.0,0.0,0.0,0.0,0.0,0.0,0.0,0.0,0.0,0.0,0.0,0.0,0.0,0.0,0.0,0.0,0.0,1.1513,0.8214,0.0,0.0,0.0,0.0,0.0,0.0,0.0,0.0,0.0,0.0,0.0,0.0,0.0,-2.2966,-2.556,-2.8494,-3.0532,-3.1622,-3.2854,-3.4358,-3.6214,-3.6227,-3.7201,-3.8765,-3.8796,0.0,-3.3574,-3.1216,0.0,0.0,0.0,0.0,0.0,0.0,0.0,0.0,0.0,0.0,0.0,0.0,0.0,0.0,0.0,0.0,0.0,0.0,0.0,0.0,0.0,1.7203,1.6802,1.6003,1.6353,1.6388,1.5714,0.0,0.0,0.0,0.0,0.0,1.6466,1.6441,1.5429,1.3541,0.941,0.5866,0.2784,-0.0972,-0.3762,-0.5564,-0.372,-0.3074,-0.3328,-0.1662,0.0,0.0,0.0,0.0,0.0,0.0,0.0,0.0,0.0,0.0,0.0,0.0,0.0,0.0,0.0,0.0,0.0,0.0,0.0,0.0,0.0,0.0,0.0,0.0,0.0,0.0,0.0,0.0,0.0,0.0,0.0,0.0,0.0,0.0,0.0,0.0,0.0,0.0,0.0,1.1544,0.557,0.1154,-0.1233,-0.3675,0.0,0.0,0.0,0.0,0.0,0.0,0.0,0.0,0.0,-2.3213,-2.6217,-2.8762,-3.0817,-3.3219,-3.5024,-3.6155,-3.6826,-3.7947,-3.9445,-3.9445,-4.0039,-4.107,-4.0995,-4.0039,-3.8275,-3.5905,-3.3292,-3.0618,0.0,0.0,0.0,0.0,-2.4971,-2.5404,0.0,0.0,0.0,0.0,0.0,0.0,0.0,0.0,0.0,0.0,0.0,0.0,1.7394,1.6899,1.6194,1.5196,1.4902,1.4428,1.3584,1.4122,0.0,0.0,0.0,1.5398,1.602,1.4949,1.3392,1.1415,0.6108,0.2465,0.045,-0.3857,-0.641,-0.7367,-0.7662,-0.7962,-0.8107,-0.7103,-0.6067,-0.4854,0.0,0.0,0.0,0.0,0.0,0.0,0.0,0.0,0.0,0.0,0.0,0.0,0.0,0.0,0.0,0.0,0.0,0.0,0.0,0.0,0.0,0.0,0.0,0.0,0.0,0.0,0.0,0.0,0.0,0.0,0.0,0.0,0.0,0.0,0.0,0.0,0.0,0.697,-0.0074,-0.4974,-0.8526,-1.1455,0.0,0.0,0.0,0.0,0.0,0.0,-2.623,-2.8035,-2.9189,-3.0101,-3.2114,-3.4023,-3.58,-3.7148,-3.8543,-3.9905,-3.9667,-4.033,-4.1624,-4.1459,-4.1654,-4.2087,-4.1594,-4.1384,-4.1189,-3.8923,-3.6043,-3.2943,-3.1317,-2.9453,-2.7577,-2.7179,-2.716,-2.7581,0.0,0.0,0.0,0.0,0.0,0.0,0.0,0.0,0.0,0.0,0.0,1.8458,1.7435,1.7218,1.6248,1.3964,1.3168,1.2205,1.0971,1.1452,1.2062,1.272,1.3398,1.4089,1.4789,1.2373,1.0041,0.788,0.34,-0.0,-0.2521,-0.5819,-0.753,-0.7982,-0.923,-0.9297,-0.8599,-0.9055,-0.9269,-0.9155,-0.6546,0.0,0.0,0.0,0.0,0.0,0.0,0.0,0.0,0.0,0.0,0.0,0.0,0.0,0.0,0.0,0.0,0.0,0.0,0.0,0.0,0.0,0.0,0.0,0.0,0.0,0.0,0.0,0.0,0.0,0.0,0.0,0.0,0.0,0.0,0.0,0.0,0.0,0.0,-0.9066,-1.5313,0.0,0.0,0.0,0.0,-2.1251,-2.3296,-2.6399,-3.0635,-3.2448,-3.4603,-3.7376,-3.8203,-3.908,-4.004,-4.0785,-4.1532,-4.2252,-4.1547,-4.1683,-4.2374,-4.1669,-4.1399,-4.1429,-4.1384,-4.1384,-4.1189,-3.8923,-3.6869,-3.5113,-3.3459,-3.1797,-3.0415,-3.0348,-3.0011,-2.9639,0.0,0.0,0.0,0.0,0.0,0.0,0.0,0.0,0.0,1.7229,1.7626,1.7706,1.7353,1.6608,1.5636,1.4435,1.258,1.1047,1.0109,0.9867,1.0039,1.0623,1.1358,1.1944,1.2232,1.1048,0.9846,0.8584,0.232,-0.2043,-0.4495,-0.5617,-0.6805,-0.7972,-0.8078,-0.8626,-0.9463,-1.0321,-1.0032,-0.8918,-0.8495,-0.6933,0.0,0.0,0.0,0.0,0.0,0.0,0.0,0.0,0.0,0.0,0.0,0.0,0.0,0.0,0.0,0.0,0.0,0.0,0.0,0.0,0.0,0.0,0.0,0.0,0.0,0.0,0.0,0.0,0.0,0.0,0.0,0.0,0.0,0.0,0.0,0.0,0.0,-2.2637,-2.5105,0.0,-2.7909,-2.7321,-2.7687,-2.9767,-3.0861,-3.283,-3.6067,-3.6725,-3.8213,-4.0763,-4.103,-4.1525,-4.2282,-4.2521,-4.2746,-4.297,-4.2327,-4.2132,-4.2419,-4.1683,-4.1384,-4.1354,-4.0935,-4.0756,-4.0681,-3.9387,-3.7774,-3.5866,-3.4165,-3.251,-3.1072,-3.0733,-3.0495,-3.0319,0.0,0.0,0.0,0.0,0.0,0.0,0.0,0.0,1.6637,1.6993,1.7353,1.7422,1.7076,1.6255,1.5404,1.4435,1.196,1.0132,0.943,0.8756,0.8639,0.9277,1.0368,1.0441,0.9247,0.8607,0.7462,0.5743,0.0317,-0.3432,-0.5618,-0.6226,-0.7016,-0.7861,-0.7824,-0.8441,-0.941,-1.0122,-0.9845,-0.8872,-0.8985,-0.8152,-0.6423,0.0,0.0,0.0,0.0,0.0,0.0,0.0,0.0,0.0,0.0,0.0,0.0,0.0,0.0,0.0,0.0,0.0,0.0,0.0,0.0,0.0,0.0,0.0,0.0,0.0,0.0,0.0,0.0,0.0,0.0,0.0,0.0,0.0,0.0,-1.2549,-2.0847,-2.9309,-3.1733,-3.3076,-3.3968,-3.4006,-3.4593,-3.6087,-3.6861,-3.8102,-4.0051,-4.0349,-4.1111,-4.2656,-4.2686,-4.2895,-4.3329,-4.3329,-4.3329,-4.3329,-4.2671,-4.2357,-4.2327,-4.1444,-4.1055,-4.101,-4.0352,-4.0068,-4.0038,-3.9194,-3.7829,-3.6184,-3.5074,-3.3273,-3.1348,-3.0997,-3.0645,-3.0331,0.0,0.0,0.0,0.0,0.0,0.0,0.0,1.6522,1.6522,1.6522,1.7422,1.7706,1.668,1.6426,1.5639,1.3964,1.1353,0.9526,0.8874,0.8125,0.7972,0.8633,1.0325,0.9522,0.5832,0.4875,0.2628,-0.096,-0.2594,-0.4309,-0.6117,-0.7878,-0.8292,-0.7566,-0.8758,-0.8935,-0.8358,-0.8518,-0.8804,-0.9135,-0.8161,-0.7957,-0.8064,0.0,0.0,0.0,0.0,0.0,0.0,0.0,0.0,0.0,0.0,0.0,0.0,0.0,0.0,0.0,0.0,0.0,0.0,0.0,0.0,0.0,0.0,0.0,0.0,0.0,0.0,0.0,0.0,0.0,0.0,0.0,0.0,0.0,-1.1511,-1.7851,-2.4396,-2.8473,-3.501,-3.8895,-3.8225,-3.9722,-4.0545,-4.0097,-4.1117,-4.196,-4.2339,-4.2985,-4.3329,-4.3329,-4.3329,-4.3329,-4.3329,-4.3329,-4.3329,-4.3329,-4.2656,-4.2327,-4.2282,-4.0965,-4.0367,-4.0337,-3.9694,-3.9424,-3.9337,-3.8308,-3.7175,-3.6198,-3.6212,-3.4233,-3.1411,-3.1399,-3.0708,-2.9792,0.0,0.0,0.0,0.0,0.0,0.0,0.0,1.6522,1.6637,1.7034,1.7353,1.7544,1.7666,1.7233,1.6767,1.6291,1.3464,1.1659,1.1465,0.905,0.7641,0.7747,0.6779,0.508,0.2691,0.0999,-0.0599,-0.2116,-0.504,-0.6717,-0.723,-0.7435,-0.7805,-0.8175,-0.8057,-0.7973,-0.7871,-0.7545,-0.7162,-0.6993,-0.7575,-0.748,-0.6976,0.0,0.0,0.0,0.0,0.0,0.0,0.0,0.0,0.0,0.0,0.0,0.0,0.0,0.0,0.0,0.0,0.0,0.0,0.0,0.0,0.0,0.0,0.0,0.0,0.0,0.0,0.0,0.0,0.0,0.0,0.0,-2.0507,-2.2955,-1.9725,-2.6091,-3.2657,-3.6962,-3.9857,-4.1601,-4.1889,-4.1184,-4.0625,-4.0544,-4.1226,-4.1695,-4.1767,-4.2797,-4.3329,-4.3329,-4.3329,-4.3329,-4.3329,-4.3329,-4.3329,-4.3329,-4.2192,-4.1654,-4.1609,-4.0292,-3.9694,-3.9679,-3.9499,-3.9424,-3.9352,-3.9104,-3.789,-3.6132,-3.544,-3.3792,-3.1938,-3.1537,-3.0708,-2.9792,0.0,0.0,0.0,0.0,0.0,0.0,0.0,1.6522,1.668,1.7229,1.7504,1.7747,1.8066,1.7917,1.7638,1.7247,1.5176,1.3768,1.3372,1.025,0.8298,0.7937,0.4804,0.2112,0.0113,-0.2156,-0.3475,-0.3793,-0.6439,-0.7698,-0.7698,-0.7885,-0.8034,-0.8207,-0.7985,-0.7742,-0.7395,-0.6907,-0.647,-0.6193,-0.6786,-0.6824,-0.6474,-0.6568,-0.6944,-0.7724,-0.9185,-1.0494,-1.1186,-0.9415,0.0,0.0,0.0,0.0,0.0,0.0,0.0,0.0,0.0,0.0,0.0,0.0,0.0,0.0,0.0,0.0,0.0,0.0,0.0,0.0,0.0,0.0,0.0,0.0,-2.5691,-2.7988,-2.7969,-3.192,-3.6166,-3.9612,-4.1488,-4.2566,-4.3022,-4.2321,-4.1694,-4.1183,-4.1443,-4.1639,-4.1616,-4.2208,-4.2805,-4.325,-4.306,-4.2925,-4.2925,-4.2656,-4.2506,-4.2506,-4.1459,-4.0965,-4.0935,-3.9888,-3.9424,-3.9424,-3.9424,-3.9424,-3.9322,-3.8648,-3.7425,-3.5839,0.0,0.0,0.0,0.0,-3.0331,-2.9792,0.0,0.0,0.0,0.0,0.0,0.0,0.0,1.6522,1.671,1.7312,1.7787,1.8145,1.8263,1.8584,1.8451,1.7572,1.6686,1.5726,1.4575,1.1492,0.9343,0.8421,0.4008,0.0512,-0.1721,-0.4418,-0.5693,-0.5487,-0.6902,-0.7557,-0.7622,-0.8568,-0.862,-0.7891,-0.8316,-0.7966,-0.7052,-0.6659,-0.6445,-0.6246,-0.6025,-0.6242,-0.669,-0.6722,-0.7741,-0.9159,-0.9447,-1.0284,-1.1299,-1.1299,0.0,0.0,0.0,0.0,0.0,0.0,0.0,0.0,0.0,0.0,0.0,0.0,0.0,0.0,0.0,0.0,0.0,0.0,0.0,0.0,0.0,0.0,0.0,0.0,-2.739,-3.0292,-3.473,-3.5431,-3.643,-3.9018,-4.1165,-4.2422,-4.2422,-4.2753,-4.2547,-4.1411,-4.1366,-4.1355,-4.1212,-4.1504,0.0,0.0,0.0,-4.2432,-4.2357,-4.1788,-4.1444,-4.1369,-4.0711,-4.0397,-4.0367,-3.9634,-3.9305,-3.9305,-3.923,-3.9158,-3.9013,-3.7507,-3.6127,-3.4994,-3.4917,-3.3436,-3.1185,-3.0168,-2.9792,-2.9792,0.0,0.0,0.0,0.0,0.0,0.0,0.0,1.6522,1.6837,1.7827,1.8027,1.8419,1.9281,1.9728,1.9783,1.9251,1.8527,1.7063,1.4665,1.1955,0.9271,0.6546,0.3808,0.1139,-0.1498,-0.3838,-0.5159,-0.5487,-0.6367,-0.6804,-0.6804,-0.7609,-0.7901,-0.7751,-0.8682,-0.8288,-0.6942,-0.7196,-0.6651,-0.5575,-0.5658,-0.643,-0.7557,-0.7918,-0.8993,-1.0403,-1.1674,-1.186,-1.1579,-1.1475,-1.055,-0.9308,-0.8094,-0.7658,0.0,0.0,0.0,0.0,0.0,0.0,0.0,0.0,0.0,0.0,0.0,0.0,0.0,0.0,0.0,0.0,0.0,0.0,0.0,-2.5212,-2.793,-3.0583,-3.3538,-3.4394,-3.6423,-4.1248,-4.1758,-4.1812,-4.1812,-4.0551,-3.9492,-3.88,-3.9144,-3.9293,-3.8751,-4.0547,-4.1684,-4.1932,-4.2702,-4.2895,-4.2357,-4.2237,-4.1908,-4.1369,-4.0711,0.0,-4.0367,-3.914,-3.8586,-3.8556,-3.8033,-3.7571,-3.7214,-3.6505,-3.484,-3.2715,-3.1902,-3.1233,-3.0683,-3.003,-2.9792,-2.9792,0.0,0.0,0.0,0.0,0.0,0.0,0.0,1.668,1.6795,1.7585,1.7947,1.8419,1.9207,1.9899,2.0158,1.9762,1.9133,1.7926,1.5973,1.3464,1.0851,0.8197,0.5089,0.2506,0.0387,-0.2517,-0.4379,-0.4984,-0.6086,-0.6588,-0.6588,-0.6966,-0.7128,-0.7187,-0.7689,-0.7466,-0.6779,-0.6744,-0.6365,-0.5668,-0.5602,-0.6399,-0.7537,-0.7368,-0.8395,-0.9946,-1.0775,-1.1319,-1.1721,-1.1733,-1.0947,-1.0012,-0.9236,-0.8524,-0.7984,0.0,0.0,0.0,0.0,0.0,0.0,0.0,0.0,0.0,0.0,0.0,0.0,0.0,0.0,-1.4874,-1.8111,0.0,-2.2153,-2.6783,-2.9096,-3.1251,-3.367,-3.4263,-3.5534,-3.855,-3.8667,-3.8448,-3.8448,-3.7637,-3.7088,-3.6917,-3.7159,-3.7464,-3.7648,-3.9619,-4.0858,-4.1208,-4.1927,-4.2192,-4.1878,-4.122,-4.0726,-4.0382,-3.9709,-3.9394,-3.9364,-3.7893,-3.7434,-3.7814,-3.6587,-3.6173,-3.6244,-3.4741,-3.2887,-3.0933,-3.0428,-3.0206,-3.0168,-2.9892,-2.9792,-2.9792,0.0,0.0,0.0,0.0,0.0,0.0,0.0,0.0,1.6993,1.7544,1.7987,1.8458,1.9006,1.9778,2.0158,1.9839,1.9229,1.8507,1.7599,1.5298,1.3058,1.1057,0.7269,0.4424,0.2841,-0.0491,-0.2802,-0.3929,-0.5433,-0.6213,-0.6213,-0.6204,-0.6312,-0.6485,-0.6539,-0.6598,-0.6584,-0.6262,-0.6005,-0.5746,-0.5645,-0.6135,-0.6897,-0.6382,-0.7523,-0.9369,-0.9566,-1.0356,-1.1412,-1.1579,-1.0794,-0.9835,-0.9908,-0.9233,-0.8371,-0.8058,-0.7957,0.0,0.0,0.0,0.0,0.0,0.0,0.0,0.0,-1.0153,-1.322,-1.4407,-1.5888,-1.7399,-1.8757,-2.0824,-2.3674,-2.7537,-2.9064,-3.0533,-3.2501,-3.2763,-3.2891,-3.3482,-3.4593,-3.5288,-3.5288,-3.521,-3.5216,-3.5362,-3.5525,-3.5782,-3.6496,-3.8452,-3.9745,-4.0235,-4.0978,-4.1234,-4.0933,-3.9934,-3.9118,-3.859,-3.837,-3.8112,-3.7872,-3.6458,-3.6237,-3.6852,-3.493,-3.4478,-3.4909,-3.2729,-3.11,-2.9792,-2.9792,-2.9792,-2.9792,-2.9792,-2.9792,-2.9792,0.0,0.0,0.0,0.0,0.0,0.0,0.0,0.0,0.0,1.865,1.8765,1.9006,1.9566,2.0019,2.028,2.0246,1.9434,1.8855,1.8727,1.6954,1.5293,1.3881,1.0293,0.7228,0.5,0.2715,0.0441,-0.1829,-0.3796,-0.4761,-0.475,-0.4728,-0.5167,-0.6014,-0.6391,-0.6579,-0.6593,-0.6552,-0.5929,-0.5037,-0.5291,-0.5517,-0.5623,-0.5808,-0.7716,-1.0253,-1.056,-1.0517,-1.0524,-1.0706,-0.9669,-0.8358,-0.8855,-0.8948,-0.8786,-0.8776,-0.8285,-0.7723,-0.7886,-0.7813,-0.7607,-0.7448,-0.74,-0.8086,0.0,-1.1456,-1.214,-1.5143,-1.6288,-1.7559,-2.0332,-2.1534,-2.2883,-2.5285,-2.5611,-2.5886,-2.6867,-2.6678,-2.6727,-2.6979,-3.1909,-3.5288,-3.5288,-3.4896,-3.451,-3.4065,-3.435,-3.4364,-3.397,-3.6674,-3.8339,-3.8311,-4.0324,-4.0692,-3.9127,-3.9299,-3.8179,-3.5837,-3.7007,-3.7064,-3.6215,-3.5437,-3.5148,-3.5148,-3.3159,-3.2066,-3.1689,-3.1009,-3.036,-2.9792,-2.9792,-2.9792,-2.9792,-2.9792,-2.9792,-2.9792,0.0,0.0,0.0,0.0,0.0,0.0,0.0,0.0,0.0,0.0,1.7787,1.8066,1.8302,1.8999,1.9492,1.9492,1.9413,1.9419,1.9521,1.8314,1.7234,1.6441,1.3445,1.042,0.7401,0.5526,0.3455,0.1047,-0.0495,-0.1434,-0.1883,-0.1879,-0.2098,-0.2483,-0.2644,-0.2758,-0.2779,-0.2732,-0.2465,-0.1952,-0.207,-0.2114,-0.214,-0.2287,-0.3242,-0.4851,-0.7476,-0.7346,0.0,-0.6587,-0.6157,-0.5482,-0.5906,-0.6187,-0.6363,-0.6302,-0.6044,-0.5817,-0.5929,-0.5649,-0.5831,-0.7841,-0.8457,-0.9118,-1.1152,-1.1418,-1.1908,-1.4451,-1.5847,-1.734,-1.9943,-2.1393,-2.279,-2.4801,-2.5111,-2.5119,-2.5426,-2.5335,-2.5301,-2.5451,-2.7739,-2.9422,-2.9546,-2.9413,-2.9721,-3.0419,-3.0971,-3.1551,-3.2165,-3.4702,-3.6048,-3.5697,-3.7197,-3.7701,-3.6971,-3.6739,-3.6074,-3.4968,-3.5079,-3.4982,-3.4594,-3.3329,-3.2486,-3.1923,-3.1686,-3.113,-3.0368,-3.0173,-2.9993,-2.9792,-2.9792,-2.9792,-2.9792,-2.9792,-2.9792,-2.9792,0.0,0.0,0.0,0.0,0.0,0.0,0.0,0.0,0.0,0.0,0.0,1.7504,1.7504,1.8224,1.8727,1.8893,1.9376,0.0,0.0,1.9808,1.9288,1.8897,1.6612,1.3967,1.0921,0.8553,0.6442,0.4517,0.325,0.213,0.1208,0.1212,0.0939,0.0442,0.1561,0.2071,0.208,0.2095,0.2248,0.2577,0.2707,0.2704,0.2679,0.2679,0.2509,0.1573,-0.3248,-0.3677,-0.2058,-0.2304,-0.2087,-0.1762,-0.2019,-0.2244,-0.2346,-0.2314,-0.226,-0.2422,-0.3047,-0.3031,-0.333,-0.5691,-0.766,-0.9375,-1.0386,-1.0635,-1.141,-1.3823,-1.5173,-1.6534,-1.8289,-1.9503,-2.0816,-2.2209,-2.2408,-2.2378,-2.2468,-2.2326,-2.2243,-2.2333,-2.2723,-2.2989,-2.3043,-2.4335,-2.5743,-2.7254,-2.7779,-2.8796,-3.0435,-3.2613,-3.3789,-3.3741,-3.4799,-3.5183,-3.4876,-3.4499,-3.4195,-3.3882,-3.3473,-3.3329,-3.3315,-3.187,-3.0696,-2.9869,-3.0482,-3.0419,-2.9792,-2.9792,-2.9792,-2.9792,-2.9792,-2.9792,-2.9792,-2.9792,-2.9792,-2.9792,0.0,0.0,0.0,0.0,0.0,0.0,0.0,0.0,0.0,0.0,0.0,0.0,0.0,1.8106,1.8341,1.8855,1.9346,0.0,0.0,2.1473,2.1585,2.1305,1.9729,1.7969,1.6009,1.2091,0.9581,0.8504,0.713,0.5672,0.4193,0.4303,0.3327,0.1612,0.5543,0.7255,0.7276,0.7294,0.779,0.8587,0.8896,0.9055,0.9008,0.9008,0.8636,0.7372,0.1534,-0.0481,-0.0167,0.117,0.2211,0.2876,0.2852,0.2912,0.2956,0.323,0.337,0.2866,0.0488,-0.0298,-0.0506,-0.0315,-0.4634,-0.8951,-0.9259,-0.9425,-1.0509,-1.3742,-1.4728,-1.5034,-1.5165,-1.5473,-1.5747,-1.5752,-1.5565,-1.5375,-1.5721,-1.5366,-1.5163,-1.5503,-1.6874,-1.7648,-1.7002,-2.1271,-2.448,-2.5379,-2.5519,-2.6533,-2.8533,-3.0446,-3.1893,-3.2975,-3.4093,-3.4093,-3.3131,-3.3479,-3.309,-3.2051,-3.2491,-3.2621,-3.2635,-3.1609,-3.0696,-2.9792,-2.9869,-2.9869,-2.9792,-2.9792,-2.9792,-2.9792,-2.9792,-2.9792,-2.9792,-2.9792,-2.9792,-2.9792,0.0,0.0,0.0,0.0,0.0,0.0,0.0,0.0,0.0,0.0,0.0,0.0,0.0,0.0,0.0,0.0,1.8826,1.9852,2.1528,2.1737,2.2194,2.3088,2.1917,2.0483,1.8827,1.6641,1.4481,1.2428,1.1352,0.9987,0.8322,0.803,0.7429,0.6723,0.8098,0.9003,0.9538,0.9646,1.0245,1.1145,1.1043,1.1261,1.1552,1.0978,1.0797,1.0519,0.0,0.6915,0.6374,0.6649,0.6701,0.662,0.7059,0.7197,0.7025,0.6166,0.6122,0.6098,0.5517,0.414,0.2378,0.0217,-0.1776,-0.3843,-0.5884,-0.7939,-0.9771,-1.1117,-1.1458,-1.1566,-1.1566,-1.2855,-1.3793,-1.3793,-1.4996,-1.5544,-1.4947,-1.4196,-1.3832,-1.4606,-1.6015,-1.6703,-1.6458,-1.9119,-2.1078,-2.1546,-2.2754,-2.4361,-2.6299,-2.8209,-2.972,-3.0854,-3.1863,-3.1849,-3.0854,-3.2233,-3.2125,-3.056,-3.0661,-3.0709,-3.0709,-3.0419,-3.0075,-2.9792,-2.9792,-2.9792,-2.9792,-2.9792,-2.9792,-2.9792,-2.9792,-2.9566,-2.9264,-2.9654,-2.9553,-2.9277,0.0,0.0,0.0,0.0,0.0,0.0,0.0,0.0,0.0,0.0,0.0,0.0,0.0,0.0,0.0,0.0,0.0,1.9632,2.1449,2.1966,2.2758,2.4063,2.3386,2.2437,2.1275,1.9757,1.7998,1.6035,1.469,1.3149,1.1465,1.1077,1.0565,1.0059,1.0801,1.1557,1.2289,1.2972,1.3575,1.4066,1.387,1.3986,1.419,1.3616,1.3646,0.0,1.324,1.255,1.1715,1.0251,0.9463,0.9199,0.929,0.9399,0.9389,0.852,0.8251,0.8092,0.7923,0.6934,0.5435,0.3387,0.1342,-0.0795,-0.2756,-0.4634,-0.6401,-0.7648,-0.7939,-0.8002,-0.8066,-0.9205,-1.0484,-1.1639,-1.3041,-1.3268,-1.137,-1.1479,-1.1987,-1.2539,-1.4307,-1.5406,-1.5271,-1.7792,-1.9439,-1.9435,-2.1245,-2.3103,-2.4919,-2.6951,-2.8597,-2.9792,-3.0696,-3.0895,-3.0279,-3.1829,-3.1829,-3.0279,-3.0633,-3.0432,-2.9792,-2.9792,-2.9792,-2.9792,-2.9792,-2.9792,-2.9779,-2.9566,-2.9478,-2.9465,-2.9264,-2.8963,-2.8674,-2.9051,-2.895,-2.8712,0.0,0.0,0.0,0.0,0.0,0.0,0.0,0.0,0.0,0.0,0.0,0.0,0.0,0.0,0.0,0.0,0.0,0.0,2.0918,2.216,2.3264,2.4238,2.41,2.3781,2.3337,2.1515,2.0131,1.9291,1.7205,1.535,1.3729,1.3594,1.2849,1.179,1.3858,1.5061,1.5722,1.7254,1.7731,1.757,1.755,1.7422,1.7174,1.7154,1.7293,1.7387,1.6515,1.6213,1.5664,1.1927,1.081,1.0771,0.9781,0.9802,1.0198,1.0408,0.9927,0.9017,0.8063,0.8039,0.8377,0.88,0.463,0.0445,0.0222,0.0225,-0.0567,-0.3456,-0.4327,-0.4411,-0.4444,-0.4654,-0.5757,-0.8852,-0.9562,-0.8611,-0.5362,-0.7446,-0.9268,-0.9463,-1.1933,-1.3581,-1.3357,-1.6937,-1.9243,-1.9018,-2.095,-2.2775,-2.4471,-2.6862,-2.8585,-2.9741,-3.0657,-3.1114,-3.1088,-3.201,-3.2082,-3.1235,-3.2082,-3.1529,-2.9781,-2.9704,-2.9729,-2.9741,-2.9716,-2.9729,-2.9704,-2.9126,-2.8888,-2.8837,-2.8237,-2.8011,-2.7986,-2.7938,-2.7938,-2.7988,0.0,0.0,0.0,0.0,0.0,0.0,0.0,0.0,0.0,0.0,0.0,0.0,0.0,0.0,0.0,0.0,0.0,0.0,2.1245,2.1826,2.2687,2.4026,2.4171,2.4117,2.3838,0.0,0.0,2.1553,2.0401,1.9312,1.8302,1.7856,1.7405,1.7008,1.8076,1.8947,1.9705,2.0127,2.0653,2.116,2.0795,2.0818,2.1014,2.0251,2.0193,2.0427,1.9312,1.9137,1.8833,1.4959,1.36,1.3488,1.273,1.2864,1.3145,1.2412,1.1531,1.0655,0.971,0.8844,0.833,0.8642,0.752,0.5806,0.3543,0.3018,0.2691,0.1691,0.1442,0.1406,0.1479,-0.0609,-0.2507,-0.3345,-0.7,-0.8624,-0.5389,-0.5167,-0.6334,-0.8742,-1.1424,-1.3314,-1.4076,-1.6941,-1.8958,-1.9574,-2.1737,-2.3486,-2.4545,-2.6862,-2.8415,-2.9088,-3.0073,-3.0349,-2.9829,-3.0717,-3.139,-3.1875,-3.0786,-2.9971,-2.9496,-2.8807,-2.8762,-2.9126,-2.8712,-2.8762,-2.9101,-2.8549,-2.831,-2.8224,-2.736,-2.6747,-2.6371,-2.603,-2.5611,-2.5298,0.0,0.0,0.0,0.0,0.0,0.0,0.0,0.0,0.0,0.0,0.0,0.0,0.0,0.0,0.0,0.0,0.0,0.0,0.0,2.1292,2.2158,2.3249,2.3622,2.3817,2.3777,0.0,0.0,0.0,0.0,0.0,1.9949,2.0185,2.0098,1.9819,2.0686,2.1508,2.2192,2.24,2.2672,0.0,0.0,2.2959,2.2937,2.2634,2.2853,2.3208,2.2124,2.159,2.1043,1.8458,1.6729,1.5544,1.4851,1.4965,1.5123,1.4115,1.3082,1.2215,1.1778,1.0427,0.9195,0.9297,0.887,0.7947,0.6039,0.55,0.5362,0.5325,0.5269,0.5138,0.5174,0.3779,0.2293,0.1406,-0.2543,-0.4891,-0.3059,-0.3448,-0.5597,-0.9753,-1.1627,-1.2986,-1.4142,-1.6863,-1.8847,-1.9387,-2.1889,-2.3741,-2.4535,-2.6564,-2.8101,-2.8863,-2.9606,-3.0007,-3.0132,-3.0865,-3.1198,-3.0932,-3.0324,-2.9591,-2.8782,-2.8303,-2.8273,-2.8549,-2.8235,-2.8285,-2.8524,-2.7971,-2.7503,-2.7017,-2.625,-2.5451,-2.4777,-2.4555,-2.4251,-2.3929,0.0,0.0,0.0,0.0,0.0,0.0,0.0,0.0,0.0,0.0,0.0,0.0,0.0,0.0,0.0,0.0,0.0,0.0,0.0,0.0,0.0,0.0,2.2818,2.3159,2.3386,2.3552,2.2966,2.157,2.2517,2.2075,0.0,0.0,0.0,0.0,0.0,0.0,0.0,0.0,2.3958,2.3645,2.4295,2.4291,2.3928,0.0,0.0,0.0,2.4547,2.3624,2.2691,2.2098,2.0083,1.7691,1.6812,1.676,1.6759,1.57,1.4577,1.3766,1.3909,1.217,1.0423,1.0423,0.9556,0.8674,0.8261,0.7902,0.773,0.7921,0.7745,0.7549,0.7528,0.7485,0.6975,0.5246,0.2776,0.082,0.0108,-0.2215,-0.5737,-1.0695,-1.1768,-1.261,-1.3945,-1.6832,-1.8729,-1.9157,-2.1655,-2.3664,-2.4619,-2.6416,-2.7819,-2.8637,-2.9048,-2.9697,-3.0563,-3.1282,-3.0956,-2.9422,-3.0011,-2.9493,-2.8015,-2.7956,-2.7921,-2.7996,-2.7921,-2.7883,-2.7846,-2.7214,-2.6404,-2.5397,-2.4754,-2.3971,-2.3116,-2.3025,-2.3047,-2.3047,0.0,0.0,0.0,0.0,0.0,0.0,0.0,0.0,0.0,0.0,1.9043,1.8574,0.0,0.0,0.0,0.0,0.0,0.0,0.0,0.0,0.0,0.0,0.0,0.0,2.2838,2.2561,2.2245,2.1905,2.2263,2.2355,0.0,0.0,0.0,0.0,0.0,0.0,0.0,0.0,2.4452,2.4454,2.5103,2.5357,2.5339,0.0,0.0,0.0,2.5425,2.4807,2.442,2.5256,2.3768,2.136,2.0189,2.0095,1.9901,1.7835,1.6306,1.5106,1.4142,1.2748,1.1609,1.1609,1.1447,1.117,1.0651,1.0464,1.0352,0.9958,0.9842,0.9767,0.9676,0.8163,0.6955,0.7111,0.7095,0.5424,0.0637,-0.1672,-0.4316,-0.7906,-1.0127,-1.1983,-1.3964,-1.6192,-1.8652,-2.1202,-2.1822,-2.2987,-2.4858,-2.688,-2.7802,-2.7582,-2.788,-2.8093,-2.8292,-2.8697,-2.8948,-2.9049,-2.8045,-2.763,-2.7785,-2.7062,-2.6992,-2.7394,-2.6942,-2.6753,-2.6741,-2.5764,-2.4845,-2.3795,-2.2512,-2.1675,-2.1182,-2.0683,-2.0527,-2.0527,0.0,0.0,0.0,0.0,0.0,0.0,0.0,2.0174,2.0,2.0,1.9793,1.9456,1.8968,1.9169,1.9332,0.0,0.0,0.0,0.0,0.0,0.0,0.0,0.0,0.0,2.1828,2.2195,2.1982,2.1119,0.0,2.2646,2.2188,2.3146,2.3595,2.361,2.3939,2.4088,2.4088,2.4088,2.4088,2.4178,2.5196,2.5615,0.0,0.0,0.0,0.0,0.0,2.6008,2.6167,2.6946,2.6557,2.5433,2.3198,2.2817,2.2676,1.9901,1.8587,1.7871,1.7094,1.5354,1.3837,1.3837,1.2794,1.1522,1.0965,1.075,1.0574,1.0248,1.001,1.0005,1.0324,0.9311,0.8668,0.9137,0.8676,0.7279,0.4651,0.0405,-0.3709,-0.681,-0.9683,-1.2279,-1.4386,-1.6746,-1.8815,-2.0252,-2.18,-2.3322,-2.4774,-2.6139,-2.6553,-2.6025,-2.611,-2.6295,-2.6565,-2.6947,-2.7135,-2.7248,-2.6694,-2.6385,-2.6167,-2.5798,-2.59,-2.6377,-2.5837,-2.5548,-2.5338,-2.451,-2.3397,-2.2012,-2.1343,-2.0668,-2.0011,-1.9649,-1.959,-1.959,0.0,0.0,0.0,0.0,0.0,0.0,0.0,2.055,2.0348,2.0449,2.0348,2.0193,1.9874,1.9747,1.969,0.0,0.0,0.0,0.0,0.0,0.0,0.0,0.0,0.0,0.0,0.0,0.0,2.0531,2.2339,0.0,0.0,0.0,0.0,0.0,2.3595,2.3595,2.3595,2.3595,2.3684,0.0,0.0,2.5689,0.0,0.0,0.0,0.0,0.0,2.7298,2.7821,2.8272,2.8857,2.8856,2.6089,2.5722,2.552,2.2144,2.1287,2.133,2.0159,1.8402,1.6807,1.6563,1.4746,1.2871,1.221,1.1847,1.143,1.1025,1.0745,1.0726,1.1196,1.0826,1.0573,1.0829,0.9414,0.8314,0.811,0.2782,-0.2385,-0.5783,-0.9639,-1.2775,-1.4699,-1.7068,-1.876,-1.9103,-2.1497,-2.3448,-2.474,-2.5179,-2.5247,-2.4833,-2.482,-2.5021,-2.5423,-2.5574,-2.5574,-2.5423,-2.5409,-2.5077,-2.4549,-2.4341,-2.4484,-2.4841,-2.4435,-2.4105,-2.3831,-2.3229,-2.2014,-2.0561,-2.0365,-1.9788,-1.9023,-1.9121,-1.915,-1.915,0.0,0.0,0.0,0.0,0.0,0.0,0.0,2.0348,2.0449,2.0894,2.055,2.028,2.0246,1.9909,1.969,0.0,0.0,0.0,0.0,0.0,0.0,0.0,0.0,0.0,0.0,0.0,0.0,2.1208,2.2267,0.0,0.0,0.0,0.0,0.0,0.0,2.3595,2.3595,2.3595,0.0,0.0,0.0,0.0,0.0,0.0,0.0,0.0,0.0,2.8716,2.9309,2.9943,3.0622,3.088,2.9115,2.9016,2.8791,2.4914,2.4614,2.4866,2.178,2.0775,2.0338,1.9364,1.8659,1.785,1.6905,1.6381,1.5716,1.4457,1.4144,1.3937,1.3437,1.2566,1.181,1.16,1.0455,0.9065,0.7665,0.4837,0.1037,-0.4048,-0.9363,-1.3022,-1.3899,-1.5922,-1.7871,-1.9506,-2.0902,-2.2593,-2.4716,-2.4856,-2.487,-2.482,-2.482,-2.4845,-2.4895,-2.4406,-2.4406,-2.4883,-2.3643,-2.3244,-2.358,-2.2808,-2.2491,-2.2526,-2.2491,-2.2501,-2.2608,-2.1509,-2.0578,-1.9705,-1.9043,-1.8527,-1.8174,-1.8555,-1.8691,-1.8691,0.0,0.0,0.0,0.0,0.0,0.0,2.0682,2.0895,2.1101,2.1321,2.1148,2.0847,2.0333,1.9929,1.969,1.969,0.0,0.0,0.0,0.0,0.0,0.0,0.0,0.0,0.0,0.0,2.1372,2.1554,2.2325,0.0,0.0,0.0,0.0,0.0,0.0,2.3595,2.3595,2.3595,0.0,0.0,0.0,0.0,0.0,0.0,0.0,0.0,0.0,0.0,2.8951,2.9589,3.024,3.0687,3.0012,3.0516,3.0626,2.6932,2.6553,2.699,2.5073,2.4345,2.3873,2.2794,2.086,1.8906,1.8074,1.697,1.5861,1.5348,1.5075,1.4878,1.4692,1.3796,1.2936,1.2425,1.1369,1.0172,0.8928,0.5101,0.0758,-0.3622,-0.9128,-1.3334,-1.5353,-1.6986,-1.8564,-2.0014,-2.0182,-2.0981,-2.2702,-2.2811,-2.2975,-2.3301,-2.3314,-2.364,-2.4318,-2.3766,-2.3493,-2.3502,-2.2639,-2.2039,-2.1774,-2.137,-2.1407,-2.1666,-2.1374,-2.1341,-2.1385,-2.049,-1.9573,-1.8647,-1.8331,-1.8154,-1.8037,-1.8193,-1.8262,-1.8262,0.0,0.0,0.0,0.0,0.0,2.0449,2.0926,2.1272,2.1602,2.1903,2.1782,2.1423,2.0733,2.0362,2.014,2.0025,1.9794,0.0,0.0,0.0,0.0,0.0,0.0,0.0,0.0,0.0,2.182,2.1994,2.2832,2.3146,0.0,0.0,2.3789,2.3595,0.0,0.0,0.0,0.0,0.0,0.0,0.0,0.0,0.0,0.0,0.0,0.0,0.0,0.0,0.0,0.0,0.0,3.0348,3.0252,3.0903,0.0,2.8626,2.8553,2.9067,2.8094,2.7569,2.6927,2.5676,2.3252,2.0869,1.9544,1.8018,1.6694,1.613,1.5956,1.5863,1.5561,1.4721,1.3859,1.3327,1.1979,1.0623,0.9746,0.6199,0.1946,-0.2691,-0.9032,-1.3565,-1.506,-1.6806,-1.8334,-1.947,-1.9091,-1.9264,-2.0292,-2.036,-2.0846,-2.2046,-2.1828,-2.2142,-2.2935,-2.2285,-2.191,-2.171,-2.1024,-2.0483,-1.9984,-1.9586,-1.9803,-2.0344,-1.9727,-1.9369,-1.9209,-1.8996,-1.8147,-1.693,-1.7188,-1.7427,-1.7742,-1.7494,-1.7581,-1.786,0.0,0.0,0.0,0.0,0.0,0.0,2.0926,2.1272,2.1807,2.2574,2.2344,2.1938,2.1526,2.1369,2.1136,2.073,2.0079,0.0,0.0,0.0,0.0,0.0,0.0,0.0,0.0,0.0,2.2709,2.2709,2.3969,2.4253,2.361,2.4298,2.4253,2.3595,0.0,0.0,0.0,0.0,0.0,0.0,0.0,0.0,0.0,0.0,0.0,0.0,0.0,0.0,0.0,0.0,0.0,0.0,0.0,0.0,0.0,0.0,3.0839,3.1687,3.0245,2.988,2.9507,2.7593,2.6273,2.4807,2.1975,2.0571,1.9341,1.7387,1.7349,1.7309,1.6236,1.5319,1.4682,1.4215,1.2078,1.0143,0.9422,0.8736,0.5907,-0.0764,-0.9089,-1.3641,-1.2043,-1.4384,-1.6443,-1.7567,-1.7644,-1.7644,-1.7644,-1.7644,-1.8829,-2.14,-2.0791,-2.0447,-2.0447,-1.9737,-1.9324,-1.9324,-1.8484,-1.8238,-1.8596,-1.7296,-1.7207,-1.7969,-1.7119,-1.6317,-1.5637,-1.6667,-1.6027,-1.4401,-1.5203,-1.6166,-1.7012,-1.6327,-1.6675,-1.7491,0.0,0.0,0.0,0.0,0.0,0.0,0.0,2.1456,2.179,2.26,2.2344,2.1938,2.1526,2.1385,2.1136,2.0745,2.1211,0.0,0.0,0.0,0.0,0.0,0.0,0.0,0.0,0.0,2.2877,2.331,2.3729,2.3819,2.3595,2.3819,2.3804,2.3595,2.3157,2.3187,0.0,0.0,0.0,0.0,0.0,0.0,2.7565,0.0,0.0,0.0,0.0,0.0,0.0,0.0,0.0,0.0,0.0,0.0,0.0,2.9356,3.0466,3.1433,3.0753,3.0911,3.0863,2.9244,2.6869,2.4645,2.3458,2.1403,1.9555,1.8765,1.8674,1.834,1.6715,1.5509,1.4144,1.2391,1.1032,0.9704,0.8387,0.6477,0.3485,-0.1246,-0.8842,-1.3299,-1.2456,-1.3001,-1.3952,-1.5129,-1.5264,-1.5496,-1.593,-1.5807,-1.6881,-1.9399,-1.9194,-1.9252,-1.9655,-1.9431,-1.9015,-1.8412,-1.7564,-1.6908,-1.6465,-1.5474,-1.5233,-1.5476,-1.5178,-1.5516,-1.6196,-1.4866,-1.4616,-1.4994,-1.4123,-1.4453,-1.5435,-1.5018,-1.5955,-1.7321,0.0,0.0,0.0,0.0,0.0,0.0,0.0,2.1318,2.1732,2.2398,2.2371,2.2281,2.2145,2.2018,2.1885,2.1728,2.2594,0.0,0.0,0.0,0.0,0.0,0.0,0.0,0.0,2.2697,2.3206,2.3595,2.3595,2.3475,2.3251,2.3259,2.3113,2.2892,2.2474,2.2529,0.0,0.0,0.0,0.0,0.0,0.0,2.6406,0.0,0.0,0.0,0.0,0.0,0.0,0.0,0.0,0.0,0.0,0.0,0.0,0.0,2.9592,3.0567,3.1241,3.1717,3.1697,3.0221,2.7924,2.5707,2.4256,2.2165,2.0305,1.9222,1.9183,1.8655,1.6575,1.501,1.3478,1.1602,1.0024,0.8752,0.7901,0.4689,0.1398,-0.1137,-0.4538,-0.7355,-0.8984,-0.9728,-1.0762,-1.2599,-1.2726,-1.2991,-1.3691,-1.3539,-1.4129,-1.5622,-1.6192,-1.6687,-1.6973,-1.6873,-1.6505,-1.5928,-1.559,-1.514,-1.4757,-1.4109,-1.4011,-1.4277,-1.3973,-1.4315,0.0,-1.3339,-1.3036,-1.3461,-1.2462,-1.2778,-1.3774,-1.3966,-1.5049,-1.6417,0.0,0.0,0.0,0.0,0.0,0.0,0.0,2.0974,2.1573,2.1995,2.2388,2.2726,2.3054,2.3079,2.3122,2.3297,0.0,0.0,0.0,0.0,0.0,0.0,0.0,0.0,2.2675,2.3293,2.3595,2.3595,2.355,2.3236,2.2682,2.26,2.2277,2.17,2.1639,2.1622,0.0,0.0,0.0,0.0,0.0,0.0,0.0,0.0,0.0,0.0,0.0,0.0,0.0,0.0,0.0,0.0,0.0,0.0,0.0,0.0,0.0,0.0,0.0,3.2154,3.1842,3.0563,2.9222,2.7486,2.4596,2.2883,0.0,1.9079,1.8965,1.8379,1.5827,1.3998,1.2513,1.1505,0.9118,0.7415,0.7724,0.3812,0.0954,0.1301,0.3295,0.2727,-0.2377,-0.4486,-0.672,-0.9531,-0.9871,-1.0205,-1.085,-1.0902,-1.0842,-1.0722,-1.202,-1.2806,-1.3032,-1.2697,-1.2564,-1.2572,-1.2779,-1.3066,-1.3408,-1.3037,-1.3288,-1.3957,-1.3161,-1.2601,-1.227,-1.2097,-1.1505,-1.0611,-1.0615,-1.1287,-1.2429,-1.3203,-1.4091,-1.5107,0.0,0.0,0.0,0.0,0.0,0.0,0.0,0.0,0.0,0.0,2.177,2.1866,2.1893,2.2899,2.3275,0.0,0.0,0.0,0.0,0.0,0.0,0.0,0.0,0.0,2.244,2.3179,2.3595,2.3595,2.3131,2.2858,2.2667,2.1781,2.1441,2.1671,2.0808,2.0601,0.0,0.0,0.0,0.0,0.0,0.0,0.0,0.0,0.0,0.0,2.3136,2.3261,0.0,0.0,0.0,0.0,0.0,0.0,0.0,0.0,2.7414,2.88,3.0231,0.0,3.096,3.0757,2.8818,2.6609,0.0,0.0,0.0,0.0,0.0,1.7307,1.4364,1.2492,1.0843,0.9211,0.7797,0.6576,0.5456,0.7659,1.1785,1.8157,1.2854,0.7191,0.3528,0.2191,0.0419,-0.249,-0.5789,-0.7374,-0.6721,-0.8732,-0.9325,-0.8051,-0.8117,-0.9228,-1.1471,-1.1995,-1.2232,-1.2232,-1.1848,-1.1767,-1.1813,-1.1344,-1.1145,-1.107,-1.0865,-1.0885,-1.0995,-1.0678,-1.0581,-1.0618,-1.0591,-1.1766,-1.3309,-1.2546,-1.3725,-1.5693,0.0,0.0,0.0,0.0,0.0,0.0,0.0,0.0,0.0,0.0,0.0,2.1451,2.1759,2.2535,0.0,0.0,0.0,0.0,0.0,0.0,0.0,0.0,0.0,2.3896,2.2817,2.3322,2.3709,2.3964,2.3351,2.2879,2.2519,2.1362,2.0654,2.0372,1.9781,1.97,0.0,0.0,0.0,0.0,2.1857,0.0,0.0,0.0,0.0,0.0,2.1106,2.1313,0.0,2.0658,2.0285,2.0243,0.0,0.0,0.0,0.0,2.6092,2.7713,2.8977,2.9948,3.0488,2.9959,2.8371,2.6623,2.5571,0.0,0.0,0.0,0.0,1.6447,1.2598,1.0274,0.8272,0.6397,0.4154,0.139,-0.2242,0.1935,0.7182,1.215,1.1021,1.064,1.2675,0.9482,0.6384,0.4148,-0.0297,-0.3095,-0.3637,-0.5595,-0.6668,-0.6556,-0.6604,-0.7389,-0.8951,-0.9841,-1.0293,-1.0306,-1.0625,-1.0656,-1.0559,-1.0451,-1.0201,-0.9938,-0.9938,-1.0024,-1.0175,-1.0003,-1.0087,-1.0349,-1.0255,-1.1305,-1.2822,-1.2367,-1.345,-1.5187,0.0,0.0,0.0,0.0,0.0,0.0,0.0,0.0,0.0,0.0,0.0,0.0,0.0,0.0,0.0,0.0,0.0,0.0,0.0,0.0,0.0,0.0,0.0,2.3585,2.3382,2.3527,2.3819,2.4234,2.3553,2.2971,2.2381,2.1104,1.9902,1.8808,1.8922,1.8983,0.0,0.0,0.0,2.066,2.066,0.0,0.0,0.0,0.0,0.0,0.0,0.0,0.0,1.8004,1.795,1.837,1.83,0.0,0.0,0.0,0.0,0.0,2.7994,2.946,3.03,2.897,2.7992,2.693,2.547,0.0,0.0,0.0,0.0,1.5245,1.0668,0.7701,0.514,0.2761,-0.158,-0.6559,-1.2006,-0.7459,-0.351,-0.3321,0.3435,1.0965,1.8302,1.3393,0.9655,0.9542,0.5323,0.1647,-0.0905,-0.1887,-0.3249,-0.5171,-0.5597,-0.5977,-0.6263,-0.7404,-0.796,-0.7991,-0.9118,-0.9551,-0.9298,-0.9603,-0.9577,-0.9324,-0.944,-0.9469,-0.9462,-0.9552,-0.9805,-1.0045,-0.9811,-1.0566,-1.1888,-1.2316,-1.3237,-1.438,0.0,0.0,0.0,0.0,0.0,0.0,0.0,0.0,0.0,0.0,0.0,0.0,0.0,0.0,0.0,0.0,0.0,0.0,0.0,0.0,0.0,2.5022,2.4984,2.435,2.3187,2.3448,2.3606,2.3561,2.2832,2.2446,2.2366,2.0578,1.9237,1.8349,1.8805,1.8983,1.9058,1.9687,1.9952,1.9952,1.9952,0.0,0.0,0.0,0.0,0.0,0.0,0.0,0.0,1.7688,1.7246,1.681,1.6856,0.0,0.0,0.0,0.0,0.0,2.7859,2.9384,3.0475,2.9263,2.7964,2.6555,2.4933,2.2363,1.9908,0.0,1.5756,1.2789,0.8543,0.5189,0.1568,-0.3188,-1.0354,-1.6272,-1.9067,-1.2166,-0.7867,-1.0582,-0.4022,0.2067,0.549,0.4162,0.5542,1.1414,0.8751,0.557,0.2644,0.2168,0.0668,-0.2101,-0.2218,-0.3111,-0.4791,-0.6192,-0.6856,-0.6869,-0.7351,-0.7537,-0.7507,-0.7758,-0.7752,-0.754,-0.817,-0.844,-0.8477,-0.9069,-0.9472,-0.9784,-0.9693,-1.0609,-1.1897,-1.1996,-1.3146,-1.4707,0.0,0.0,0.0,0.0,0.0,0.0,0.0,0.0,0.0,0.0,0.0,0.0,0.0,0.0,0.0,0.0,0.0,0.0,0.0,0.0,0.0,2.4752,2.443,2.4056,2.3658,2.381,2.3863,2.3823,2.3499,2.3141,2.2769,2.0304,1.8818,1.8218,1.8439,1.8744,1.907,1.9572,1.9798,1.9798,0.0,0.0,0.0,0.0,0.0,0.0,0.0,0.0,0.0,0.0,1.612,1.6425,1.5985,0.0,0.0,0.0,0.0,0.0,2.6849,2.8454,2.9665,2.9142,2.8792,2.794,2.5456,2.3054,2.0502,1.764,1.5647,1.2133,0.4402,-0.0743,-0.5847,-1.2289,-1.6107,-1.9145,-2.1749,-1.8721,-1.6318,-1.6524,-1.1356,-0.6704,-0.4009,-0.12,0.1985,0.5671,0.458,0.4429,0.6192,0.465,0.3137,0.1781,-0.0613,-0.2454,-0.3677,-0.4893,-0.5651,-0.6004,-0.6759,-0.7018,-0.6829,-0.7167,-0.7348,-0.7455,-0.779,-0.8178,-0.8565,-0.8843,-0.9178,-0.9426,-0.9272,-1.0331,-1.2026,-1.2806,-1.3623,-1.4443,0.0,0.0,0.0,0.0,0.0,0.0,0.0,0.0,0.0,0.0,0.0,0.0,0.0,0.0,0.0,0.0,0.0,0.0,0.0,0.0,2.3633,2.3773,2.3406,2.3406,2.3845,2.3719,2.3786,2.3992,2.4002,2.3672,2.2954,2.0314,1.8878,1.8511,1.8272,1.8336,1.8784,1.915,1.9359,1.9527,0.0,0.0,0.0,0.0,0.0,0.0,0.0,0.0,0.0,0.0,0.0,0.0,0.0,0.0,0.0,2.0048,2.1638,2.3086,2.4963,2.6841,2.8273,2.8324,2.879,2.8644,2.6327,2.2497,1.8296,1.4391,1.221,0.8288,-0.0614,-0.714,-1.3283,-1.9949,-2.0692,-2.1368,-2.4245,-2.4744,-2.4156,-2.2373,-1.9397,-1.6461,-1.3861,-0.8447,-0.4458,-0.2919,-0.1925,0.0526,0.5066,0.3503,0.28,0.3429,-0.0111,-0.2558,-0.3666,-0.4673,-0.5222,-0.5257,-0.6093,-0.644,-0.6351,-0.6602,-0.697,-0.7461,-0.7616,-0.8049,-0.854,-0.8752,-0.8938,-0.9118,-0.9071,-1.0176,-1.2039,-1.3439,-1.396,-1.3969,0.0,0.0,0.0,0.0,0.0,0.0,0.0,0.0,0.0,0.0,0.0,0.0,0.0,0.0,0.0,0.0,0.0,0.0,0.0,0.0,2.136,2.1859,2.2313,2.2753,2.3163,2.2676,2.2697,2.3274,2.3397,2.3116,2.2427,2.0718,1.9771,1.9438,1.8384,1.7922,1.7977,1.7798,1.8167,1.8768,1.8768,0.0,0.0,0.0,0.0,0.0,0.0,0.0,0.0,0.0,0.0,0.0,0.0,0.0,1.7509,1.6903,1.81,2.0019,2.191,2.4305,2.6321,2.6371,2.673,2.7082,2.7284,1.8491,0.9213,0.5617,0.1407,-0.2731,-0.6262,-1.2503,-1.8547,-2.3004,-2.4626,-2.6202,-2.8539,-2.8606,-2.8557,-2.8852,-2.8957,-2.824,-2.6289,-2.1615,-1.6985,-1.2886,-0.8783,-0.6086,-0.5145,-0.4039,-0.2247,0.0224,-0.0825,-0.2843,-0.5642,-0.6668,-0.6287,-0.457,-0.4643,-0.4986,-0.5601,-0.5626,-0.6,-0.6717,-0.7408,-0.7723,-0.783,-0.8533,-0.8818,-0.8897,-0.9482,-1.0577,-1.1959,-1.3106,-1.3557,-1.3521,0.0,0.0,0.0,0.0,0.0,0.0,0.0,0.0,0.0,0.0,0.0,0.0,0.0,0.0,0.0,0.0,0.0,0.0,0.0,2.0154,2.0508,2.0682,2.0806,2.1201,2.1898,2.2537,2.2973,2.3206,2.347,2.3344,2.284,2.1215,2.0385,2.0297,1.8624,1.778,1.7607,1.7093,1.6704,1.6594,1.7092,1.7445,0.0,0.0,0.0,0.0,0.0,0.0,0.0,0.0,0.4749,0.3214,0.333,0.3584,0.4303,0.6509,0.7747,0.8863,1.1182,1.2922,1.4104,1.4419,1.4139,0.0,0.0,0.9158,0.212,-0.5793,-0.867,-1.2221,-2.0383,-2.3717,-2.5917,-2.8113,-2.9022,-2.9864,-3.1062,-3.0451,-3.005,-3.0373,-3.0095,-2.9405,-2.8212,-2.4976,-2.273,-2.2153,-1.8689,-1.592,-1.4482,-1.2666,-1.0871,-0.9179,-0.7772,-0.8017,-0.9993,-0.9895,-0.9123,-0.7681,-0.6382,-0.5932,-0.6199,-0.6199,-0.6583,-0.73,-0.7574,-0.7949,-0.8434,-0.9123,-0.9415,-0.9535,-1.0643,-1.1362,-1.1895,-1.2793,-1.3135,-1.3057,0.0,0.0,0.0,0.0,0.0,0.0,0.0,0.0,0.0,0.0,0.0,0.0,0.0,0.0,0.0,0.0,0.0,0.0,1.8246,1.8688,1.8901,1.8888,1.8986,1.9548,2.0579,2.1856,2.2801,2.3298,2.362,2.3549,2.3068,2.1649,2.0722,2.0239,1.8164,1.6954,1.6339,1.5244,1.4758,1.4684,1.4855,1.5138,0.0,0.0,0.0,0.0,0.0,0.0,0.0,0.0,-0.4086,-0.6373,-0.6984,-0.9344,-1.0471,-0.32,-0.2377,-0.2891,0.1324,0.3065,0.3746,0.3971,0.0,0.0,-0.099,-0.2175,-0.5762,-1.6651,-1.8054,-1.9876,-2.8185,-2.9609,-2.9892,-3.12,-3.1738,-3.2072,-3.2255,-3.1329,-3.0584,-3.0442,-2.9877,-2.9081,-2.7975,-2.6182,-2.5347,-2.6054,-2.3754,-2.1661,-2.0153,-1.8359,-1.682,-1.5459,-1.374,-1.3006,-1.3347,-1.2993,-1.2341,-1.1459,-0.9953,-0.8765,-0.789,-0.8094,-0.8449,-0.8949,-0.8974,-0.9131,-0.9472,-0.9926,-1.036,-1.0832,-1.153,-1.2064,-1.2483,-1.2803,-1.2881,-1.2774,0.0,0.0,0.0,0.0,0.0,0.0,0.0,0.0,0.0,0.0,0.0,0.0,0.0,0.0,0.0,0.0,0.0,0.0,1.6464,1.6407,1.6383,1.6323,1.6872,1.7836,1.9271,2.0511,2.1907,2.3515,2.3835,2.3619,2.2876,2.1941,2.0691,1.9223,1.6892,1.5164,1.3888,1.2043,1.2115,1.3307,1.2134,1.2382,1.3414,0.0,0.0,0.0,0.0,0.0,0.0,0.0,-1.1269,-1.505,-1.4416,-2.0508,-2.5162,-1.1084,-1.1176,-1.4222,-0.654,-0.3712,-0.3037,-0.336,0.0,0.0,-1.6688,-1.5121,-1.492,-2.6289,-2.6737,-2.5597,-2.7325,-2.8296,-2.9494,-3.1495,-3.2387,-3.2622,-3.2072,-3.1259,-3.0381,-2.9513,-2.9227,-2.8422,-2.6669,-2.613,-2.5226,-2.3619,-2.2691,-2.1992,-2.1536,-2.0442,-1.8962,-1.7112,-1.762,-1.7085,-1.5283,-1.5775,-1.588,-1.5519,-1.5134,-1.3468,-1.074,-1.1334,-1.1675,-1.1734,-1.1724,-1.1373,-1.0838,-1.0825,-1.1618,-1.2744,-1.2068,-1.2633,-1.3734,-1.3135,-1.2881,-1.2793,0.0,0.0,0.0,0.0,0.0,0.0,0.0,0.0,0.0,0.0,0.0,0.0,0.0,0.0,0.0,0.0,0.0,0.0,1.7059,1.6641,1.6235,1.5835,1.6355,1.7146,1.8196,2.0931,2.2962,2.421,2.3945,2.3567,2.3068,2.1626,2.0272,1.9003,1.6531,1.4414,1.2663,1.1842,1.0037,0.7678,0.7319,0.7872,0.9014,0.0,0.0,0.0,0.0,0.0,0.0,0.0,0.0,0.0,-2.1103,-2.4245,-2.6483,-2.0345,-1.9649,-2.0003,-1.6123,-1.4663,-1.4265,-1.4275,-1.3535,-1.421,-1.9411,-1.9725,-2.1088,-2.9008,-3.0399,-3.0272,-3.0518,-3.1656,-3.259,-3.2813,-3.3097,-3.3089,-3.2493,-3.1673,-3.0795,-2.9931,-2.9386,-2.8373,-2.6544,-2.5662,-2.4629,-2.3246,-2.2873,-2.2654,-2.2566,-2.2178,-2.1439,-2.0289,-2.0314,-1.9995,-1.9218,-1.8951,-1.8683,-1.8425,-1.7577,-1.5927,-1.3648,-1.315,-1.2966,-1.2942,-1.257,-1.2308,-1.2134,-1.1837,-1.2433,-1.3389,-1.2464,-1.2551,-1.3135,-1.2949,-1.2881,-1.2725,0.0,0.0,0.0,0.0,0.0,0.0,0.0,0.0,0.0,0.0,0.0,0.0,0.0,0.0,0.0,0.0,0.0,0.0,0.0,1.6718,1.6164,1.5596,1.5696,1.6464,1.7974,2.0922,2.2855,2.3753,2.3808,2.3463,2.2737,2.158,2.0087,1.8341,1.5919,1.37,1.1721,1.0565,0.7419,0.3135,0.2669,0.2852,0.3753,0.0,0.0,0.0,0.0,0.0,0.0,0.0,0.0,0.0,-2.1373,-2.458,-2.7612,-2.5831,-2.5434,-2.5113,-2.315,-2.2025,-2.1143,-2.0019,-1.8796,-1.8342,-1.992,-2.1852,-2.4709,-2.9881,-3.0875,-3.1235,-3.259,-3.3181,-3.344,-3.3414,-3.3005,-3.2489,-3.1953,-3.1208,-3.0468,-2.984,-2.9159,-2.8071,-2.6366,-2.5179,-2.393,-2.2544,-2.2371,-2.2462,-2.2759,-2.2868,-2.2797,-2.2478,-2.2474,-2.2296,-2.1932,-2.1729,-2.1492,-2.1197,-2.0093,-1.8818,-1.7391,-1.5834,-1.5175,-1.5119,-1.3982,-1.3349,-1.3051,-1.2632,-1.2999,-1.3804,-1.2888,-1.2857,-1.3213,-1.2656,-1.2471,-1.2295,0.0,0.0,0.0,0.0,0.0,0.0,0.0,0.0,0.0,0.0,0.0,0.0,0.0,0.0,0.0,0.0,0.0,0.0,0.0,0.0,1.6268,1.5592,1.5073,1.5862,1.8161,2.0338,2.1711,2.2226,2.3316,2.3239,2.2023,2.1486,1.9884,1.7312,1.5214,1.3067,1.082,0.822,0.4378,-0.0139,-0.1536,-0.2162,-0.1871,0.1604,0.0,0.0,0.0,0.0,0.0,0.0,0.0,0.0,-1.6325,-2.1853,-2.7316,-2.7357,-2.8149,-2.8676,-2.7159,-2.571,-2.3998,-2.1506,-2.0415,-1.9735,-1.8587,-2.152,-2.548,-2.8779,-2.8766,-2.9404,-3.3415,-3.3268,-3.2781,-3.3477,-3.2377,-3.1262,-3.0833,-3.0131,-2.9603,-2.9351,-2.8628,-2.7585,-2.6105,-2.4677,-2.3227,-2.1728,-2.147,-2.1649,-2.2237,-2.2651,-2.3117,-2.3666,-2.3869,-2.3863,-2.3583,-2.3935,-2.3953,-2.3609,-2.2376,-2.168,-2.1336,-1.8811,-1.7698,-1.766,-1.5718,-1.4547,-1.3923,-1.3328,-1.3484,-1.3966,-1.3209,-1.3286,-1.3641,-1.2236,-1.1729,-1.1563,0.0,0.0,0.0,0.0,0.0,0.0,0.0,0.0,0.0,0.0,0.0,0.0,0.0,0.0,0.0,0.0,0.0,0.0,0.0,0.0,1.7206,1.6237,1.566,1.5954,1.7316,1.8869,1.9568,1.9394,2.1655,2.2346,2.1586,2.0099,1.8092,1.5763,1.4607,1.2343,0.9201,0.4836,0.1842,-0.0269,-0.3387,-0.5174,-0.5787,-0.4048,-0.4353,0.0,0.0,0.0,0.0,0.0,0.0,0.0,-0.7519,-1.5236,-1.8697,-2.1098,-2.3773,-2.5571,-2.3876,-2.2954,-2.2027,-2.0181,-1.8144,-1.65,-1.6373,-1.7476,-1.9676,-2.3609,-2.5617,-2.78,-3.1593,-3.2698,-3.3132,-3.3396,-3.2436,-3.1362,-3.0593,-2.9551,-2.8836,-2.878,-2.8153,-2.7146,-2.5683,-2.4208,-2.2864,-2.1691,-2.0952,-2.0785,-2.1278,-2.1626,-2.2091,-2.2677,-2.2994,-2.347,-2.4132,-2.4216,-2.4346,-2.4503,-2.2721,-2.2095,-2.2383,-1.947,-1.7838,-1.7292,-1.6592,-1.6181,-1.5928,-1.4411,-1.405,-1.4312,-1.2625,-1.2486,-1.3007,-1.1552,-1.1204,-1.1211,0.0,0.0,0.0,0.0,0.0,0.0,0.0,0.0,0.0,0.0,0.0,0.0,0.0,0.0,0.0,0.0,0.0,0.0,0.0,0.0,1.7301,1.5652,1.5552,1.5525,1.5413,1.6367,1.6818,1.6797,1.8069,1.9257,2.0339,1.9718,1.7847,1.5045,1.5001,1.1677,0.585,0.3088,0.006,-0.3136,-0.5003,-0.631,-0.7098,-0.707,-0.7959,-0.885,-0.625,0.0,0.0,0.0,0.0,0.0,0.0,0.0,-2.0131,-2.0551,-2.277,-2.4594,-2.2288,-2.1115,-1.9856,-1.7101,-1.5597,-1.4832,-1.4906,-1.5233,-1.6365,-1.9511,-2.2665,-2.5979,-2.9576,-3.126,-3.2063,-3.2064,-3.1206,-3.0249,-2.9338,-2.8662,-2.8265,-2.8265,-2.7467,-2.6479,-2.5358,-2.3692,-2.231,-2.1388,-2.0503,-2.0183,-2.0639,-2.0807,-2.1247,-2.2007,-2.2324,-2.2847,-2.3529,-2.3824,-2.3964,-2.3936,-2.3001,-2.228,-2.1685,-1.9847,-1.843,-1.7349,-1.6851,-1.6268,-1.5524,-1.415,-1.3565,-1.3435,-1.1926,-1.157,-1.1796,-1.014,-0.9646,-0.9636,0.0,0.0,0.0,0.0,0.0,0.0,0.0,0.0,0.0,0.0,0.0,0.0,0.0,0.0,0.0,0.0,0.0,0.0,0.0,0.0,0.0,1.4755,1.4982,1.4482,1.3145,1.3903,1.4331,1.4327,1.4473,1.5772,1.816,1.8784,1.734,1.4125,1.4419,0.9978,0.2257,0.1045,-0.2284,-0.6716,-0.6777,-0.7203,-0.7887,-0.8705,-0.9799,-1.0506,-0.7351,-0.6339,-0.6096,-0.2857,0.0,0.0,0.0,0.0,-2.1347,-2.0896,-2.2201,-2.331,-2.0998,-1.9246,-1.7072,-1.3034,-1.2717,-1.3452,-1.3652,-1.3542,-1.4054,-1.6332,-1.9979,-2.3853,-2.7482,-2.9353,-3.0312,-3.0249,-2.9572,-2.8705,-2.7672,-2.7372,-2.7337,-2.7554,-2.6536,-2.5631,-2.5236,-2.3383,-2.1907,-2.1247,-2.0339,-1.9909,-2.0193,-2.0193,-2.055,-2.1352,-2.1635,-2.2051,-2.2574,-2.3093,-2.3271,-2.3101,-2.3075,-2.2127,-2.0382,-1.972,-1.8726,-1.7487,-1.6826,-1.5784,-1.4505,-1.3511,-1.2857,-1.2329,-1.1112,-1.0628,-1.0388,-0.8452,-0.7881,-0.7936,0.0,0.0,0.0,0.0,0.0,0.0,0.0,0.0,0.0,0.0,0.0,0.0,0.0,0.0,0.0,0.0,0.0,0.0,0.0,0.0,0.0,1.4575,1.3663,1.2569,1.1301,1.3002,1.3294,1.2069,1.3594,1.4331,1.4277,1.4828,1.3761,1.1353,0.9164,0.5283,0.0055,-0.4413,-0.7182,-0.8664,-0.9105,-0.984,-1.0509,-0.9932,-1.0963,-1.244,-1.0424,-1.0411,-1.0991,-0.919,-0.3485,0.0,0.0,0.0,-0.8293,-1.6284,-1.8445,-1.8246,-1.8154,-1.5854,-1.256,-0.8805,-0.9363,-1.0991,-1.1964,-1.1424,-1.1578,-1.4509,-1.7806,-2.137,-2.5216,-2.7275,-2.8474,-2.8723,-2.8378,-2.7618,-2.628,-2.5266,-2.5097,-2.6145,-2.5046,-2.4544,-2.5452,-2.3779,-2.2426,-2.1987,-2.0879,-2.0089,-1.9782,-1.9782,-2.0,-2.0483,-2.0534,-2.1069,-2.218,-2.2248,-2.2685,-2.3411,-2.2527,-2.1191,-1.9509,-1.8457,-1.7679,-1.7142,-1.6512,-1.5752,-1.4852,-1.3618,-1.2783,-1.2142,-1.0261,-0.9479,-0.9181,-0.7141,-0.6981,-0.7575,0.0,0.0,0.0,0.0,0.0,0.0,0.0,0.0,0.0,0.0,0.0,0.0,0.0,0.0,0.0,0.0,0.0,0.0,0.0,0.0,0.0,1.2773,1.2723,1.213,1.0881,1.1059,0.9414,0.5869,0.6151,0.6272,0.617,0.5076,0.5349,0.6675,0.4854,0.1269,-0.367,-0.8797,-1.0729,-1.0461,-1.1364,-1.2185,-1.2864,-1.2706,-1.3513,-1.4449,-1.2854,-1.3383,-1.4653,-1.3348,-1.0731,-0.8362,-1.0123,0.0,0.0,0.0,-1.9316,-1.939,-1.3765,-1.1235,-0.9914,-0.8657,-0.8928,-0.9861,-1.1398,-1.0924,-1.06,-1.1945,-1.4509,-1.7703,-2.193,-2.4273,-2.5668,-2.587,-2.5759,-2.5346,-2.4523,-2.4273,-2.4286,-2.4451,-2.407,-2.4017,-2.4579,-2.3089,-2.2082,-2.2083,-2.096,-2.0124,-1.9711,-1.969,-1.9874,-2.028,-2.0314,-2.0782,-2.1816,-2.1816,-2.2186,-2.2864,-2.157,-2.0769,-2.0337,-1.8372,-1.7223,-1.6702,-1.5611,-1.4318,-1.291,-1.1814,-1.0988,-1.0185,-0.7529,-0.6275,-0.5727,-0.3867,-0.352,-0.3776,0.0,0.0,0.0,0.0,0.0,0.0,0.0,0.0,0.0,0.0,0.0,0.0,0.0,0.0,0.0,0.0,0.0,0.0,0.0,0.0,0.0,0.9059,0.9629,0.9508,0.8408,0.8094,0.5664,0.1104,-0.0398,-0.1536,-0.2373,-0.5648,-0.56,-0.2682,-0.2249,-0.4306,-0.8476,-1.2581,-1.3711,-1.2791,-1.3779,-1.4498,-1.5007,-1.5401,-1.59,-1.6277,-1.5235,-1.578,-1.6826,-1.6467,-1.6937,-1.7492,-1.707,-1.7473,0.0,0.0,0.0,-1.9486,-0.9955,-0.7455,-0.7864,-0.8848,-0.8622,-0.8626,-1.0312,-0.9732,-0.8889,-0.9119,-1.0847,-1.3404,-1.6952,-2.0455,-2.285,-2.2994,-2.3105,-2.3126,-2.2843,-2.295,-2.3107,-2.3314,-2.3191,-2.3428,-2.4159,-2.2704,-2.1827,-2.2155,-2.1002,-2.0124,-1.9711,-1.969,-1.9839,-2.0158,-2.0246,-2.0667,-2.143,-2.1658,-2.1876,-2.2027,-2.0951,-2.0555,-2.0644,-1.6747,-1.5597,-1.6604,-1.5078,-1.2881,-1.0278,-0.9074,-0.8008,-0.6861,-0.4383,-0.295,-0.2141,-0.0737,-0.0174,-0.0044,0.0,0.0,0.0,0.0,0.0,0.0,0.0,0.0,0.0,0.0,0.0,0.0,0.0,1.7652,1.7072,1.6446,1.6441,1.3434,0.6381,0.5023,0.3935,0.2622,0.2626,0.0,0.183,0.3646,0.3263,0.0348,-0.2755,-0.6209,-1.0048,-1.5797,-1.885,-1.9329,-1.4441,-1.2933,-1.4259,-1.5712,-1.6227,-1.6095,-1.661,-1.6857,-1.6916,-1.7278,-1.7487,-1.7571,-1.7986,-1.7598,-1.7125,-1.8725,-1.8539,-1.7664,-1.8144,-1.894,-1.9927,0.0,0.0,0.0,-0.7607,-0.567,-0.6239,-0.7903,-0.7235,-0.6504,-0.7787,-0.6492,-0.5234,-0.6193,-0.7223,-0.8323,-0.949,-1.558,-2.0488,-2.0582,-2.0989,-2.1345,-2.1392,-2.0554,-2.0799,-2.3227,-2.2334,-2.2485,-2.4904,-2.3234,-2.2099,-2.2362,-2.1093,-2.0124,-1.9711,-1.969,-1.9726,-1.9711,-2.0089,-2.055,-2.1039,-2.1857,-2.1867,-2.1068,-2.1061,-2.0547,-1.9336,-1.1934,-1.1719,-1.7075,-1.547,-1.206,-0.7447,-0.5505,-0.3593,-0.1821,-0.1213,-0.0297,0.0728,0.1338,0.1825,0.2136,0.0,0.0,0.0,0.0,0.0,0.0,0.0,0.0,0.0,0.0,0.0,0.0,0.0,1.6925,1.6175,1.2178,0.7605,0.3857,0.1425,-0.068,-0.2041,-0.2464,-0.3474,-0.3537,-0.2422,-0.1712,-0.1813,-0.2776,-0.4545,-0.6769,-0.945,-1.4777,-1.8711,-2.1288,-2.0537,-1.9722,-1.9022,-2.0009,-1.9932,-1.9278,-2.0244,-2.0669,-2.0628,-2.0384,-2.029,-2.0278,-2.004,-1.9691,-1.9528,-2.0723,-2.0779,-2.0367,-2.0104,-1.9912,-2.0215,-2.2292,-1.9608,-1.4856,-0.9956,-0.7577,-0.6545,-0.6744,-0.5362,-0.4134,-0.4709,-0.3228,-0.1782,-0.2161,-0.3536,-0.4985,-0.6053,-1.1585,-1.6075,-1.6327,-1.7582,-1.8609,-1.8836,-1.9171,-1.9747,-2.0686,-2.0753,-2.144,-2.3295,-2.2592,-2.2279,-2.2987,-2.174,-2.0783,-2.037,-1.9929,-1.969,-1.969,-1.9839,-2.0261,-2.0991,-2.1774,-2.1979,-2.1643,-2.1314,-2.095,-2.0297,-1.1794,-0.907,-1.0852,-0.629,-0.3926,-0.3063,-0.0269,0.118,0.1773,0.3023,0.4343,0.5481,0.5166,0.5124,0.5266,0.0,0.0,0.0,0.0,0.0,0.0,0.0,0.0,0.0,0.0,0.0,0.0,0.0,0.0,1.1603,0.6229,0.0352,-0.3554,-0.4807,-0.6249,-0.7057,-0.6992,-0.784,-0.7554,-0.593,-0.5416,-0.5239,-0.5382,-0.6179,-0.7415,-0.9211,-1.3172,-1.7157,-2.0986,-2.3281,-2.402,-2.356,-2.3799,-2.332,-2.2396,-2.2817,-2.3146,-2.3294,-2.2674,-2.2461,-2.2385,-2.1957,-2.2115,-2.2605,-2.2784,-2.3337,-2.3649,-2.1982,-2.0718,-2.0191,-2.2143,-1.9276,-1.4896,-1.2253,-0.9292,-0.6786,-0.6052,-0.4372,-0.2779,-0.2211,-0.045,0.0995,0.1005,-0.0617,-0.2616,-0.4318,-0.8777,-1.2473,-1.3352,-1.5255,-1.6814,-1.7269,-1.811,-1.8918,-1.942,-1.9901,-2.0598,-2.1622,-2.1571,-2.1537,-2.177,-2.1163,-2.0489,-1.9775,-1.9556,-1.9426,-1.9413,-1.9573,-2.0004,-2.0716,-2.1516,-2.1834,-2.1631,-2.1324,-1.9914,-1.7288,-0.8903,-0.4365,-0.2745,0.4243,0.5371,0.2535,0.5462,0.6423,0.6146,0.6929,0.7888,0.8716,0.8149,0.7883,0.7743,0.0,0.0,0.0,0.0,0.0,0.0,0.0,0.0,0.0,1.8579,0.0,0.0,0.0,0.0,0.0,-0.1511,-0.4501,-0.7931,-1.2163,-1.1605,-1.1104,-1.1097,-1.0343,-0.9555,-0.8777,-0.7318,-0.6768,-0.71,-0.7665,-0.8612,-0.9941,-1.2025,-1.5235,-1.9465,-2.2841,-2.5593,-2.7641,-2.6879,-2.6118,-2.5383,-2.4131,-2.4061,-2.465,-2.4035,-2.3803,-2.3844,-2.3794,-2.4891,-2.6103,-2.4987,-2.5997,-2.7098,-2.3625,-2.1307,-1.9913,-2.0673,-1.818,-1.5013,0.0,0.0,0.0,-0.6175,-0.4368,-0.2378,-0.0435,0.1546,0.2989,0.3083,0.1465,-0.0922,-0.402,-0.7198,-0.9976,-1.187,-1.4252,-1.6105,-1.6873,-1.7433,-1.8269,-1.9622,-1.9773,-1.9871,-2.0118,-2.0182,-1.981,-1.8758,-1.9377,-1.9219,-1.7887,-1.8488,-1.8834,-1.8806,-1.9302,-1.9768,-2.0206,-2.1117,-2.135,-2.0928,-2.0847,-1.7165,-1.017,-0.2787,0.2569,0.6494,1.4995,1.5029,0.9264,1.1566,1.2048,1.1302,1.0391,1.0093,1.0213,1.0194,0.9867,0.9494,0.0,0.0,0.0,0.0,0.0,0.0,2.0428,1.9405,1.8054,0.0,0.0,0.0,0.6041,-0.0049,-0.5854,-1.088,-1.0423,-1.0935,-1.3507,-1.3268,-1.2958,-1.2855,-1.2381,-1.1413,-0.9913,-0.8854,-0.8029,-0.739,-0.8049,-0.8794,-0.9521,-1.1701,-1.3422,-1.4916,-1.9037,-2.2494,-2.5304,-2.6908,-2.7564,-2.7435,-2.6896,-2.7137,-2.7748,-2.6749,-2.6714,-2.7155,-2.6639,-2.7106,-2.7951,-2.8002,-2.7797,-2.6759,-2.2675,-2.0671,-1.9634,-1.8785,-1.716,-1.5661,-1.5784,0.0,0.0,0.0,0.0,0.0,-0.007,0.2709,0.4624,0.3235,0.1837,-0.0309,-0.3932,-0.7192,-1.0006,-1.1928,-1.3988,-1.5496,-1.5687,-1.6111,-1.6756,-1.7671,-1.6971,-1.7032,-1.8815,-1.8688,-1.8833,-1.9664,-1.9759,-1.9364,-1.8563,-1.8397,-1.8509,-1.8864,-1.9029,-1.9462,-2.0206,-2.0751,-2.1262,-2.1697,-1.6349,-1.2747,-1.0443,0.1573,0.77,0.9234,1.5735,1.7618,1.6059,1.5412,1.4245,1.2905,1.3017,1.2877,1.2497,1.1965,1.1869,1.1906,0.0,0.0,0.0,0.0,0.0,1.698,1.8571,1.6621,1.4469,0.0,0.0,0.0,-0.1955,-0.7185,-1.176,-1.5318,-1.3952,-1.3481,-1.482,-1.4824,-1.4725,-1.4628,-1.376,-1.2768,-1.1722,-1.0349,-0.9285,-0.8591,-0.901,-0.9362,-0.9633,-1.1091,-1.2304,-1.3377,-1.6898,-2.007,-2.2936,-2.5782,-2.7708,-2.8838,-2.8589,-2.9036,-2.9815,-2.942,-2.9485,-2.9691,-2.9594,-2.9974,-3.0528,-3.0394,-2.9088,-2.7045,-2.4188,-2.2036,-2.0399,-1.9247,-1.7721,-1.6458,-1.6646,-1.4873,-1.2965,-1.2936,0.0,0.0,-0.2665,0.0875,0.3581,0.3323,0.1513,-0.1381,-0.5661,-0.8268,-1.0554,-1.3065,-1.4442,-1.5317,-1.5743,-1.6354,-1.6966,-1.7378,-1.671,-1.6741,-1.794,-1.7888,-1.7966,-1.8453,-1.8976,-1.9065,-1.8583,-1.7833,-1.7666,-1.8224,-1.8458,-1.8925,-1.9647,-2.0289,-2.0158,-1.9227,-1.3148,-0.8318,-0.4393,0.5911,1.1685,1.3761,1.7374,1.8688,1.8163,1.7248,1.5972,1.4653,1.4798,1.4463,1.3864,1.3419,1.3183,1.2954,0.0,0.0,1.1336,1.2016,1.2745,1.3814,1.5625,1.2393,0.9196,0.0,0.2311,-0.4359,-1.184,-1.4128,-1.5583,-1.6711,-1.6012,-1.5742,-1.6159,-1.6239,-1.6238,-1.6242,-1.4523,-1.358,-1.3583,-1.1619,-1.0428,-1.0167,-1.0167,-1.0107,-1.0055,-1.0545,-1.1772,-1.3614,-1.5825,-1.819,-2.0668,-2.3978,-2.6928,-2.9377,-2.9383,-3.0127,-3.1288,-3.1841,-3.1914,-3.1826,-3.2536,-3.3178,-3.3465,-3.2142,-3.0085,-2.7894,-2.6901,-2.4525,-2.1954,-2.0989,-1.9207,-1.7584,-1.7438,-1.7425,-1.7265,-1.641,-1.4033,0.0,-0.7563,-0.3243,0.0406,0.1917,0.0073,-0.3381,-0.83,-0.9889,-1.1452,-1.4521,-1.5331,-1.5731,-1.6484,-1.7417,-1.8027,-1.8014,-1.7797,-1.7614,-1.733,-1.7471,-1.7144,-1.6223,-1.7556,-1.8362,-1.8289,-1.7213,-1.6837,-1.7394,-1.7907,-1.8444,-1.8954,-1.9445,-1.8014,-1.4612,-0.9747,-0.3069,0.5176,1.063,1.5228,1.8896,1.9378,1.8754,1.7467,1.7669,1.7166,1.6219,1.5874,1.5316,1.4676,1.4596,1.403,1.323,0.0,0.0,0.9708,1.029,1.0955,1.1046,0.9899,0.5399,0.166,0.0429,-0.6296,-1.2477,-1.6492,-1.8093,-1.899,-1.9249,-1.8596,-1.8145,-1.8139,-1.7431,-1.7015,-1.7012,-1.4816,-1.3584,-1.3605,-1.1621,-1.0598,-1.0474,-1.0474,-1.051,-1.0519,-1.0965,-1.1895,-1.3212,-1.4797,-1.6888,-1.9297,-2.2594,-2.5564,-2.8192,-2.944,-3.1312,-3.3351,-3.3017,-3.3529,-3.4516,-3.5113,-3.5501,-3.5454,-3.317,-3.1387,-2.9716,-2.7357,-2.5487,-2.3683,-2.1366,-2.0118,-1.9677,-2.0707,-1.9505,-1.8578,-2.1172,-1.8045,0.0,-1.4083,-0.8783,-0.4556,-0.6918,-0.5256,-0.468,-0.8946,-1.0759,-1.2084,-1.3643,-1.589,-1.717,-1.6332,-1.726,-1.7975,-1.7973,-1.6677,-1.6,-1.6691,-1.6195,-1.6008,-1.6539,-1.6531,-1.7211,-1.8773,-1.7744,-1.7394,-1.7947,-1.8458,-1.8977,-1.9477,-1.7093,-1.3961,-1.014,-0.0821,0.6283,1.1443,1.7413,2.053,2.1169,1.9963,1.9081,1.8454,1.7695,1.7126,1.667,1.6602,1.6309,1.5881,1.521,1.4876,1.4554,0.0,0.6445,0.6667,0.6963,0.6396,0.4879,0.1748,-0.1276,-0.4919,-0.9522,-1.4167,-1.8066,-2.0697,-2.0869,-2.0924,-2.1222,-2.0407,-1.9799,-1.9592,-1.8907,-1.8291,-1.7926,-1.5918,-1.4552,-1.3936,-1.2527,-1.1437,-1.0775,-1.1212,-1.1397,-1.139,-1.1926,-1.2453,-1.3084,-1.4571,-1.6446,-1.871,-2.2062,-2.5194,-2.817,-3.0152,-3.1821,-3.3296,-3.4595,-3.5224,-3.5548,-3.6739,-3.6859,-3.6069,-3.3826,-3.2192,-3.0921,-2.9522,-2.729,-2.4859,-2.3202,-2.1883,-2.1152,-2.2028,-2.1724,-2.1844,-2.4574,-2.2382,0.0,0.0,-1.5507,-1.0827,-1.2961,-1.1324,-1.0499,-1.3674,-1.4216,-1.4965,-1.7431,-1.7179,-1.6331,-1.5366,-1.6805,-1.8007,-1.8007,-1.7135,-1.6793,-1.7285,-1.6731,-1.6699,-1.7438,-1.6297,-1.6316,-1.8034,-1.6794,-1.6506,-1.7612,-1.7892,-1.7765,-1.7211,-1.3457,-0.8923,-0.3641,0.592,1.211,1.5271,2.0747,2.2549,2.1291,2.0371,1.9435,1.8526,1.7649,1.6728,1.5912,1.6374,1.6188,1.5652,1.5255,1.4693,1.3971,0.0779,0.1994,0.2961,0.2909,0.1419,-0.1165,-0.5219,-0.7453,-1.1282,-1.8588,-2.0911,-2.2565,-2.439,-2.3692,-2.3191,-2.3466,-2.24,-2.1668,-2.1498,-2.0728,-1.9934,-1.9165,-1.7331,-1.5848,-1.4789,-1.3693,-1.2676,-1.1611,-1.2211,-1.244,-1.25,-1.3116,-1.3434,-1.352,-1.5474,-1.7332,-1.9283,-2.2644,-2.5832,-2.8811,-3.115,-3.234,-3.2985,-3.5874,-3.6565,-3.6179,-3.7814,-3.7556,-3.6191,-3.4264,-3.2954,-3.2045,-3.1514,-2.9073,-2.6163,-2.5146,-2.3731,-2.2503,-2.2653,-2.3539,-2.4858,-2.6717,-2.6002,-2.5152,0.0,0.0,0.0,-1.7416,-1.6524,-1.6344,-1.8312,-1.8124,-1.8631,-2.1631,-1.938,-1.5581,-1.0754,-1.431,-1.7243,-1.6807,-1.6924,-1.7098,-1.7179,-1.6986,-1.6998,-1.7466,-1.598,-1.5573,-1.6669,-1.5468,-1.5334,-1.6532,-1.5807,-1.4691,-1.3231,-0.8201,-0.2498,0.3863,1.1533,1.6448,1.8935,2.2748,2.3343,2.1345,2.0585,1.9478,1.8205,1.7203,1.5961,1.4777,1.5577,1.533,1.453,1.4304,1.348,1.2411,-0.0492,-0.0685,-0.1193,-0.1345,-0.1801,-0.324,-0.6648,-1.2468,-1.8099,-2.2778,-2.5419,-2.6952,-2.7173,-2.7727,-2.78,-2.7076,-2.5834,-2.5073,-2.512,-2.305,-2.1564,-2.0994,-1.8612,-1.6986,-1.6324,-1.491,-1.4038,-1.3933,-1.3593,-1.3437,-1.3457,-1.4545,-1.505,-1.5177,-1.8429,-2.0611,-2.1969,-2.5464,-2.8018,-2.993,-3.2259,-3.352,-3.4167,-3.5926,-3.6885,-3.7387,-3.8127,-3.7649,-3.6434,-3.4785,-3.4122,-3.3573,-3.1257,-2.9861,-2.8572,-2.6189,-2.4978,-2.425,-2.3585,-2.4042,-2.5168,-2.6911,-2.7284,-2.7267,-2.7498,0.0,-2.2552,-2.0565,0.0,-1.7594,-1.8739,0.0,0.0,-2.2082,-2.3214,-1.7245,0.2448,-0.6603,-1.4513,-1.2586,-1.3081,-1.3703,-1.408,-1.4506,-1.4749,-1.4616,-1.4781,-1.4877,-1.473,-1.4942,-1.4829,-1.4286,-1.0825,-0.8483,-0.7441,-0.0057,0.6494,1.2108,1.6291,2.0496,2.4566,2.4699,2.4299,2.3397,2.0524,1.8692,1.7639,1.5695,1.456,1.4025,1.4259,1.36,1.2394,1.1409,1.0712,1.021,-0.3434,-0.3651,-0.4102,-0.4866,-0.6179,-0.837,-1.223,-1.7442,-2.1812,-2.4139,-2.64,-2.7827,-2.8048,-2.8682,-2.8969,-2.8637,-2.8183,-2.7735,-2.7333,-2.5422,-2.3983,-2.3359,-2.1019,-1.9246,-1.8334,-1.7044,-1.6008,-1.5266,-1.4804,-1.4577,-1.4606,-1.5566,-1.6364,-1.719,-2.0139,-2.2429,-2.4174,-2.7301,-2.942,-3.0843,-3.2914,-3.3953,-3.4438,-3.6102,-3.7111,-3.7561,-3.7106,-3.665,-3.6069,-3.4898,-3.3848,-3.2883,-3.2127,-3.0553,-2.8521,-2.6665,-2.5699,-2.4991,-2.382,-2.456,-2.5848,-2.6684,-2.7104,-2.732,-2.7153,-2.5579,-2.3812,-2.2588,0.0,0.0,0.0,0.0,0.0,0.0,-2.2543,-1.7396,-0.4796,-0.7038,-0.8082,-0.3008,-0.7285,-1.114,-1.2298,-1.2586,-1.311,-1.4118,-1.286,-1.2075,-1.2083,-1.0317,-0.8795,-0.7735,-0.4036,-0.1202,0.0516,0.7338,1.2544,1.611,2.029,2.206,2.1538,1.943,1.6867,1.3885,0.9958,0.7957,0.7409,0.647,0.5699,0.5168,0.5631,0.6769,0.8413,1.0305,0.9459,0.7461,-0.5494,0.0,-0.5763,-0.692,-0.8935,-1.2051,-1.698,-2.1363,-2.4472,-2.554,-2.7363,-2.8784,-2.9281,-3.0119,-3.073,-3.1008,-3.0796,-3.0495,-2.9945,-2.8026,-2.629,-2.5062,-2.3268,-2.1552,-1.996,-1.9191,-1.8302,-1.7232,-1.655,-1.6186,-1.6232,-1.6724,-1.7712,-1.9214,-2.1899,-2.4524,-2.7119,-2.9726,-3.152,-3.2769,-3.4164,-3.4719,-3.4889,-3.6348,-3.7102,-3.7271,-3.6578,-3.6102,-3.5679,-3.4983,-3.3847,-3.271,-3.2684,-3.1071,-2.8928,-2.7627,-2.6826,-2.6077,-2.4825,-2.5487,-2.6569,-2.6691,-2.6869,-2.6905,-2.6446,-2.5278,-2.4145,-2.3601,-2.3156,0.0,0.0,0.0,-2.2998,-2.3611,0.0,-1.7,-1.0123,-0.8418,-0.5213,0.2004,-0.1975,-0.609,-0.7993,-0.795,-0.8512,-1.0242,-0.8533,-0.7416,-0.7351,-0.434,-0.2017,-0.0547,0.3755,0.6869,0.8584,1.4458,1.7039,1.6371,1.9926,1.8975,1.3998,1.1453,0.8532,0.5252,0.129,-0.0419,-0.0528,-0.1833,-0.2534,-0.2791,-0.3232,-0.1737,0.1241,0.6027,0.6175,0.4209,-0.5793,-0.5559,-0.5783,-0.7053,-0.9047,-1.2655,-1.9383,-2.3698,-2.6603,-2.7643,-2.9423,-3.0872,-3.1595,-3.3028,-3.4329,-3.5301,-3.4219,-3.347,-3.3505,-3.088,-2.8125,-2.5592,-2.4966,-2.3554,-2.0996,-2.119,-2.0984,-2.0429,-1.9116,-1.8511,-1.849,-1.8338,-1.9247,-2.1148,-2.4076,-2.752,-3.1243,-3.3283,-3.4992,-3.6334,-3.6477,-3.6239,-3.5923,-3.6627,-3.676,-3.6613,-3.7219,-3.6602,-3.5448,-3.4954,-3.4575,-3.4042,-3.2354,-3.1401,-3.0712,-2.9566,-2.876,-2.81,-2.7218,-2.7048,-2.7105,-2.7255,-2.6901,-2.6352,-2.5624,-2.498,-2.4319,-2.3386,-2.2736,-2.2079,-2.1325,-2.1505,-2.1674,-2.144,-2.0436,0.0,0.0,-0.8839,-0.8946,-0.1697,0.2016,0.3057,0.0756,0.0779,0.0558,-0.0382,-0.0762,-0.0499,0.0415,0.2372,0.4382,0.6231,1.2501,1.5963,1.6159,2.1377,1.9983,1.2113,1.3095,0.9568,0.2128,0.1506,0.1351,0.1432,-0.1313,-0.2209,-0.208,-0.6372,-0.7563,-0.705,-1.019,-1.1314,-1.0368,-0.3704,-0.0678,0.0172,-0.5932,-0.6354,-0.6999,-0.7967,-1.0769,-1.4876,-2.0882,-2.4389,-2.6741,-2.8049,-3.0279,-3.2059,-3.2804,-3.4678,-3.5791,-3.5608,-3.4818,-3.4128,-3.363,-3.1304,-2.9337,-2.7848,-2.6774,-2.5512,-2.4085,-2.3227,-2.2683,-2.2507,-2.0876,-2.0037,-2.0068,-1.9412,-2.0557,-2.3216,-2.5582,-2.8593,-3.2065,-3.4557,-3.6007,-3.665,-3.6794,-3.6482,-3.5916,-3.6054,-3.6054,-3.596,-3.5933,-3.5514,-3.4918,-3.4519,-3.4028,-3.3435,-3.2555,-3.1629,-3.0701,-2.9606,-2.8876,-2.8329,-2.7941,-2.7889,-2.7834,-2.7297,-2.7094,-2.6716,-2.5526,-2.4863,-2.4374,-2.4069,-2.3209,-2.2367,-2.1642,-2.0934,-2.0198,-1.9233,-1.7877,-1.5178,0.0,-0.2619,0.3237,0.5947,0.849,0.9366,0.7688,0.6766,0.6116,0.5672,0.465,0.4898,0.6861,0.9238,1.1861,1.4642,1.6073,1.591,1.4135,1.3886,1.0748,0.4762,0.5238,0.2538,-0.2908,-0.533,-0.7682,-1.003,-1.3474,-1.4422,-1.3581,-1.4467,-1.4409,-1.3729,-1.3211,-1.2551,-1.1328,-0.6049,-0.3987,-0.3512,-0.6611,-0.7352,-0.8278,-0.9195,-1.3423,-1.8139,-2.2399,-2.5781,-2.8205,-2.9387,-3.1396,-3.3081,-3.4086,-3.5521,-3.6257,-3.601,-3.539,-3.4675,-3.395,-3.1872,-3.0064,-2.8761,-2.7699,-2.6609,-2.5322,-2.4804,-2.4268,-2.3709,-2.2415,-2.1403,-2.0707,-1.9853,-2.0899,-2.3688,-2.5853,-2.8895,-3.2566,-3.5553,-3.6795,-3.6761,-3.6597,-3.6255,-3.5827,-3.5709,-3.5652,-3.5638,-3.5345,-3.4807,-3.4202,-3.3977,-3.3309,-3.2451,-3.1862,-3.1201,-3.0463,-2.947,-2.9105,-2.8895,-2.8333,-2.8428,-2.8443,-2.7411,-2.6864,-2.6398,-2.5496,-2.4657,-2.4142,-2.4122,-2.3525,-2.2761,-2.1882,-2.0924,-1.9727,-1.8138,-1.6271,-1.3975,0.0,-0.1676,0.5914,0.839,1.4039,1.6232,1.2497,1.2769,1.2074,0.94,1.0133,1.1122,1.2076,1.502,1.7041,1.7823,1.6237,1.3854,1.0784,0.7988,0.3356,-0.3013,-0.2478,-0.5432,-1.1416,-1.3275,-1.5457,-1.7892,-2.0262,-2.065,-1.9626,-1.8829,-1.8231,-1.7593,-1.5006,-1.3544,-1.2341,-0.8484,-0.6723,-0.5802,-0.7931,-0.8912,-1.0034,-1.1101,-1.6911,-2.2126,-2.3979,-2.7838,-3.0829,-3.155,-3.2739,-3.4055,-3.5497,-3.5674,-3.5967,-3.6573,-3.5974,-3.5267,-3.4632,-3.2466,-3.034,-2.8324,-2.7937,-2.6843,-2.4921,-2.5925,-2.5686,-2.4117,-2.377,-2.2596,-2.07,-1.9677,-2.0461,-2.2882,-2.5056,-2.8459,-3.2821,-3.6139,-3.7276,-3.6801,-3.6032,-3.5682,-3.5655,-3.5582,-3.556,-3.5538,-3.5464,-3.456,-3.3393,-3.3355,-3.2481,-3.1265,-3.044,-3.0198,-3.0061,-2.9228,-2.9499,-2.9774,-2.8467,-2.8589,-2.8813,-2.747,-2.6255,-2.5373,-2.5404,-2.4511,-2.3655,-2.3684,-2.3699,-2.3305,-2.1988,-2.1329,-2.0301,-1.827,-1.5708,-1.2937,-1.0021,-0.5799,-0.082,0.5059,1.7475,2.2624,1.5145,1.7943,1.7466,1.0761,1.4998,1.7179,1.5512,1.8879,1.9278,1.5745,1.3021,0.9841,0.6209,0.3646,-0.213,-1.1004,-1.0053,-1.419,-2.2652,-2.1806,-2.1519,-2.1665,-2.1361,-2.0764,-1.997,-1.9435,-1.9053,-1.8556,-1.5879,-1.4463,-1.3573,-1.0978,-0.8731,-0.6606,-0.9846,-1.2792,-1.6014,-1.8567,-2.1259,-2.3816,-2.6232,-2.9222,-3.1431,-3.2217,-3.3879,-3.5407,-3.6345,-3.6902,-3.6848,-3.5962,-3.5276,-3.4368,-3.3154,-3.2049,-3.0611,-2.8844,-2.873,-2.7853,-2.6105,-2.6382,-2.6319,-2.5837,-2.4937,-2.3855,-2.2733,-2.1237,-2.1645,-2.3727,-2.4502,-2.7274,-3.1619,-3.443,-3.5885,-3.6278,-3.6089,-3.5605,-3.5033,-3.5009,-3.4961,-3.4901,-3.4635,-3.4044,-3.3318,-3.2713,-3.2011,-3.1265,-3.044,-3.0198,-3.0061,-2.9228,-2.911,-2.9138,-2.8395,-2.7972,-2.7602,-2.6875,-2.5736,-2.4927,-2.5455,-2.4927,-2.4492,-2.4986,-2.5091,-2.4543,-2.279,-2.2013,-2.0954,-1.8867,-1.631,-1.4213,-1.3032,-0.6995,-0.2501,-0.2008,0.6562,1.2991,1.4418,1.0578,0.7681,0.6921,0.8322,0.9532,1.0258,1.1484,1.1705,1.0827,0.4817,-0.0164,-0.3827,-0.8358,-1.3204,-1.8319,-1.8022,-1.9482,-2.2398,-2.2065,-2.1733,-2.1401,-2.1632,-2.1153,-2.017,-1.9487,-1.9113,-1.8723,-1.6276,-1.3605,-1.0861,-0.8596,-0.7037,-0.575,-1.1752,-1.5194,-1.8964,-2.1935,-2.4082,-2.6065,-2.8026,-3.0358,-3.223,-3.2982,-3.4538,-3.5713,-3.619,-3.6307,-3.6042,-3.5187,-3.4285,-3.3214,-3.1987,-3.0993,-2.9827,-2.8492,-2.8117,-2.7484,-2.6521,-2.6703,-2.6578,-2.6088,-2.5103,-2.3875,-2.2515,-2.0597,-2.0712,-2.2643,-2.3385,-2.6128,-3.0358,-3.3487,-3.5286,-3.5989,-3.5628,-3.5191,0.0,-3.4755,-3.4491,-3.4074,-3.3527,-3.3048,-3.2575,-3.1768,-3.099,-3.0216,-2.9423,-2.9189,-2.9057,-2.822,-2.8213,-2.8342,-2.7772,-2.7461,-2.7169,-2.6626,-2.5529,-2.4686,-2.5091,-2.4851,-2.4686,-2.5106,-2.5181,-2.4661,-2.3014,-2.2187,-2.0997,-1.8578,-1.7192,-1.6043,-1.4772,-1.1654,-0.9675,-0.9976,-0.6402,-0.3132,-0.1143,0.1626,0.2078,-0.0815,0.1627,0.3291,0.341,0.4082,0.3966,0.2836,-0.3733,-0.8777,-1.198,-1.612,-1.9089,-2.1007,-2.0599,-2.107,-2.2181,-2.1608,-2.1368,-2.1487,-2.1821,-2.1528,-2.0859,-2.0585,-2.0193,-1.946,-1.617,-1.3078,-1.0173,-0.8005,-0.6171,-0.4384,-1.4052,-1.7064,-2.0477,-2.3136,-2.5924,-2.822,-2.9522,-3.1362,-3.2967,-3.3707,-3.4796,-3.5491,-3.5428,-3.4864,-3.4397,-3.4092,-3.2972,-3.1898,-3.0855,-2.961,-2.847,-2.7512,-2.6822,-2.6375,-2.6251,-2.6716,-2.6515,-2.5598,-2.4609,-2.3206,-2.1452,-1.9232,-1.9037,-2.0748,-2.2251,-2.529,-2.9523,-3.2835,-3.4749,-3.5387,-3.4689,-3.4427,-3.4427,-3.4427,-3.3883,-3.3023,-3.2233,-3.1794,-3.1523,-3.0721,-2.9761,-2.8791,-2.812,-2.7869,-2.7678,-2.6939,-2.7165,-2.7515,-2.692,-2.6958,-2.6997,-2.6383,-2.5392,-2.4627,-2.4717,-2.4701,-2.4701,-2.4701,-2.4776,-2.444,-2.2972,-2.2028,-2.0614,-1.8051,-1.8238,-1.7932,-1.5961,-1.7359,-1.8248,-1.7205,-1.8148,0.0,-2.0964,-0.8387,-0.3268,-1.0858,-0.6028,-0.34,-0.4956,-0.4016,-0.4463,-0.6754,-1.2013,-1.5906,-1.8176,-2.0517,-2.143,-2.0894,-2.0208,-2.0651,-2.1995,-2.09,-2.0904,-2.1771,-2.2003,-2.1952,-2.1743,-2.2023,-2.1426,-1.9967,-1.5988,-1.2938,-1.0447,-0.7912,-0.5122,-0.2284,-1.7874,-2.0651,-2.3341,-2.5427,-2.7233,-2.9026,-3.0922,-3.2254,-3.3304,-3.4207,-3.5007,-3.5277,-3.4768,-3.4598,-3.3758,-3.1922,-3.1555,-3.0668,-2.8848,-2.8497,-2.7728,-2.6463,-2.6261,-2.5832,-2.5109,-2.5209,-2.5372,-2.5598,-2.3814,-2.2647,-2.2049,-1.9985,-1.9441,-2.0158,-2.2003,-2.5618,-3.0411,-3.1494,-3.2403,-3.3073,-3.2947,-3.2911,-3.2911,-3.2911,-3.2391,-3.166,-3.083,-3.0648,-3.0702,-2.9878,-2.9126,-2.842,-2.8037,-2.7648,-2.7303,-2.6841,-2.6793,-2.6792,-2.6303,-2.6204,-2.6135,-2.5686,-2.5018,-2.4591,-2.5273,-2.5435,-2.5435,-2.5435,-2.5869,-2.5501,-2.314,-2.1316,-1.9761,-1.8691,-1.9003,-1.9101,-1.8201,-1.8826,-1.9345,-1.9295,-1.9472,-2.0118,-2.1461,-1.8623,-1.7937,-2.0862,-1.765,-1.5641,-1.5865,-1.5508,-1.5337,-1.5417,-1.8245,-2.0091,-2.0826,-2.1368,-2.1215,-2.0416,-2.0665,-2.107,-2.1655,-2.1129,-2.1316,-2.2146,-2.238,-2.2467,-2.2411,-2.2361,-2.0627,-1.7873,-1.6743,-1.3773,-0.9559,-0.5315,-0.1292,0.1884,-2.0915,-2.2418,-2.3864,-2.5287,-2.6841,-2.8379,-2.9895,-3.0983,-3.1901,-3.2499,-3.3163,-3.3192,-3.2291,-3.2176,-3.1725,-3.0651,-3.0015,-2.901,-2.7651,-2.7263,-2.6609,-2.5497,-2.5421,-2.5243,-2.482,-2.482,-2.4946,-2.5197,-2.3031,-2.2182,-2.2402,-1.9637,-1.9284,-2.1134,-2.4169,-2.7057,-2.9832,-3.1751,-3.2535,-3.2519,-3.2908,-3.2838,-3.2464,-3.2075,-3.1469,-3.069,-2.991,-2.942,-2.9125,-2.8737,-2.8402,-2.8075,-2.7707,-2.7457,-2.721,-2.6808,-2.642,-2.61,-2.5849,-2.5294,-2.4849,-2.5034,-2.4469,-2.402,-2.478,-2.5002,-2.5106,-2.5106,-2.536,-2.4867,-2.2622,-2.0854,-1.9683,-1.9307,-1.9785,-1.9956,-1.934,-1.9797,-2.0052,-1.9822,-1.9806,-2.0435,-2.2005,-2.2867,-2.383,-2.5196,-2.4255,-2.3223,-2.2329,-2.2719,-2.2207,-2.0507,-2.2241,-2.3195,-2.3206,-2.242,-2.1736,-2.1237,-2.0637,-2.0665,-2.1275,-2.1086,-2.1373,-2.2046,-2.2904,-2.3027,-2.2595,-2.2455,-2.1142,-1.9017,-1.716,-1.1953,-0.5131,-0.2136,0.1245,0.4408,-2.2829,-2.3317,-2.3752,-2.4639,-2.5994,-2.7198,-2.7971,-2.9011,-3.0079,-3.0911,-3.1363,-3.1182,-2.9961,-2.9836,-2.9661,-2.9219,-2.8326,-2.7366,-2.6332,-2.59,-2.5301,-2.4469,-2.4456,-2.4456,-2.4456,-2.4456,-2.4519,-2.4644,-2.2551,-2.1885,-2.2638,-1.9544,-1.9636,-2.2539,-2.5756,-2.7766,-2.8929,-3.1416,-3.2246,-3.1915,-3.2453,-3.2334,-3.1725,-3.1148,-3.0427,-2.9632,-2.9048,-2.8328,-2.7631,-2.7473,-2.7584,-2.7725,-2.7378,-2.712,-2.6891,-2.6554,-2.5947,-2.5372,-2.5372,-2.4627,-2.4001,-2.4428,-2.4088,-2.3717,-2.4104,-2.4475,-2.4702,-2.4433,-2.4163,-2.3516,-2.1983,-2.0657,-1.9798,-1.9798,-2.0288,-2.0464,-1.9874,-2.03,-2.0542,-2.0037,-2.0002,-2.056,-2.2088,-2.4285,-2.5934,-2.6611,-2.7873,-2.807,-2.6787,-2.74,-2.6663,-2.4261,-2.5067,-2.544,-2.5318,-2.3423,-2.235,-2.2082,-2.0566,-2.0261,-2.1118,-2.1023,-2.1346,-2.2054,-2.3211,-2.3461,-2.3056,-2.2848,-2.1206,-1.8496,-1.5028,-0.8306,-0.0292,0.2239,0.5231,0.8189,-2.2526,-2.3347,-2.4116,-2.4672,-2.5327,-2.579,-2.6029,-2.6909,-2.8612,-3.1335,-3.132,-3.0609,-2.9309,-2.9156,-2.8428,-2.6649,-2.6339,-2.569,-2.4355,-2.4217,-2.3903,-2.3314,-2.3228,-2.3228,-2.3228,-2.3228,-2.3552,-2.4067,-2.2599,-2.2123,-2.265,-2.1039,-2.1536,-2.3729,-2.4355,-2.6015,-2.8383,-2.8672,-2.9135,-2.9685,-2.975,-2.9688,-2.9513,-2.943,-2.8833,-2.8014,-2.7929,-2.7454,-2.6706,-2.6043,-2.6502,-2.7348,-2.7303,-2.6588,-2.5742,-2.571,-2.5169,-2.4594,-2.4594,-2.4526,-2.4303,-2.3918,-2.4244,-2.4434,-2.3593,-2.439,-2.5017,-2.3906,-2.2783,-2.1921,-2.171,-2.0657,-1.9798,-1.9798,-2.0288,-2.0464,-1.9874,-2.03,-2.0706,-2.0643,-2.0646,-2.0731,-2.0943,-2.4168,-2.6036,-2.5593,-2.8541,-3.0272,-3.0072,-2.9564,-2.8827,-2.7738,-2.6964,-2.6686,-2.6982,-2.4099,-2.2476,-2.2082,-2.0845,-2.0699,-2.1521,-2.115,-2.1573,-2.2625,-2.2965,-2.3657,-2.4568,-2.4116,-1.9273,-1.1684,-0.7437,-0.2594,0.2725,0.8938,1.3351,1.6122,-2.1614,-2.2119,-2.2698,-2.3587,-2.4336,-2.4762,-2.4843,-2.5217,-2.5948,-2.7152,-2.8177,-2.8284,-2.7105,-2.6987,-2.6557,-2.5422,-2.5049,-2.458,-2.4017,-2.3665,-2.3376,-2.3078,-2.3078,-2.3078,-2.3078,-2.3078,-2.3251,-2.3477,-2.2431,-2.2246,-2.2886,-2.1319,-2.1566,-2.3332,-2.5252,-2.6651,-2.7748,-2.95,-2.9902,-2.9438,-2.99,-2.952,-2.867,-2.8248,-2.759,-2.6852,-2.6409,-2.628,-2.6145,-2.5362,-2.5646,-2.6187,-2.5774,-2.5309,-2.4932,-2.4932,-2.4219,-2.3491,-2.3755,-2.3328,-2.2879,-2.3391,-2.3325,-2.313,-2.3169,-2.3188,-2.3182,-2.3053,-2.2347,-2.1697,-2.1697,-2.0657,-1.9798,-1.9798,-1.9987,-2.0075,-1.9836,-1.9999,-2.0037,-1.9723,-1.9685,-1.9687,-1.9696,-2.3102,-2.5552,-2.6082,-2.9337,-3.1153,-3.0763,-2.9989,-2.9712,-2.9995,-2.7872,-2.6978,-2.7542,-2.4813,-2.3112,-2.2443,-2.1278,-2.1039,-2.1582,-2.143,-2.191,-2.2884,-2.2853,-2.322,-2.3439,-1.7653,-1.1265,-0.4053,0.698,1.1412,1.193,1.4773,1.6504,1.7384,-2.0517,-2.0944,-2.1359,-2.2149,-2.2978,-2.3485,-2.334,-2.3624,-2.3775,-2.3477,-2.494,-2.5697,-2.4969,-2.4937,-2.4731,-2.4317,-2.3816,-2.3502,-2.3502,-2.2962,-2.2648,-2.2648,-2.2648,-2.2648,-2.2648,-2.2752,-2.2827,-2.2827,-2.2433,-2.2567,-2.3078,-2.1865,-2.2003,-2.331,-2.5476,-2.6648,-2.7151,-2.9177,-2.9451,-2.8636,-2.9155,-2.8616,-2.7449,-2.6931,-2.642,-2.591,-2.5397,-2.5319,-2.5337,-2.4566,-2.4396,-2.4561,-2.4498,-2.4262,-2.3967,-2.3967,-2.3136,-2.2276,-2.2587,-2.2145,-2.1804,-2.2668,-2.2551,-2.2309,-2.2687,-2.2325,-2.2058,-2.2574,-2.2045,-2.1503,-2.1669,-2.0657,-1.9798,-1.9798,-1.9798,-1.9798,-1.9798,-1.9673,-1.9497,-1.9284,-1.9258,-1.9196,-1.8995,-2.2253,-2.4784,-2.587,-2.8969,-3.0765,-3.0677,-3.0089,-3.0007,-3.0552,-2.8044,-2.7063,-2.7772,-2.4963,-2.3323,-2.2886,-2.1616,-2.1275,-2.1794,-2.1907,-2.23,-2.2915,-2.2863,-2.3163,-2.2877,-1.3062,-0.6046,0.0015,1.5141,2.0088,1.8745,1.8629,1.8579,1.8499,-1.9212,-2.0027,-2.0598,-2.0286,-2.1182,-2.1748,-2.1318,-2.2066,-2.2405,-2.1565,-2.2308,-2.305,-2.3282,-2.3356,-2.328,-2.313,-2.2648,-2.2334,-2.2334,-2.182,-2.1506,-2.1506,-2.1506,-2.1506,-2.1506,-2.2046,-2.2322,-2.2322,-2.2802,-2.3078,-2.3078,-2.3065,-2.3471,-2.4292,-2.4292,-2.5133,-2.651,-2.6525,-2.6579,-2.6651,-2.6651,-2.6168,-2.5431,-2.5431,-2.5356,-2.5221,-2.5221,-2.4772,-2.412,-2.3359,-2.2673,-2.2426,-2.4005,-2.3689,-2.2714,-2.2714,-2.189,-2.1007,-2.1039,-2.1323,-2.1582,-2.1628,-2.2155,-2.2588,-2.2114,-2.2205,-2.2447,-2.2656,-2.1671,-2.0988,-2.16,-2.0657,-1.9798,-1.9798,-1.9798,-1.9798,-1.9798,-1.9359,-1.9221,-1.9736,-1.9798,-1.9585,-1.9033,-2.1725,-2.379,-2.4371,-2.692,-2.8925,-3.0051,-3.0155,-2.9837,-2.9045,-2.7503,-2.7063,-2.7772,-2.443,-2.2934,-2.3376,-2.1758,-2.1446,-2.231,-2.2563,-2.2695,-2.2721,-2.3045,-2.3693,-2.3616,-1.2642,-0.5859,-0.0966,1.3344,1.9753,2.0879,2.0061,2.0286,2.0959,-1.7386,-1.7794,-1.8531,-1.996,-2.0246,-2.0536,-2.1089,-2.1273,-2.1078,-2.0422,-2.0639,-2.0803,-2.0586,-2.1647,-2.2154,-2.1693,-2.17,-2.1744,-2.1744,-2.1581,-2.1493,-2.1493,-2.1493,-2.1493,-2.1493,-2.1656,-2.1744,-2.1744,-2.2297,-2.2761,-2.3078,-2.3078,-2.346,-2.4144,-2.4681,-2.5189,-2.5645,-2.6269,-2.625,-2.5914,-2.5914,-2.5483,-2.4836,-2.4836,-2.4513,-2.4055,-2.3626,-2.3544,-2.3465,-2.2269,-2.1967,-2.2116,-2.2102,-2.1858,-2.1536,-2.1536,-2.1053,-2.0583,-2.0926,-2.1086,-2.1244,-2.1521,-2.1562,-2.152,-2.1359,-2.1268,-2.1166,-2.0852,-2.0812,-2.0772,-2.0577,-2.0124,-1.9798,-1.9798,-1.9798,-1.9798,-1.9798,-1.9359,-1.8784,-1.8154,-1.8449,-1.8129,-1.6641,-1.9688,-2.2581,-2.4419,-2.7104,-2.9258,-3.0579,-2.9904,-2.9602,-2.9932,-2.7328,-2.6169,-2.6576,-2.4293,-2.3005,-2.2649,-2.212,-2.2113,-2.2573,-2.2803,-2.2951,-2.3076,-2.3729,-2.3228,-2.1005,-0.9202,-0.236,0.2036,1.5796,2.1558,2.2146,2.1975,2.2034,2.204,-1.5662,-1.6154,-1.6923,-1.8171,-1.876,-1.9295,-1.9885,-2.0033,-1.9932,-1.9492,-1.9434,-1.9278,-1.8832,-1.9746,-2.0473,-2.0748,-2.0779,-2.089,-2.1179,-2.0978,-2.0853,-2.0853,-2.0853,-2.0853,-2.0853,-2.1066,-2.1179,-2.1179,-2.1732,-2.2284,-2.2824,-2.2824,-2.3125,-2.3665,-2.4004,-2.4253,-2.4557,-2.518,-2.52,-2.4885,-2.5133,-2.4837,-2.4238,-2.4238,-2.3819,-2.3206,-2.2858,-2.2566,-2.2248,-2.1369,-2.1146,-2.113,-2.0673,-2.0514,-2.0532,-2.0682,-2.0431,-2.0139,-2.0431,-2.0632,-2.0797,-2.1039,-2.091,-2.0698,-2.0532,-2.0421,-2.0243,-1.9962,-1.9978,-2.0079,-2.0,-1.9705,-1.9572,-1.9773,-1.9798,-1.9798,-1.9798,-1.9171,-1.8585,-1.8264,-1.8238,-1.787,-1.7093,-1.9175,-2.143,-2.3591,-2.5862,-2.7739,-2.9098,-2.941,-2.9338,-2.8953,-2.6584,-2.5178,-2.4889,-2.3701,-2.2752,-2.2032,-2.2385,-2.2652,-2.2828,-2.33,-2.3435,-2.3339,-2.3879,-2.3295,-2.0974,-0.8067,-0.0455,0.4248,1.6533,2.1692,2.2317,2.2539,2.2565,2.2412,-1.4075,-1.5057,-1.5799,-1.5335,-1.6818,-1.8029,-1.7877,-1.8571,-1.901,-1.8582,-1.8494,-1.8379,-1.793,-1.7772,-1.8326,-1.997,-1.9749,-1.9806,-2.0428,-2.0047,-1.9786,-1.9697,-1.9748,-1.9736,-1.9698,-2.0263,-2.0643,-2.0718,-2.1179,-2.1707,-2.2246,-2.2246,-2.2523,-2.3,-2.2485,-2.261,-2.3279,-2.3402,-2.3497,-2.3609,-2.4146,-2.4029,-2.3475,-2.3475,-2.3116,-2.2607,-2.2604,-2.1754,-2.0707,-2.0662,-2.0213,-1.969,-1.969,-1.969,-1.9782,-2.0158,-2.0,-1.969,-1.969,-2.0,-2.0314,-2.0314,-2.0314,-2.0177,-1.9732,-1.9639,-1.9671,-1.9724,-1.9251,-1.9065,-1.9701,-1.9384,-1.9183,-1.9673,-1.9748,-1.9748,-1.9748,-1.8808,-1.852,-1.9521,-1.8795,-1.8546,-1.9584,-1.9767,-2.0552,-2.2322,-2.3693,-2.5049,-2.6436,-2.8852,-2.907,-2.6572,-2.5378,-2.4286,-2.3183,-2.2785,-2.2289,-2.1715,-2.259,-2.3041,-2.3132,-2.4013,-2.4072,-2.3444,-2.366,-2.3746,-2.2681,-0.8803,-0.0103,0.5519,1.5758,2.0464,2.1532,2.1938,2.2175,2.2237,-1.3266,-1.3709,-1.402,-1.4537,-1.5203,-1.6024,-1.7306,-1.7614,-1.7763,-1.8075,-1.7881,-1.7383,-1.6611,-1.6513,-1.6727,-1.7345,-1.8322,-1.8743,-1.8363,-1.9275,-1.9342,-1.8401,-1.8882,-1.9007,-1.8593,-1.9133,-1.9823,-2.0718,-2.0857,-2.1142,-2.1681,-2.1681,-2.1757,-2.187,-2.1744,-2.1805,-2.201,-2.2086,-2.2103,-2.2205,-2.2337,-2.2276,-2.2143,-2.2143,-2.2054,-2.1859,-2.1365,-2.0976,-2.0632,-2.0109,-1.9824,-1.969,-1.969,-1.969,-1.9711,-1.9803,-1.9782,-1.969,-1.969,-2.0,-2.0314,-2.0314,-2.0314,-2.0108,-1.9266,-1.9095,-1.886,-1.8098,-1.8175,-1.8288,-1.8067,-1.8538,-1.9021,-1.9196,-1.9208,-1.9208,-1.9208,-1.8142,-1.7508,-1.7872,-1.793,-1.8087,-1.8307,-1.9326,-2.1111,-2.3912,-2.4494,-2.5858,-2.8528,-2.8926,-2.8271,-2.6538,-2.5378,-2.4495,-2.3866,-2.3029,-2.2601,-2.2683,-2.2949,-2.3429,-2.4081,-2.4511,-2.4005,-2.2909,-2.4452,-2.3281,-1.9443,-0.8501,-0.106,0.4538,1.5289,1.9794,2.0369,2.1466,2.2006,2.2074,-1.1904,-1.2394,-1.2927,-1.3198,-1.3719,-1.4379,-1.5242,-1.5947,-1.656,-1.6826,-1.7021,-1.6904,-1.6426,-1.6182,-1.6059,-1.6019,-1.6873,-1.75,-1.7725,-1.8298,-1.8461,-1.8068,-1.8436,-1.8505,-1.8216,-1.8505,-1.8945,-1.9535,-1.9786,-2.0188,-2.0727,-2.0991,-2.1255,-2.1481,-2.123,-2.1145,-2.1172,-2.0948,-2.0893,-2.0962,-2.1226,-2.1349,-2.1344,-2.1615,-2.1515,-2.1201,-2.0842,-2.0513,-2.0183,-1.9809,-1.969,-1.969,-1.969,-1.969,-1.969,-1.969,-1.969,-1.969,-1.969,-1.9874,-2.0035,-2.0035,-1.9829,-1.9528,-1.9043,-1.8688,-1.8302,-1.7463,-1.7576,-1.7721,-1.746,-1.7865,-1.8259,-1.824,-1.8375,-1.8534,-1.8597,-1.7654,-1.7346,-1.8312,-1.8121,-1.8333,-1.9466,-2.0284,-2.1729,-2.4067,-2.4708,-2.58,-2.7655,-2.7745,-2.7543,-2.7061,-2.6083,-2.5225,-2.4441,-2.3879,-2.3409,-2.3075,-2.3952,-2.4299,-2.4154,-2.3845,-2.342,-2.2792,-2.0409,-1.6776,-1.1888,-0.3811,0.3099,0.9212,1.5438,1.8433,1.9371,2.04,2.1142,2.1532,-1.0504,-1.1269,-1.1933,-1.179,-1.2466,-1.2989,-1.2817,-1.4112,-1.5141,-1.5333,-1.5898,-1.6305,-1.6426,-1.6045,-1.5625,-1.5254,-1.5416,-1.6073,-1.7403,-1.7369,-1.7496,-1.789,-1.8031,-1.8041,-1.7953,-1.8041,-1.8129,-1.8204,-1.8681,-1.9171,-1.9698,-2.0188,-2.0715,-2.1204,-2.074,-2.0539,-2.0517,-2.0057,-1.9885,-1.9987,-2.0443,-2.0662,-2.0779,-2.1223,-2.1036,-2.0557,-2.0557,-2.0183,-1.969,-1.969,-1.969,-1.969,-1.969,-1.9639,-1.9566,-1.9566,-1.953,-1.9479,-1.9566,-1.953,-1.9442,-1.9442,-1.9132,-1.8765,-1.8688,-1.8302,-1.7827,-1.7312,-1.7188,-1.719,-1.7238,-1.7325,-1.7355,-1.7291,-1.7538,-1.7847,-1.8044,-1.7324,-1.7525,-1.9469,-1.8802,-1.9121,-2.1498,-2.175,-2.2271,-2.3666,-2.4526,-2.521,-2.5638,-2.6176,-2.6811,-2.7562,-2.6778,-2.5834,-2.4736,-2.4726,-2.4295,-2.3493,-2.4936,-2.502,-2.3886,-2.2782,-2.2458,-2.2307,-1.4446,-0.8477,-0.3744,0.2735,0.9158,1.5029,1.5835,1.7022,1.8347,1.92,2.0043,2.0748,-0.9875,-1.0335,-1.0565,-1.1042,-1.1465,-1.1776,-1.2082,-1.2733,-1.3542,-1.4454,-1.4516,-1.4622,-1.5049,-1.4697,-1.435,-1.4282,-1.4051,-1.4368,-1.5467,-1.6623,-1.7087,-1.661,-1.7168,-1.7287,-1.6785,-1.7262,-1.7739,-1.8204,-1.8292,-1.8606,-1.9145,-1.9246,-1.956,-2.0062,-1.9974,-1.9936,-1.9899,-1.9384,-1.9439,-1.9806,-1.9362,-1.9498,-1.9916,-2.0004,-1.9929,-1.9854,-1.9854,-1.9779,-1.969,-1.969,-1.969,-1.969,-1.969,-1.9406,-1.9006,-1.9006,-1.8688,-1.8458,-1.8893,-1.8688,-1.8341,-1.8341,-1.8302,-1.8106,-1.7666,-1.7463,-1.7271,-1.671,-1.6637,-1.662,-1.6635,-1.7049,-1.7355,-1.7183,-1.7179,-1.7381,-1.7882,-1.726,-1.7399,-1.8933,-1.9308,-2.0213,-2.2161,-2.2323,-2.2793,-2.4041,-2.4111,-2.4368,-2.5013,-2.5551,-2.6208,-2.7005,-2.6079,-2.5181,-2.4397,-2.437,-2.4659,-2.5202,-2.458,-2.4225,-2.4007,-2.2436,-2.1173,-1.9672,-1.0557,-0.4933,-0.1564,0.7592,1.251,1.4403,1.5792,1.6511,1.6931,1.8454,1.9346,1.9854,-0.7842,-0.8681,-0.9358,-0.9675,-1.0145,-1.0574,-1.071,-1.1367,-1.2065,-1.2926,-1.3359,-1.3768,-1.436,-1.4248,-1.399,-1.3818,-1.3623,-1.374,-1.438,-1.5044,-1.5423,-1.5441,-1.6071,-1.6453,-1.6479,-1.6773,-1.7036,-1.7287,-1.7601,-1.789,-1.8141,-1.8442,-1.8869,-1.9371,-1.9083,-1.9108,-1.9334,-1.8493,-1.8474,-1.8903,-1.8618,-1.8789,-1.9281,-1.9603,-1.969,-1.969,-1.969,-1.969,-1.969,-1.969,-1.969,-1.9639,-1.9369,-1.9095,-1.8855,-1.8535,-1.8302,-1.8145,-1.8419,-1.8302,-1.8106,-1.8106,-1.7867,-1.7585,-1.7353,-1.7076,-1.6795,-1.6552,-1.6522,-1.638,-1.6095,-1.6215,-1.6188,-1.5421,-1.5719,-1.6255,-1.7,-1.6813,-1.7345,-1.9217,-1.9294,-1.9969,-2.2061,-2.2254,-2.2744,-2.3935,-2.4038,-2.4099,-2.4189,-2.45,-2.4801,-2.5119,-2.5723,-2.5542,-2.4474,-2.503,-2.4807,-2.377,-2.3482,-2.2706,-2.1439,-1.9132,-1.8261,-1.7916,-0.6837,0.1038,0.6411,1.158,1.4168,1.4993,1.6318,1.6818,1.6944,1.8078,1.8598,1.8797,-0.616,-0.7354,-0.8369,-0.8551,-0.9207,-0.9659,-0.9593,-1.0236,-1.0954,-1.1495,-1.2312,-1.3055,-1.3647,-1.3791,-1.3711,-1.3389,-1.3359,-1.3412,-1.3573,-1.36,-1.392,-1.4652,-1.5141,-1.5599,-1.6064,-1.6064,-1.6064,-1.6064,-1.6683,-1.7057,-1.7182,-1.7756,-1.8304,-1.8819,-1.8392,-1.8442,-1.8769,-1.779,-1.7753,-1.8358,-1.8153,-1.8496,-1.9132,-1.953,-1.969,-1.969,-1.969,-1.969,-1.969,-1.969,-1.969,-1.9603,-1.908,-1.8817,-1.8612,-1.8066,-1.7827,-1.7747,-1.7867,-1.7827,-1.7747,-1.7747,-1.7435,-1.7118,-1.7118,-1.6795,-1.6522,-1.6522,-1.6522,-1.638,-1.5908,-1.5676,-1.5266,-1.4331,-1.4683,-1.5408,-1.6227,-1.6521,-1.7395,-1.94,-1.9249,-1.9768,-2.1766,-2.1938,-2.2359,-2.3413,-2.3542,-2.345,-2.3117,-2.3271,-2.3335,-2.3271,-2.5056,-2.5513,-2.4469,-2.5351,-2.4749,-2.2661,-2.2571,-2.1353,-1.901,-1.6153,-1.5441,-1.5811,-0.4431,0.5157,1.2833,1.3563,1.453,1.5624,1.6751,1.7315,1.7477,1.8078,1.8224,1.8052,-0.6044,-0.6878,-0.765,-0.8487,-0.9207,-0.9593,-0.9256,-0.9866,-1.0399,-1.0554,-1.1361,-1.2099,-1.2559,-1.2843,-1.2959,-1.293,-1.293,-1.2959,-1.2978,-1.2978,-1.3478,-1.4663,-1.4744,-1.4789,-1.4835,-1.4835,-1.4835,-1.4835,-1.5457,-1.5987,-1.6465,-1.7161,-1.7739,-1.8267,-1.8229,-1.8229,-1.8229,-1.7639,-1.7948,-1.8782,-1.83,-1.8727,-1.9639,-1.969,-1.969,-1.969,-1.969,-1.969,-1.969,-1.969,-1.969,-1.9603,-1.908,-1.8574,-1.8066,-1.7504,-1.6993,-1.671,-1.7229,-1.6993,-1.6637,-1.6637,-1.6595,-1.6552,-1.6552,-1.6522,-1.6522,-1.6522,-1.6522,-1.6479,-1.6423,-1.5964,-1.5517,-1.5244,-1.5233,-1.5492,-1.6121,-1.6685,-1.7545,-1.8917,-1.9499,-2.0288,-2.1431,-2.1415,-2.16,-2.2181,-2.1913,-2.1678,-2.1653,-2.1887,-2.2108,-2.231,-2.3581,-2.4204,-2.4062,-2.4435,-2.4426,-2.4018,-2.2505,-2.0635,-1.847,-1.5438,-1.3708,-1.259,-0.4397,0.4358,1.2822,1.2138,1.3274,1.5636,1.6802,1.7585,1.8092,1.865,1.8535,1.8171,-0.5083,-0.6102,-0.6946,-0.7282,-0.8355,-0.9105,-0.8985,-0.9179,-0.9539,-1.0001,-1.0347,-1.0922,-1.1939,-1.2181,-1.2393,-1.2871,-1.2881,-1.2881,-1.2881,-1.2881,-1.3286,-1.4097,-1.4143,-1.4329,-1.4709,-1.4698,-1.488,-1.5276,-1.5499,-1.5917,-1.6446,-1.6704,-1.7149,-1.7677,-1.7325,-1.735,-1.7697,-1.7457,-1.7726,-1.8423,-1.8542,-1.9043,-1.969,-1.969,-1.969,-1.969,-1.969,-1.969,-1.969,-1.969,-1.9479,-1.9132,-1.8574,-1.8027,-1.7504,-1.6951,-1.668,-1.6552,-1.6752,-1.668,-1.6522,-1.6522,-1.6522,-1.6522,-1.6522,-1.6522,-1.6522,-1.6522,-1.6522,-1.638,-1.6008,-1.5764,-1.5424,-1.4991,-1.5129,-1.553,-1.6205,-1.675,-1.7542,-1.8802,-1.9508,-2.0131,-2.0688,-2.1106,-2.1327,-2.1407,-2.1279,-2.1195,-2.1195,-2.1287,-2.1203,-2.0982,-2.1617,-2.2278,-2.2872,-2.2531,-2.1917,-2.1073,-1.9155,-1.7304,-1.5421,-1.2612,-1.0939,-0.985,-0.2819,0.3553,0.9134,1.0846,1.3073,1.5509,1.6313,1.7248,1.8145,1.8341,1.8263,1.8092,-0.4519,-0.5441,-0.6258,-0.6258,-0.745,-0.848,-0.848,-0.8646,-0.8956,-0.9413,-0.9666,-1.0167,-1.1065,-1.1566,-1.1972,-1.2501,-1.2774,-1.2881,-1.2881,-1.2881,-1.3055,-1.3505,-1.3505,-1.3695,-1.4107,-1.4107,-1.4422,-1.5039,-1.5231,-1.5644,-1.6238,-1.6423,-1.6735,-1.7099,-1.6697,-1.6735,-1.7131,-1.7245,-1.7626,-1.8145,-1.8688,-1.9207,-1.969,-1.969,-1.9603,-1.9479,-1.9639,-1.9479,-1.9207,-1.9406,-1.9095,-1.8574,-1.8027,-1.7463,-1.6993,-1.6595,-1.6522,-1.6522,-1.6522,-1.6522,-1.6522,-1.6522,-1.6522,-1.6522,-1.6522,-1.6522,-1.6522,-1.6522,-1.6522,-1.6337,-1.572,-1.5588,-1.541,-1.4789,-1.5118,-1.5556,-1.6077,-1.6584,-1.7347,-1.8508,-1.9045,-1.9521,-2.0061,-2.0553,-2.0736,-2.0597,-2.0449,-2.0333,-2.0333,-2.0333,-2.0165,-1.9808,-2.0004,-2.0278,-2.0643,-2.0661,-2.0129,-1.903,-1.7263,-1.5567,-1.3839,-1.0971,-0.9082,-0.7729,-0.2205,0.2406,0.6158,0.8689,1.1513,1.4227,1.4792,1.5909,1.7276,1.7611,1.7785,1.7786,-0.4519,-0.5058,-0.5487,-0.5487,-0.674,-0.767,-0.7723,-0.8321,-0.8804,-0.8804,-0.9361,-0.9814,-0.9814,-1.0965,-1.1765,-1.1814,-1.2452,-1.2881,-1.2881,-1.2881,-1.2881,-1.2881,-1.2881,-1.2881,-1.2881,-1.2881,-1.32,-1.3815,-1.4376,-1.5017,-1.5632,-1.6238,-1.6522,-1.6522,-1.6522,-1.6522,-1.6552,-1.7076,-1.7626,-1.8145,-1.8688,-1.9207,-1.969,-1.969,-1.9369,-1.8968,-1.9479,-1.9006,-1.8185,-1.8688,-1.8535,-1.7987,-1.7463,-1.6909,-1.6522,-1.6466,-1.6466,-1.6509,-1.6466,-1.6466,-1.6466,-1.6522,-1.6522,-1.6522,-1.6522,-1.6522,-1.6522,-1.6522,-1.6522,-1.6337,-1.572,-1.5588,-1.541,-1.4789,-1.5231,-1.5588,-1.5588,-1.6139,-1.6909,-1.7987,-1.8106,-1.8535,-1.9603,-1.969,-1.969,-1.969,-1.9207,-1.8893,-1.8893,-1.8893,-1.8907,-1.8893,-1.8902,-1.8357,-1.7179,-1.8986,-1.9526,-1.874,-1.7623,-1.6166,-1.4349,-1.1074,-0.8501,-0.6406,-0.2975,0.0769,0.4534,0.5483,0.812,1.1547,1.2158,1.3576,1.5408,1.655,1.7089,1.7301,-0.4477,-0.5062,-0.5487,-0.5487,-0.6308,-0.7128,-0.7616,-0.7883,-0.8209,-0.8752,-0.8956,-0.9256,-0.9769,-1.0167,-1.0568,-1.1065,-1.1275,-1.1633,-1.2089,-1.2608,-1.2881,-1.2881,-1.2881,-1.2881,-1.2881,-1.2881,-1.32,-1.3815,-1.4376,-1.5017,-1.5632,-1.6238,-1.6522,-1.6522,-1.6522,-1.6522,-1.6552,-1.7076,-1.7626,-1.8145,-1.8688,-1.9207,-1.9639,-1.9281,-1.9043,-1.8855,-1.865,-1.838,-1.8145,-1.8302,-1.7987,-1.7463,-1.6909,-1.6637,-1.6423,-1.6008,-1.5923,-1.5765,-1.5033,-1.4833,-1.5098,-1.6223,-1.6522,-1.6522,-1.6522,-1.6522,-1.6522,-1.6522,-1.6522,-1.6423,-1.6238,-1.6238,-1.6194,-1.5976,-1.6107,-1.6238,-1.6238,-1.638,-1.6909,-1.7987,-1.8519,-1.9055,-1.9647,-2.0124,-2.0213,-1.972,-1.9207,-1.8893,-1.8893,-1.8906,-1.8741,-1.8438,-1.8762,-1.8221,-1.6643,-1.7552,-1.7483,-1.649,-1.4834,-1.3564,-1.2426,-1.0043,-0.7945,-0.5995,-0.352,-0.0274,0.3457,0.449,0.6691,0.9517,1.0168,1.1882,1.4138,1.5408,1.6426,1.7301,-0.4154,-0.4718,-0.4971,-0.491,-0.554,-0.6167,-0.6582,-0.7104,-0.7659,-0.819,-0.837,-0.8697,-0.9332,-0.9438,-0.9677,-1.02,-1.0377,-1.0626,-1.1011,-1.1667,-1.2072,-1.2072,-1.226,-1.2577,-1.2871,-1.2881,-1.3286,-1.4143,-1.4514,-1.5152,-1.5952,-1.6324,-1.6522,-1.6522,-1.6522,-1.6522,-1.6552,-1.7076,-1.7504,-1.7827,-1.838,-1.8779,-1.9043,-1.8688,-1.8458,-1.8263,-1.8145,-1.7827,-1.7504,-1.7706,-1.7422,-1.6909,-1.6312,-1.6139,-1.6003,-1.5219,-1.5033,-1.4887,-1.4044,-1.3829,-1.4063,-1.5049,-1.5587,-1.5936,-1.6102,-1.6139,-1.6107,-1.5832,-1.5788,-1.5788,-1.5788,-1.5964,-1.6139,-1.6139,-1.6324,-1.6522,-1.6522,-1.6522,-1.6909,-1.7987,-1.8464,-1.8984,-1.9647,-2.0064,-1.9975,-1.9124,-1.8968,-1.8688,-1.8302,-1.8289,-1.8242,-1.8209,-1.8208,-1.7513,-1.6045,-1.6007,-1.5589,-1.4778,-1.346,-1.2415,-1.1653,-0.9636,-0.8106,-0.6897,-0.4569,-0.1539,0.1822,0.2874,0.4765,0.7045,0.7693,0.9445,1.1737,1.3294,1.4675,1.5899,-0.35,-0.4089,-0.4136,-0.4022,-0.4557,-0.5042,-0.5091,-0.6116,-0.703,-0.7366,-0.7597,-0.7983,-0.8508,-0.8616,-0.8765,-0.9107,-0.951,-0.9777,-0.9831,-1.0382,-1.0749,-1.0794,-1.129,-1.1934,-1.2792,-1.2764,-1.3307,-1.4427,-1.4518,-1.5182,-1.6275,-1.6391,-1.6471,-1.6522,-1.6522,-1.6522,-1.6522,-1.7034,-1.7271,-1.7353,-1.7827,-1.8066,-1.8106,-1.8066,-1.7747,-1.7353,-1.7787,-1.7353,-1.6552,-1.7076,-1.6866,-1.6337,-1.5764,-1.5543,-1.5316,-1.4291,-1.4002,-1.3899,-1.335,-1.3141,-1.3118,-1.3152,-1.3864,-1.473,-1.5342,-1.5472,-1.5306,-1.4835,-1.4744,-1.4789,-1.4789,-1.5276,-1.5676,-1.5676,-1.6139,-1.6522,-1.6522,-1.6522,-1.6879,-1.7907,-1.8027,-1.8419,-1.9442,-1.9566,-1.9169,-1.8185,-1.8496,-1.8341,-1.7353,-1.7227,-1.7515,-1.8122,-1.7407,-1.652,-1.5485,-1.4665,-1.4023,-1.3507,-1.285,-1.2162,-1.1355,-0.9489,-0.856,-0.8253,-0.5751,-0.2932,-0.0056,0.1055,0.2658,0.4597,0.532,0.6822,0.8815,1.0739,1.2301,1.3729,-0.2216,-0.3268,-0.4022,-0.4019,-0.4115,-0.4409,-0.4992,-0.5336,-0.5741,-0.6374,-0.6536,-0.6644,-0.675,-0.6753,-0.6804,-0.691,-0.7896,-0.8658,-0.9105,-0.974,-1.0328,-1.0794,-1.0927,-1.1242,-1.189,-1.189,-1.2014,-1.227,-1.3119,-1.3916,-1.4618,-1.5482,-1.6107,-1.6522,-1.6522,-1.6522,-1.6522,-1.6637,-1.6909,-1.7312,-1.7422,-1.7747,-1.8066,-1.7626,-1.7394,-1.7271,-1.6951,-1.671,-1.6522,-1.6637,-1.6269,-1.5776,-1.5632,-1.5276,-1.4688,-1.3617,-1.3335,-1.3109,-1.182,-1.1176,-1.1003,-1.144,-1.1398,-1.1777,-1.3946,-1.4444,-1.4471,-1.4665,-1.5062,-1.541,-1.541,-1.592,-1.6281,-1.6281,-1.6423,-1.6522,-1.6522,-1.6522,-1.6752,-1.7394,-1.7463,-1.7747,-1.838,-1.8458,-1.8341,-1.8145,-1.7827,-1.7544,-1.7312,-1.6861,-1.6905,-1.7543,-1.6919,-1.62,-1.5497,-1.4842,-1.375,-1.219,-1.0998,-1.0077,-0.9334,-0.833,-0.7278,-0.6145,-0.5778,-0.3938,-0.1055,0.0777,0.2666,0.4632,0.5878,0.6993,0.8075,1.0101,1.1764,1.3297,-0.2446,-0.3298,-0.3826,-0.3819,-0.3812,-0.395,-0.4318,-0.4591,-0.4943,-0.551,-0.5712,-0.5872,-0.6186,-0.5966,-0.5881,-0.6162,-0.6793,-0.7417,-0.7966,-0.8583,-0.9107,-0.9409,-0.9666,-0.9922,-1.0228,-1.048,-1.1058,-1.2019,-1.2605,-1.327,-1.4115,-1.4651,-1.5228,-1.5743,-1.5701,-1.5697,-1.5709,-1.5941,-1.6083,-1.6089,-1.6361,-1.6464,-1.6426,-1.5934,-1.5763,-1.5696,-1.5211,-1.5001,-1.5037,-1.5301,-1.499,-1.4549,-1.471,-1.4238,-1.3421,-1.2327,-1.1847,-1.1447,-1.0173,-0.9663,-0.9536,-0.9817,-0.9699,-1.0013,-1.2101,-1.2578,-1.2606,-1.282,-1.3076,-1.3554,-1.4316,-1.4936,-1.5514,-1.6036,-1.6346,-1.6522,-1.6522,-1.6522,-1.671,-1.7229,-1.7312,-1.7504,-1.8066,-1.8106,-1.7987,-1.7747,-1.7463,-1.705,-1.6532,-1.6195,-1.6168,-1.6489,-1.5781,-1.5411,-1.5378,-1.3872,-1.2651,-1.1635,-1.0699,-0.9533,-0.8224,-0.7871,-0.6902,-0.5542,-0.5786,-0.4791,-0.2732,-0.0222,0.228,0.4595,0.5289,0.6249,0.7357,0.9099,1.1056,1.3054,-0.2582,-0.3152,-0.3289,-0.3277,-0.3312,-0.3357,-0.3581,-0.3968,-0.4365,-0.465,-0.4892,-0.5178,-0.5719,-0.53,-0.5265,-0.583,-0.5873,-0.613,-0.6677,-0.728,-0.7655,-0.7739,-0.8212,-0.8529,-0.8675,-0.9098,-1.0167,-1.1996,-1.2163,-1.2762,-1.3717,-1.3808,-1.4144,-1.4644,-1.4612,-1.4552,-1.4575,-1.5018,-1.4931,-1.4541,-1.5019,-1.4931,-1.4451,-1.4102,-1.3987,-1.393,-1.3553,-1.3406,-1.3474,-1.3851,-1.3578,-1.3156,-1.3376,-1.2824,-1.185,-1.0825,-1.0274,-0.9765,-0.8938,-0.8635,-0.8561,-0.8561,-0.8472,-0.8733,-0.9952,-1.0452,-1.0622,-1.0633,-1.0829,-1.1339,-1.271,-1.3566,-1.4437,-1.5422,-1.6028,-1.6409,-1.6509,-1.6522,-1.6637,-1.6967,-1.7008,-1.7162,-1.7639,-1.7679,-1.7436,-1.6912,-1.6883,-1.6446,-1.5499,-1.5353,-1.5326,-1.5339,-1.458,-1.4424,-1.4942,-1.2715,-1.1477,-1.1372,-1.0748,-0.9415,-0.7503,-0.7396,-0.6578,-0.5328,-0.5572,-0.5203,-0.4268,-0.1222,0.1779,0.4494,0.4632,0.5441,0.6794,0.843,1.0554,1.2657,-0.0403,-0.134,-0.2055,-0.2055,-0.2053,-0.2413,-0.3458,-0.3681,-0.3732,-0.3753,-0.3817,-0.3858,-0.3943,-0.3865,-0.4056,-0.4609,-0.4652,-0.4913,-0.5475,-0.6087,-0.6641,-0.712,-0.7397,-0.7945,-0.8675,-0.8479,-0.8872,-0.9913,-1.0772,-1.1524,-1.2106,-1.2592,-1.3105,-1.361,-1.3597,-1.3591,-1.3591,-1.3659,-1.364,-1.3557,-1.364,-1.364,-1.3557,-1.3542,-1.3508,-1.3508,-1.3429,-1.3406,-1.3417,-1.3485,-1.2806,-1.1956,-1.1991,-1.1195,-1.016,-0.9631,-0.946,-0.93,-0.8815,-0.8357,-0.7995,-0.7995,-0.7614,-0.7286,-0.749,-0.8571,-0.9622,-0.9945,-1.0846,-1.1634,-1.184,-1.3106,-1.432,-1.4976,-1.5496,-1.5969,-1.6446,-1.6522,-1.6324,-1.5896,-1.584,-1.584,-1.5928,-1.5915,-1.5708,-1.5096,-1.505,-1.496,-1.4835,-1.4329,-1.4269,-1.4799,-1.3703,-1.3397,-1.4005,-1.2508,-1.1495,-1.0887,-0.9585,-0.8212,-0.675,-0.6086,-0.5386,-0.4639,-0.4698,-0.4601,-0.4281,-0.1223,0.1779,0.4549,0.512,0.5873,0.6902,0.9555,1.0754,1.1316,0.1027,0.0045,-0.0804,-0.0804,-0.0804,-0.0983,-0.152,-0.2146,-0.2595,-0.2595,-0.2591,-0.2862,-0.3544,-0.3585,-0.3704,-0.3946,-0.4212,-0.4648,-0.526,-0.5567,-0.5758,-0.5938,-0.6061,-0.6265,-0.6552,-0.695,-0.741,-0.7984,-0.9138,-1.0136,-1.0902,-1.0853,-1.1219,-1.199,-1.198,-1.1799,-1.1551,-1.2163,-1.2054,-1.1484,-1.1873,-1.1787,-1.1412,-1.1188,-1.1091,-1.1062,-1.0869,-1.0781,-1.082,-1.1013,-1.0611,-1.0089,-1.0567,-1.0022,-0.9197,-0.8936,-0.8688,-0.8422,-0.7893,-0.7356,-0.6943,-0.6943,-0.6507,-0.6033,-0.6033,-0.6582,-0.7387,-0.8555,-0.919,-0.987,-1.1035,-1.2615,-1.3993,-1.482,-1.562,-1.6106,-1.6015,-1.6008,-1.5776,-1.5186,-1.4755,-1.4699,-1.505,-1.4744,-1.4562,-1.4698,-1.4698,-1.456,-1.4236,-1.3956,-1.3779,-1.3705,-1.3152,-1.3135,-1.3639,-1.2022,-1.1006,-1.0556,-0.8487,-0.7219,-0.6588,-0.5996,-0.5293,-0.448,-0.4494,-0.4504,-0.4225,-0.0334,0.2508,0.4549,0.4849,0.5864,0.7463,0.9923,1.1065,1.1566]},{"header":{"parameterUnit":"m.s-1","parameterCategory":1,"la1":30.6,"la2":28.766,"lo1":-90.7593,"lo2":-88.6598,"dy":0.0162,"dx":0.0183,"nx":116,"ny":114,"refTime":"2023-04-27T12:00:00:Z","depth":0,"parameterNumber":3,"parameterNumberName":"V-component_of_WINDS"},"data":[0.0,0.0,0.0,0.0,0.0,0.0,0.0,0.0,0.0,0.0,0.0,0.0,0.0,0.0,0.0,0.0,0.0,0.0,0.0,0.0,0.0,0.0,0.0,0.0,0.0,0.0,0.0,0.0,0.0,0.0,0.0,0.0,0.0,0.0,0.0,0.0,0.0,0.0,0.0,0.0,0.0,0.0,0.0,0.0,0.0,0.0,0.0,0.0,0.0,0.0,0.0,0.0,0.0,0.0,0.0,0.0,0.0,0.0,0.0,0.0,0.0,0.0,0.0,0.0,0.0,0.0,0.0,0.0,0.0,0.0,0.0,0.0,0.0,0.0,0.0,0.0,0.0,0.0,0.0,0.0,0.0,0.0,0.0,0.0,0.0,0.0,0.0,0.0,0.0,0.0,0.0,0.0,0.0,0.0,0.0,0.0,0.0,0.0,0.0,0.0,0.0,0.0,0.0,0.0,0.0,0.0,0.0,0.0,0.0,0.0,0.0,0.0,0.0,0.0,0.0,0.0,0.0,0.0,0.0,0.0,0.0,0.0,0.0,0.0,0.0,0.0,0.0,0.0,0.0,0.0,0.0,0.0,0.0,0.0,0.0,0.0,0.0,0.0,0.0,0.0,0.0,0.0,0.0,0.0,0.0,0.0,0.0,0.0,0.0,0.0,0.0,0.0,0.0,0.0,0.0,0.0,0.0,0.0,0.0,0.0,0.0,0.0,0.0,0.0,0.0,0.0,0.0,0.0,0.0,0.0,0.0,0.0,0.0,0.0,0.0,0.0,0.0,0.0,0.0,0.0,0.0,0.0,0.0,0.0,0.0,0.0,0.0,0.0,0.0,0.0,0.0,0.0,0.0,0.0,0.0,0.0,0.0,0.0,0.0,0.0,0.0,0.0,0.0,0.0,0.0,0.0,0.0,0.0,0.0,0.0,0.0,0.0,0.0,0.0,0.0,0.0,0.0,0.0,0.0,0.0,0.0,0.0,0.0,0.0,0.0,0.0,0.0,0.0,0.0,0.0,0.0,0.0,0.0,0.0,0.0,0.0,0.0,0.0,0.0,0.0,0.0,0.0,0.0,0.0,0.0,0.0,0.0,0.0,0.0,0.0,0.0,0.0,0.0,0.0,0.0,0.0,0.0,0.0,0.0,0.0,0.0,0.0,0.0,0.0,0.0,0.0,0.0,0.0,0.0,0.0,0.0,0.0,0.0,0.0,0.0,0.0,0.0,0.0,0.0,0.0,0.0,0.0,0.0,0.0,0.0,0.0,0.0,0.0,0.0,0.0,0.0,0.0,0.0,0.0,0.0,0.0,0.0,0.0,0.0,0.0,0.0,0.0,0.0,0.0,0.0,0.0,0.0,0.0,0.0,0.0,0.0,0.0,0.0,0.0,0.0,0.0,0.0,0.0,0.0,0.0,0.0,0.0,0.0,0.0,0.0,0.0,0.0,0.0,0.0,0.0,0.0,0.0,0.0,0.0,0.0,0.0,0.0,0.0,0.0,0.0,0.0,0.0,0.0,0.0,0.0,0.0,0.0,0.0,0.0,0.0,0.0,0.0,0.0,0.0,0.0,0.0,0.0,0.0,0.0,0.0,0.0,0.0,0.0,0.0,0.0,0.0,0.0,0.0,0.0,0.0,0.0,0.0,0.0,0.0,0.0,0.0,0.0,0.0,0.0,0.0,0.0,0.0,0.0,0.0,0.0,0.0,0.0,0.0,0.0,0.0,0.0,0.0,0.0,0.0,0.0,0.0,0.0,0.0,0.0,0.0,0.0,0.0,0.0,0.0,0.0,0.0,0.0,0.0,0.0,0.0,0.0,0.0,0.0,0.0,0.0,0.0,0.0,0.0,0.0,0.0,0.0,0.0,0.0,0.0,0.0,0.0,0.0,0.0,0.0,0.0,0.0,0.0,0.0,0.0,0.0,0.0,0.0,0.0,0.0,0.0,0.0,0.0,0.0,0.0,0.0,0.0,0.0,0.0,0.0,0.0,0.0,0.0,0.0,0.0,0.0,0.0,0.0,0.0,0.0,0.0,0.0,0.0,0.0,0.0,0.0,0.0,0.0,0.0,0.0,0.0,0.0,0.0,0.0,0.0,0.0,0.0,0.0,0.0,0.0,0.0,0.0,0.0,0.0,0.0,0.0,0.0,0.0,0.0,0.0,0.0,0.0,0.0,0.0,0.0,0.0,0.0,0.0,0.0,0.0,0.0,0.0,0.0,0.0,0.0,0.0,0.0,0.0,0.0,0.0,0.0,0.0,0.0,0.0,0.0,0.0,0.0,0.0,0.0,0.0,0.0,0.0,0.0,0.0,0.0,0.0,0.0,0.0,0.0,0.0,0.0,0.0,0.0,0.0,0.0,0.0,0.0,0.0,0.0,0.0,0.0,0.0,0.0,0.0,0.0,0.0,0.0,0.0,0.0,0.0,0.0,0.0,0.0,0.0,0.0,0.0,0.0,0.0,0.0,0.0,0.0,0.0,0.0,0.0,0.0,0.0,0.0,0.0,0.0,0.0,0.0,0.0,0.0,0.0,0.0,0.0,0.0,0.0,0.0,0.0,0.0,0.0,0.0,0.0,0.0,0.0,0.0,0.0,0.0,0.0,0.0,0.0,0.0,0.0,0.0,0.0,0.0,0.0,0.0,0.0,0.0,0.0,0.0,0.0,0.0,0.0,0.0,0.0,0.0,0.0,0.0,0.0,0.0,0.0,0.0,0.0,0.0,0.0,0.0,0.0,0.0,0.0,0.0,0.0,0.0,0.0,0.0,0.0,0.0,0.0,0.0,0.0,0.0,0.0,0.0,0.0,0.0,0.0,0.0,0.0,0.0,0.0,0.0,0.0,0.0,0.0,0.0,0.0,0.0,0.0,0.0,0.0,0.0,0.0,0.0,0.0,0.0,0.0,0.0,0.0,0.0,0.0,0.0,0.0,0.0,0.0,0.0,0.0,0.0,0.0,0.0,0.0,0.0,0.0,0.0,0.0,0.0,0.0,0.0,0.0,0.0,0.0,0.0,0.0,0.0,0.0,0.0,0.0,0.0,0.0,0.0,0.0,0.0,0.0,0.0,0.0,0.0,0.0,0.0,0.0,0.0,0.0,0.0,0.0,0.0,0.0,0.0,0.0,0.0,0.0,0.0,0.0,0.0,0.0,0.0,0.0,0.0,0.0,0.0,0.0,0.0,0.0,0.0,0.0,0.0,0.0,0.0,0.0,0.0,0.0,0.0,0.0,0.0,0.0,0.0,0.0,0.0,0.0,0.0,0.0,0.0,0.0,0.0,0.0,0.0,0.0,0.0,0.0,0.0,0.0,0.0,0.0,0.0,0.0,0.0,0.0,0.0,0.0,0.0,0.0,0.0,0.0,0.0,0.0,0.0,0.0,0.0,0.0,0.0,0.0,0.0,0.0,0.0,0.0,0.0,0.0,0.0,0.0,0.0,0.0,0.0,0.0,0.0,0.0,0.0,0.0,0.0,0.0,0.0,0.0,0.0,0.0,0.0,0.0,0.0,0.0,0.0,0.0,0.0,0.0,0.0,0.0,0.0,0.0,0.0,0.0,0.0,0.0,0.0,0.0,0.0,0.0,0.0,0.0,0.0,0.0,0.0,0.0,0.0,0.0,0.0,0.0,0.0,0.0,0.0,0.0,0.0,0.0,0.0,0.0,0.0,0.0,0.0,0.0,0.0,0.0,0.0,0.0,0.0,0.0,0.0,0.0,0.0,0.0,0.0,0.0,0.0,0.0,0.0,0.0,0.0,0.0,0.0,0.0,0.0,0.0,0.0,0.0,0.0,0.0,0.0,0.0,0.0,0.0,0.0,0.0,0.0,0.0,0.0,0.0,0.0,0.0,0.0,0.0,0.0,0.0,0.0,0.0,0.0,0.0,0.0,0.0,0.0,0.0,0.0,0.0,0.0,0.0,0.0,0.0,0.0,0.0,0.0,0.0,0.0,0.0,0.0,0.0,0.0,0.0,0.0,0.0,0.0,0.0,0.0,0.0,0.0,0.0,0.0,0.0,0.0,0.0,0.0,0.0,0.0,0.0,0.0,0.0,0.0,0.0,0.0,0.0,0.0,0.0,0.0,0.0,0.0,0.0,0.0,0.0,0.0,0.0,0.0,0.0,0.0,0.0,0.0,0.0,0.0,0.0,0.0,0.0,0.0,0.0,0.0,0.0,0.0,0.0,0.0,0.0,0.0,0.0,0.0,0.0,0.0,0.0,0.0,0.0,0.0,0.0,0.0,0.0,0.0,0.0,0.0,0.0,0.0,0.0,0.0,0.0,0.0,0.0,0.0,0.0,0.0,0.0,0.0,0.0,0.0,0.0,0.0,0.0,0.0,0.0,0.0,0.0,0.0,0.0,0.0,0.0,0.0,0.0,0.0,0.0,0.0,0.0,0.0,0.0,0.0,0.0,0.0,0.0,0.0,0.0,0.0,0.0,0.0,0.0,0.0,0.0,0.0,0.0,0.0,0.0,0.0,0.0,0.0,0.0,0.0,0.0,0.0,0.0,0.0,0.0,0.0,0.0,0.0,0.0,0.0,0.0,0.0,0.0,0.0,0.0,0.0,0.0,0.0,0.0,0.0,0.0,0.0,0.0,0.0,0.0,0.0,0.0,0.0,0.0,0.0,0.0,0.0,0.0,0.0,0.0,0.0,0.0,0.0,0.0,0.0,0.0,0.0,0.0,0.0,0.0,0.0,0.0,0.0,0.0,0.0,0.0,0.0,0.0,0.0,0.0,0.0,0.0,0.0,0.0,0.0,0.0,0.0,0.0,0.0,0.0,0.0,0.0,0.0,0.0,0.0,0.0,0.0,0.0,0.0,0.0,0.0,0.0,0.0,0.0,0.0,0.0,0.0,0.0,0.0,0.0,0.0,0.0,0.0,0.0,0.0,0.0,0.0,0.0,0.0,0.0,0.0,0.0,0.0,0.0,0.0,0.0,0.0,0.0,0.0,0.0,0.0,0.0,0.0,0.0,0.0,0.0,0.0,0.0,0.0,0.0,0.0,0.0,0.0,0.0,0.0,0.0,0.0,0.0,0.0,0.0,0.0,0.0,0.0,0.0,0.0,0.0,0.0,0.0,0.0,0.0,0.0,0.0,0.0,0.0,0.0,0.0,0.0,0.0,0.0,0.0,0.0,0.0,0.0,0.0,0.0,0.0,0.0,0.0,0.0,0.0,0.0,0.0,0.0,0.0,0.0,0.0,0.0,0.0,0.0,0.0,0.0,0.0,0.0,0.0,0.0,0.0,0.0,0.0,0.0,0.0,0.0,0.0,0.0,0.0,0.0,0.0,0.0,0.0,0.0,0.0,0.0,0.0,0.0,0.0,0.0,0.0,0.0,0.0,0.0,0.0,0.0,0.0,0.0,0.0,0.0,0.0,0.0,0.0,0.0,0.0,0.0,0.0,0.0,0.0,0.0,0.0,0.0,0.0,0.0,0.0,0.0,0.0,0.0,0.0,0.0,0.0,0.0,0.0,0.0,0.0,0.0,0.0,0.0,0.0,0.0,0.0,0.0,0.0,0.0,0.0,0.0,0.0,0.0,0.0,0.0,0.0,0.0,0.0,0.0,0.0,0.0,0.0,0.0,0.0,0.0,0.0,0.0,0.0,0.0,0.0,0.0,0.0,0.0,0.0,0.0,0.0,0.0,0.0,0.0,0.0,0.0,0.0,0.0,0.0,0.0,0.0,0.0,0.0,0.0,0.0,0.0,0.0,0.0,0.0,0.0,0.0,0.0,0.0,0.0,0.0,0.0,0.0,0.0,0.0,0.0,0.0,0.0,0.0,0.0,0.0,0.0,0.0,0.0,0.0,0.0,0.0,0.0,0.0,0.0,0.0,0.0,0.0,0.0,0.0,0.0,0.0,0.0,0.0,0.0,0.0,0.0,0.0,0.0,0.0,0.0,0.0,0.0,0.0,0.0,0.0,0.0,0.0,0.0,0.0,0.0,0.0,0.0,0.0,0.0,0.0,0.0,0.0,0.0,0.0,0.0,0.0,0.0,0.0,0.0,0.0,0.0,0.0,0.0,0.0,0.0,0.0,0.0,0.0,0.0,0.0,0.0,0.0,0.0,0.0,0.0,0.0,0.0,-3.4162,-3.4405,0.0,0.0,0.0,0.0,0.0,0.0,0.0,0.0,0.0,0.0,0.0,0.0,0.0,0.0,0.0,0.0,0.0,0.0,0.0,0.0,0.0,0.0,0.0,0.0,0.0,0.0,0.0,0.0,0.0,0.0,0.0,0.0,0.0,0.0,0.0,0.0,0.0,0.0,-2.0814,-2.2178,-2.3981,-2.5244,-2.6183,-2.6859,0.0,0.0,0.0,0.0,0.0,0.0,0.0,0.0,0.0,0.0,0.0,0.0,0.0,0.0,0.0,0.0,0.0,0.0,0.0,0.0,0.0,0.0,0.0,0.0,0.0,0.0,0.0,0.0,0.0,0.0,0.0,0.0,0.0,0.0,0.0,0.0,0.0,0.0,0.0,0.0,0.0,0.0,0.0,0.0,0.0,0.0,0.0,0.0,0.0,0.0,0.0,0.0,0.0,0.0,0.0,0.0,0.0,0.0,0.0,0.0,0.0,0.0,0.0,0.0,0.0,0.0,0.0,0.0,0.0,0.0,-3.3444,-3.384,0.0,0.0,0.0,0.0,0.0,0.0,0.0,0.0,0.0,0.0,0.0,0.0,0.0,0.0,0.0,0.0,0.0,0.0,0.0,0.0,0.0,0.0,0.0,0.0,0.0,0.0,0.0,0.0,0.0,0.0,0.0,0.0,0.0,0.0,0.0,0.0,0.0,0.0,-2.1524,-2.3632,-2.6694,-2.7908,-2.8183,-2.7693,-2.8522,0.0,0.0,0.0,0.0,0.0,0.0,0.0,0.0,0.0,0.0,0.0,0.0,0.0,0.0,0.0,0.0,0.0,0.0,0.0,0.0,0.0,0.0,0.0,0.0,0.0,0.0,0.0,0.0,0.0,0.0,0.0,0.0,0.0,0.0,0.0,0.0,0.0,0.0,0.0,0.0,0.0,0.0,0.0,0.0,0.0,0.0,0.0,0.0,0.0,0.0,0.0,0.0,0.0,0.0,0.0,0.0,0.0,0.0,0.0,0.0,0.0,0.0,0.0,-3.4171,-3.3791,-3.2472,-3.3115,-3.3574,-3.3846,-3.3059,-3.3471,-3.4874,-3.5427,0.0,0.0,0.0,0.0,0.0,0.0,0.0,0.0,0.0,0.0,0.0,0.0,0.0,0.0,0.0,0.0,0.0,0.0,0.0,0.0,0.0,-1.8535,-1.8559,-1.9426,-1.866,-1.8274,0.0,0.0,0.0,0.0,0.0,0.0,0.0,-2.0273,-2.0599,-2.0735,-2.3117,-2.5228,-2.7086,-2.9016,-2.9491,-2.8727,-2.9314,-2.9993,-3.0651,0.0,0.0,0.0,0.0,0.0,0.0,0.0,0.0,0.0,0.0,0.0,0.0,0.0,0.0,0.0,0.0,0.0,0.0,0.0,0.0,0.0,0.0,0.0,0.0,0.0,0.0,0.0,0.0,0.0,0.0,0.0,0.0,0.0,0.0,0.0,0.0,0.0,0.0,0.0,0.0,0.0,-3.2969,-3.4886,0.0,0.0,0.0,0.0,0.0,0.0,0.0,0.0,0.0,0.0,0.0,0.0,0.0,-3.3416,-3.2277,-3.3069,-3.3613,-3.3911,-3.417,-3.4059,-3.3476,-3.3635,-3.3496,-3.3255,-3.3577,0.0,-3.4315,-3.5283,0.0,0.0,0.0,0.0,0.0,0.0,0.0,0.0,0.0,0.0,0.0,0.0,0.0,0.0,0.0,0.0,0.0,0.0,0.0,0.0,0.0,-1.8939,-1.9244,-1.9939,-1.9576,-1.9445,-1.9844,0.0,0.0,0.0,0.0,0.0,-1.9711,-2.0212,-2.1237,-2.2761,-2.5507,-2.7307,-2.8262,-2.9691,-3.0098,-2.9658,-3.03,-3.0529,-3.0385,-3.0443,0.0,0.0,0.0,0.0,0.0,0.0,0.0,0.0,0.0,0.0,0.0,0.0,0.0,0.0,0.0,0.0,0.0,0.0,0.0,0.0,0.0,0.0,0.0,0.0,0.0,0.0,0.0,0.0,0.0,0.0,0.0,0.0,0.0,0.0,0.0,0.0,0.0,0.0,0.0,-3.0673,-3.3287,-3.5254,-3.531,-3.4964,0.0,0.0,0.0,0.0,0.0,0.0,0.0,0.0,0.0,-3.3933,-3.4167,-3.4277,-3.4225,-3.455,-3.4719,-3.4763,-3.4794,-3.462,-3.4289,-3.4289,-3.4348,-3.4462,-3.4399,-3.4348,-3.4463,-3.4825,-3.4778,-3.4455,0.0,0.0,0.0,0.0,-3.5995,-3.5451,0.0,0.0,0.0,0.0,0.0,0.0,0.0,0.0,0.0,0.0,0.0,0.0,-1.8817,-1.9185,-1.9733,-2.0536,-2.0606,-2.0798,-2.122,-2.0936,0.0,0.0,0.0,-2.0434,-2.005,-2.0861,-2.2622,-2.5341,-2.7554,-2.8899,-2.945,-3.0322,-3.0486,-3.0108,-3.1021,-3.1066,-3.0524,-3.1074,-3.1213,-3.1088,0.0,0.0,0.0,0.0,0.0,0.0,0.0,0.0,0.0,0.0,0.0,0.0,0.0,0.0,0.0,0.0,0.0,0.0,0.0,0.0,0.0,0.0,0.0,0.0,0.0,0.0,0.0,0.0,0.0,0.0,0.0,0.0,0.0,0.0,0.0,0.0,0.0,-3.2443,-3.3984,-3.5394,-3.5514,-3.5256,0.0,0.0,0.0,0.0,0.0,0.0,-3.4966,-3.4775,-3.4786,-3.4934,-3.4893,-3.5078,-3.5489,-3.5562,-3.5473,-3.5305,-3.5249,-3.5058,-3.4926,-3.4788,-3.4951,-3.5316,-3.4901,-3.4726,-3.4715,-3.4588,-3.4654,-3.4867,-3.5088,-3.51,-3.5139,-3.6232,-3.5879,-3.4986,0.0,0.0,0.0,0.0,0.0,0.0,0.0,0.0,0.0,0.0,0.0,-1.7747,-1.8779,-1.8873,-1.9536,-2.1299,-2.1595,-2.2019,-2.2746,-2.2355,-2.1987,-2.1703,-2.1545,-2.1287,-2.0926,-2.2907,-2.5328,-2.8177,-2.8725,-2.9434,-3.0345,-3.1021,-3.0772,-2.9789,-3.1162,-3.1895,-3.2091,-3.2107,-3.2594,-3.3295,-3.291,0.0,0.0,0.0,0.0,0.0,0.0,0.0,0.0,0.0,0.0,0.0,0.0,0.0,0.0,0.0,0.0,0.0,0.0,0.0,0.0,0.0,0.0,0.0,0.0,0.0,0.0,0.0,0.0,0.0,0.0,0.0,0.0,0.0,0.0,0.0,0.0,0.0,0.0,-3.6025,-3.6296,0.0,0.0,0.0,0.0,-3.4509,-3.5196,-3.5352,-3.4779,-3.4796,-3.4754,-3.455,-3.5007,-3.4881,-3.4047,-3.4527,-3.5005,-3.5454,-3.5017,-3.4977,-3.5399,-3.4964,-3.4738,-3.4763,-3.4726,-3.4726,-3.4715,-3.4588,-3.4835,-3.5266,-3.5723,-3.6098,-3.6409,-3.649,-3.6084,-3.5479,0.0,0.0,0.0,0.0,0.0,0.0,0.0,0.0,0.0,-1.8968,-1.8574,-1.8496,-1.8855,-1.936,-2.0104,-2.1101,-2.201,-2.2775,-2.3249,-2.3246,-2.3088,-2.2782,-2.2534,-2.2583,-2.3005,-2.467,-2.6512,-2.8521,-2.9479,-3.0165,-3.053,-3.0681,-3.038,-2.9751,-3.0956,-3.1638,-3.1948,-3.1764,-3.2061,-3.2712,-3.3147,-3.333,0.0,0.0,0.0,0.0,0.0,0.0,0.0,0.0,0.0,0.0,0.0,0.0,0.0,0.0,0.0,0.0,0.0,0.0,0.0,0.0,0.0,0.0,0.0,0.0,0.0,0.0,0.0,0.0,0.0,0.0,0.0,0.0,0.0,0.0,0.0,0.0,0.0,-3.5877,-3.6021,0.0,-3.5722,-3.5929,-3.5919,-3.5474,-3.6134,-3.6143,-3.5135,-3.5156,-3.5169,-3.5124,-3.5353,-3.5466,-3.5479,-3.568,-3.5868,-3.6056,-3.5516,-3.5353,-3.5437,-3.4977,-3.4726,-3.47,-3.4349,-3.4198,-3.4135,-3.3789,-3.4462,-3.5866,-3.6319,-3.6746,-3.703,-3.6626,-3.6342,-3.6133,0.0,0.0,0.0,0.0,0.0,0.0,0.0,0.0,-1.9566,-1.9207,-1.8855,-1.8765,-1.9132,-1.9632,-2.0258,-2.1101,-2.2375,-2.3303,-2.3637,-2.3895,-2.3897,-2.3551,-2.3562,-2.3871,-2.4567,-2.5912,-2.7137,-2.823,-2.91,-2.9547,-2.9589,-2.9606,-2.9509,-2.9336,-3.0255,-3.096,-3.1516,-3.1622,-3.22,-3.3109,-3.3827,-3.3957,-3.3829,0.0,0.0,0.0,0.0,0.0,0.0,0.0,0.0,0.0,0.0,0.0,0.0,0.0,0.0,0.0,0.0,0.0,0.0,0.0,0.0,0.0,0.0,0.0,0.0,0.0,0.0,0.0,0.0,0.0,0.0,0.0,0.0,0.0,0.0,-3.5193,-3.5391,-3.5398,-3.5554,-3.5626,-3.5483,-3.6308,-3.6613,-3.6087,-3.6861,-3.6795,-3.5435,-3.5541,-3.5737,-3.5793,-3.5818,-3.5994,-3.6358,-3.6358,-3.6358,-3.6358,-3.5805,-3.5542,-3.5516,-3.4776,-3.4449,-3.4412,-3.3859,-3.3621,-3.3596,-3.3623,-3.4664,-3.6184,-3.6479,-3.6954,-3.736,-3.6941,-3.6522,-3.6148,0.0,0.0,0.0,0.0,0.0,0.0,0.0,-1.969,-1.969,-1.969,-1.8765,-1.8496,-1.953,-1.9489,-1.9928,-2.1299,-2.2646,-2.3578,-2.3894,-2.4282,-2.4353,-2.4044,-2.4622,-2.5132,-2.5514,-2.6628,-2.7296,-2.7503,-2.7573,-2.7595,-2.7592,-2.7934,-2.8221,-2.8485,-2.9101,-2.9925,-3.0922,-3.1789,-3.3147,-3.4696,-3.4999,-3.5166,-3.5281,0.0,0.0,0.0,0.0,0.0,0.0,0.0,0.0,0.0,0.0,0.0,0.0,0.0,0.0,0.0,0.0,0.0,0.0,0.0,0.0,0.0,0.0,0.0,0.0,0.0,0.0,0.0,0.0,0.0,0.0,0.0,0.0,0.0,-3.8247,-3.7425,-3.634,-3.4695,-3.501,-3.5175,-3.4721,-3.624,-3.699,-3.6262,-3.7348,-3.7286,-3.5684,-3.6069,-3.6358,-3.6358,-3.6358,-3.6358,-3.6358,-3.6358,-3.6358,-3.6358,-3.5793,-3.5516,-3.5479,-3.4374,-3.3872,-3.3847,-3.3307,-3.3081,-3.3154,-3.4191,-3.5278,-3.6198,-3.6212,-3.671,-3.7434,-3.7419,-3.6596,-3.5504,0.0,0.0,0.0,0.0,0.0,0.0,0.0,-1.969,-1.9566,-1.9169,-1.8855,-1.865,-1.8535,-1.8806,-1.9119,-1.9501,-2.1134,-2.2159,-2.226,-2.3576,-2.4418,-2.4569,-2.5299,-2.5833,-2.6151,-2.6935,-2.7435,-2.7653,-2.7531,-2.7452,-2.7463,-2.7509,-2.7447,-2.738,-2.833,-2.9245,-3.0162,-3.113,-3.2641,-3.4374,-3.489,-3.557,-3.6309,0.0,0.0,0.0,0.0,0.0,0.0,0.0,0.0,0.0,0.0,0.0,0.0,0.0,0.0,0.0,0.0,0.0,0.0,0.0,0.0,0.0,0.0,0.0,0.0,0.0,0.0,0.0,0.0,0.0,0.0,0.0,-3.8977,-3.9362,-3.7491,-3.7785,-3.7733,-3.6481,-3.733,-3.8121,-3.8385,-3.9253,-3.9748,-3.9496,-3.8612,-3.7873,-3.7443,-3.6714,-3.6358,-3.6358,-3.6358,-3.6358,-3.6358,-3.6358,-3.6358,-3.6358,-3.5403,-3.4951,-3.4914,-3.3809,-3.3307,-3.3294,-3.3144,-3.3081,-3.3167,-3.3398,-3.4568,-3.629,-3.7021,-3.7695,-3.8063,-3.7584,-3.6596,-3.5504,0.0,0.0,0.0,0.0,0.0,0.0,0.0,-1.969,-1.953,-1.8968,-1.8688,-1.8458,-1.8145,-1.8074,-1.8264,-1.874,-1.9867,-2.0703,-2.1193,-2.2888,-2.41,-2.4611,-2.5608,-2.6106,-2.5976,-2.6651,-2.6846,-2.6566,-2.6313,-2.6197,-2.6197,-2.6407,-2.6484,-2.6431,-2.7395,-2.8154,-2.8853,-3.0217,-3.1451,-3.262,-3.4117,-3.5522,-3.6719,-3.6781,-3.7467,-3.8391,-3.863,-3.9165,-3.9664,-3.9218,0.0,0.0,0.0,0.0,0.0,0.0,0.0,0.0,0.0,0.0,0.0,0.0,0.0,0.0,0.0,0.0,0.0,0.0,0.0,0.0,0.0,0.0,0.0,0.0,-4.0717,-4.0913,-3.9211,-3.9595,-3.9816,-3.944,-4.0065,-4.0748,-4.1005,-4.1589,-4.1694,-4.1183,-4.0196,-3.917,-3.8134,-3.7507,-3.6883,-3.6452,-3.6132,-3.6019,-3.6019,-3.5793,-3.5667,-3.5667,-3.4788,-3.4374,-3.4349,-3.347,-3.3081,-3.3081,-3.3081,-3.3081,-3.3142,-3.3301,-3.4294,-3.5839,0.0,0.0,0.0,0.0,-3.6148,-3.5504,0.0,0.0,0.0,0.0,0.0,0.0,0.0,-1.969,-1.9479,-1.8893,-1.8419,-1.8066,-1.7947,-1.733,-1.7357,-1.8436,-1.8695,-1.9334,-2.0623,-2.2312,-2.3567,-2.4284,-2.5665,-2.6089,-2.541,-2.6054,-2.5945,-2.501,-2.4678,-2.4526,-2.4547,-2.506,-2.5393,-2.5609,-2.6376,-2.6892,-2.7267,-2.9131,-2.9999,-3.036,-3.291,-3.4955,-3.6541,-3.6714,-3.763,-3.8897,-3.9732,-4.0492,-4.1092,-4.1092,0.0,0.0,0.0,0.0,0.0,0.0,0.0,0.0,0.0,0.0,0.0,0.0,0.0,0.0,0.0,0.0,0.0,0.0,0.0,0.0,0.0,0.0,0.0,0.0,-4.3201,-4.3666,-4.2698,-4.2602,-4.2654,-4.2581,-4.2815,-4.2981,-4.2981,-4.3505,-4.3296,-4.214,-4.1911,-4.0817,-3.8599,-3.8198,0.0,0.0,0.0,-3.5604,-3.5542,-3.5064,-3.4776,-3.4713,-3.4161,-3.3897,-3.3872,-3.3257,-3.298,-3.298,-3.2918,-3.3003,-3.3174,-3.3476,-3.4283,-3.5301,-3.5377,-3.6171,-3.7165,-3.5953,-3.5504,-3.5504,0.0,0.0,0.0,0.0,0.0,0.0,0.0,-1.969,-1.9369,-1.838,-1.8185,-1.7787,-1.6909,-1.6262,-1.6164,-1.6883,-1.7276,-1.8378,-2.056,-2.2134,-2.3238,-2.3804,-2.5479,-2.6088,-2.5405,-2.6067,-2.5937,-2.501,-2.4842,-2.4746,-2.4746,-2.4694,-2.4684,-2.4773,-2.5393,-2.5893,-2.6367,-2.8077,-2.9394,-3.0451,-3.1686,-3.347,-3.5553,-3.6854,-3.8194,-3.9513,-4.0052,-4.136,-4.2838,-4.2825,-4.3525,-4.4266,-4.367,-4.3431,0.0,0.0,0.0,0.0,0.0,0.0,0.0,0.0,0.0,0.0,0.0,0.0,0.0,0.0,0.0,0.0,0.0,0.0,0.0,-4.3449,-4.4915,-4.6206,-4.7018,-4.7557,-4.6619,-4.3088,-4.4004,-4.4838,-4.4838,-4.5434,-4.543,-4.4634,-4.3284,-4.1953,-4.1014,-3.9156,-3.803,-3.7756,-3.6794,-3.5994,-3.5542,-3.5441,-3.5165,-3.4713,-3.4161,0.0,-3.3872,-3.2842,-3.2378,-3.2353,-3.1913,-3.2516,-3.3655,-3.3159,-3.3791,-3.5082,-3.5901,-3.6408,-3.6567,-3.5789,-3.5504,-3.5504,0.0,0.0,0.0,0.0,0.0,0.0,0.0,-1.953,-1.9406,-1.8612,-1.8263,-1.7787,-1.6993,-1.6114,-1.582,-1.6436,-1.6928,-1.7926,-1.9637,-2.1134,-2.2371,-2.3308,-2.4736,-2.5443,-2.5309,-2.556,-2.5486,-2.5056,-2.4872,-2.4804,-2.4804,-2.47,-2.4654,-2.4657,-2.4955,-2.5206,-2.5521,-2.7304,-2.8417,-2.9161,-3.0982,-3.2541,-3.3999,-3.5812,-3.787,-3.9892,-4.0566,-4.1876,-4.3366,-4.3787,-4.4735,-4.5633,-4.5398,-4.5438,-4.5278,0.0,0.0,0.0,0.0,0.0,0.0,0.0,0.0,0.0,0.0,0.0,0.0,0.0,0.0,-4.3504,-4.3996,0.0,-4.5673,-4.6624,-4.7248,-4.7893,-4.8762,-4.916,-4.8685,-4.6765,-4.7326,-4.7905,-4.7905,-4.8173,-4.7685,-4.6203,-4.5278,-4.3671,-4.1266,-3.9792,-3.8604,-3.7595,-3.6286,-3.5403,-3.514,-3.4587,-3.4173,-3.3884,-3.3319,-3.3056,-3.3031,-3.2651,-3.2255,-3.187,-3.2512,-3.3001,-3.3357,-3.3696,-3.4355,-3.5272,-3.5785,-3.5998,-3.5953,-3.5624,-3.5504,-3.5504,0.0,0.0,0.0,0.0,0.0,0.0,0.0,0.0,-1.9207,-1.865,-1.8224,-1.7747,-1.7188,-1.6232,-1.582,-1.6281,-1.6938,-1.7639,-1.8464,-1.9847,-2.1204,-2.2422,-2.3593,-2.4466,-2.4936,-2.5015,-2.5078,-2.5164,-2.5022,-2.4921,-2.4921,-2.4883,-2.4855,-2.4851,-2.4837,-2.4842,-2.5007,-2.6858,-2.7656,-2.7931,-3.0458,-3.1935,-3.2798,-3.4433,-3.6977,-3.9791,-4.0627,-4.1923,-4.3347,-4.4373,-4.5394,-4.6271,-4.6615,-4.6952,-4.6876,-4.5126,-4.5124,0.0,0.0,0.0,0.0,0.0,0.0,0.0,0.0,-4.3118,-4.3239,-4.4339,-4.5178,-4.6229,-4.7925,-4.847,-4.9081,-5.0455,-5.0088,-4.9826,-5.0528,-5.0451,-5.0648,-5.1312,-5.0806,-5.0397,-5.0397,-5.0285,-4.9372,-4.7355,-4.6718,-4.4985,-4.1433,-4.0167,-3.8888,-3.7356,-3.5622,-3.4753,-3.4806,-3.3658,-3.3262,-3.3546,-3.2483,-3.2122,-3.2345,-3.254,-3.2201,-3.1614,-3.3585,-3.3882,-3.3127,-3.464,-3.5307,-3.5504,-3.5504,-3.5504,-3.5504,-3.5504,-3.5504,-3.5504,0.0,0.0,0.0,0.0,0.0,0.0,0.0,0.0,0.0,-1.7544,-1.7422,-1.7188,-1.6637,-1.5996,-1.5632,-1.5676,-1.6672,-1.7353,-1.7463,-1.8664,-1.9752,-2.058,-2.2074,-2.3279,-2.4036,-2.4793,-2.525,-2.5364,-2.5401,-2.5378,-2.532,-2.5205,-2.5118,-2.505,-2.4936,-2.4988,-2.5267,-2.703,-2.7892,-2.8206,-3.0006,-3.1691,-3.3159,-3.3365,-3.5539,-3.8603,-3.941,-4.1037,-4.3008,-4.4592,-4.5488,-4.6223,-4.778,-4.8279,-4.7991,-4.6225,-4.5819,-4.5541,-4.3609,-4.3205,-4.3698,-4.5112,-4.4823,-4.528,0.0,-4.9131,-4.8242,-4.9146,-5.0505,-5.1359,-5.0641,-5.1669,-5.2942,-5.3916,-5.3394,-5.337,-5.4782,-5.4396,-5.4198,-5.501,-5.2327,-5.0397,-5.0397,-4.9837,-4.9058,-4.8201,-4.621,-4.4582,-4.3479,-4.0198,-3.8172,-3.7978,-3.5833,-3.4908,-3.5385,-3.3862,-3.3778,-3.5063,-3.2597,-3.1937,-3.2751,-3.233,-3.2067,-3.2067,-3.4038,-3.4538,-3.3982,-3.5672,-3.6022,-3.5504,-3.5504,-3.5504,-3.5504,-3.5504,-3.5504,-3.5504,0.0,0.0,0.0,0.0,0.0,0.0,0.0,0.0,0.0,0.0,-1.8419,-1.8145,-1.7907,-1.7107,-1.6574,-1.6574,-1.6727,-1.6659,-1.6236,-1.7303,-1.8003,-1.8021,-2.0027,-2.1603,-2.2609,-2.37,-2.4583,-2.5232,-2.521,-2.5252,-2.534,-2.5282,-2.5245,-2.521,-2.5154,-2.5181,-2.5376,-2.7128,-2.8174,-2.8821,-3.0555,-3.2255,-3.378,-3.377,-3.5281,-3.748,-3.846,-3.9637,0.0,-4.2797,-4.3808,-4.4645,-4.6423,-4.6997,-4.6756,-4.5562,-4.5912,-4.6532,-4.5809,-4.5195,-4.5054,-4.6234,-4.7356,-4.8605,-5.0302,-5.0462,-5.057,-5.167,-5.2239,-5.2586,-5.2638,-5.2951,-5.3365,-5.3797,-5.3545,-5.3563,-5.4217,-5.4022,-5.3952,-5.427,-5.3004,-5.2269,-5.2759,-5.252,-5.122,-4.868,-4.6792,-4.4644,-4.2109,-3.9396,-3.7656,-3.7289,-3.5764,-3.5003,-3.5238,-3.426,-3.4084,-3.4664,-3.3288,-3.2764,-3.3117,-3.3183,-3.3494,-3.4084,-3.4278,-3.4574,-3.4935,-3.5642,-3.5744,-3.5504,-3.5504,-3.5504,-3.5504,-3.5504,-3.5504,-3.5504,0.0,0.0,0.0,0.0,0.0,0.0,0.0,0.0,0.0,0.0,0.0,-1.8688,-1.8688,-1.7987,-1.7463,-1.7312,-1.6769,0.0,0.0,-1.5476,-1.5689,-1.5303,-1.7354,-1.9136,-2.0539,-2.2136,-2.3427,-2.437,-2.4689,-2.4968,-2.5147,-2.5225,-2.5295,-2.5348,-2.5519,-2.56,-2.5717,-2.7381,-2.8564,-2.9458,-3.0936,-3.2544,-3.4035,-3.4035,-3.4792,-3.602,-3.7124,-3.8183,-3.9262,-4.0579,-4.1549,-4.2483,-4.4036,-4.469,-4.4763,-4.4158,-4.5002,-4.6206,-4.6482,-4.6248,-4.6169,-4.7197,-4.9054,-5.0584,-5.0486,-5.1132,-5.2005,-5.2972,-5.3353,-5.3663,-5.4266,-5.432,-5.4228,-5.4285,-5.4097,-5.4025,-5.4242,-5.3899,-5.37,-5.3917,-5.386,-5.3832,-5.3957,-5.3709,-5.2201,-4.8916,-4.6925,-4.4341,-4.0943,-3.8695,-3.7199,-3.6501,-3.5412,-3.503,-3.5336,-3.4499,-3.4195,-3.4478,-3.3619,-3.3183,-3.317,-3.3731,-3.4543,-3.5439,-3.4758,-3.4839,-3.5504,-3.5504,-3.5504,-3.5504,-3.5504,-3.5504,-3.5504,-3.5504,-3.5504,-3.5504,0.0,0.0,0.0,0.0,0.0,0.0,0.0,0.0,0.0,0.0,0.0,0.0,0.0,-1.8106,-1.7867,-1.7353,-1.6744,0.0,0.0,-1.303,-1.2651,-1.255,-1.3878,-1.562,-1.7702,-2.0123,-2.1774,-2.2593,-2.388,-2.4569,-2.4725,-2.5043,-2.527,-2.5437,-2.6078,-2.6384,-2.6459,-2.7951,-2.9072,-2.9945,-3.0771,-3.2107,-3.3619,-3.3619,-3.3696,-3.3955,-3.5142,-3.6735,-3.8242,-3.8302,-3.8941,-3.9877,-4.0779,-4.1637,-4.2279,-4.222,-4.2817,-4.3734,-4.4704,-4.5468,-4.6423,-4.8202,-4.9255,-5.0125,-5.1201,-5.2123,-5.2832,-5.3135,-5.449,-5.5621,-5.5626,-5.6271,-5.6783,-5.6801,-5.6124,-5.5913,-5.6688,-5.5409,-5.4675,-5.5431,-5.5193,-5.4314,-5.2717,-5.1672,-5.047,-4.9014,-4.6037,-4.3298,-4.113,-3.8448,-3.6689,-3.5985,-3.4845,-3.4845,-3.5841,-3.4217,-3.3968,-3.4977,-3.3353,-3.2621,-3.2635,-3.3602,-3.4543,-3.5504,-3.5439,-3.5439,-3.5504,-3.5504,-3.5504,-3.5504,-3.5504,-3.5504,-3.5504,-3.5504,-3.5504,-3.5504,0.0,0.0,0.0,0.0,0.0,0.0,0.0,0.0,0.0,0.0,0.0,0.0,0.0,0.0,0.0,0.0,-1.7327,-1.5862,-1.3128,-1.274,-1.1801,-1.0039,-1.1107,-1.2552,-1.4252,-1.6282,-1.8205,-1.9986,-2.1238,-2.2299,-2.318,-2.3655,-2.43,-2.5091,-2.5298,-2.5964,-2.6935,-2.8015,-2.9544,-3.1256,-3.1623,-3.2705,-3.403,-3.3049,-3.2985,-3.3361,0.0,-3.3612,-3.5249,-3.5873,-3.6599,-3.7546,-3.9035,-3.9307,-3.9339,-4.0648,-4.1583,-4.2711,-4.4936,-4.6162,-4.7343,-4.9648,-5.0848,-5.1713,-5.2661,-5.3121,-5.3371,-5.3446,-5.2774,-5.2171,-5.2171,-5.2532,-5.2859,-5.2859,-5.4072,-5.5115,-5.5301,-5.4893,-5.4462,-5.4037,-5.3636,-5.2976,-5.1804,-5.2174,-5.1202,-4.811,-4.5638,-4.3059,-4.0304,-3.7949,-3.6375,-3.5651,-3.462,-3.4606,-3.5651,-3.3818,-3.3705,-3.5311,-3.4808,-3.4558,-3.4558,-3.4839,-3.5213,-3.5504,-3.5504,-3.5504,-3.5504,-3.5504,-3.5504,-3.5504,-3.5504,-3.5235,-3.4876,-3.534,-3.522,-3.4891,0.0,0.0,0.0,0.0,0.0,0.0,0.0,0.0,0.0,0.0,0.0,0.0,0.0,0.0,0.0,0.0,0.0,-1.604,-1.3144,-1.2301,-1.0855,-0.8403,-0.9271,-1.0344,-1.1491,-1.377,-1.5853,-1.7731,-1.9231,-2.064,-2.1908,-2.2586,-2.3453,-2.4436,-2.5141,-2.6111,-2.7282,-2.8301,-2.9615,-3.1044,-3.1153,-3.1786,-3.2634,-3.1691,-3.1572,0.0,-3.1002,-3.1456,-3.2629,-3.3792,-3.471,-3.5568,-3.6915,-3.7351,-3.7656,-3.9242,-4.0556,-4.212,-4.4932,-4.6399,-4.7699,-5.0002,-5.1232,-5.2045,-5.2584,-5.2962,-5.3092,-5.2749,-5.158,-5.0522,-5.0216,-5.0277,-5.0405,-5.0412,-5.1822,-5.3215,-5.4071,-5.3429,-5.2977,-5.3251,-5.2479,-5.1597,-5.074,-5.0947,-4.9986,-4.7211,-4.5046,-4.255,-3.9495,-3.761,-3.6275,-3.5504,-3.4543,-3.4312,-3.4986,-3.3394,-3.3394,-3.4986,-3.4624,-3.4854,-3.5504,-3.5504,-3.5504,-3.5504,-3.5504,-3.5504,-3.5489,-3.5235,-3.513,-3.5115,-3.4876,-3.4517,-3.4173,-3.4622,-3.4502,-3.4218,0.0,0.0,0.0,0.0,0.0,0.0,0.0,0.0,0.0,0.0,0.0,0.0,0.0,0.0,0.0,0.0,0.0,0.0,-1.3584,-1.1783,-0.9875,-0.7759,-0.8298,-0.8951,-0.9548,-1.2422,-1.4626,-1.5902,-1.7895,-1.9559,-2.094,-2.186,-2.2711,-2.3519,-2.539,-2.6621,-2.7368,-2.8574,-2.9221,-2.9386,-2.9353,-2.9429,-2.9597,-2.9563,-2.9505,-2.9517,-3.0103,-3.0333,-3.0577,-3.2114,-3.3268,-3.4162,-3.4682,-3.5953,-3.7404,-3.8177,-3.9816,-4.1972,-4.4589,-4.618,-4.7509,-4.9279,-5.0393,-5.1033,-5.0976,-5.166,-5.2009,-5.1016,-5.0734,-5.0413,-4.9547,-4.9469,-4.9569,-4.9567,-4.9773,-5.0779,-5.3246,-5.1357,-5.0623,-5.299,-5.1687,-5.0248,-4.9418,-4.8163,-4.7036,-4.6199,-4.417,-4.1728,-3.8784,-3.7313,-3.6259,-3.5444,-3.4499,-3.3955,-3.3926,-3.3003,-3.2933,-3.379,-3.2933,-3.3516,-3.5335,-3.54,-3.5429,-3.5444,-3.5415,-3.5429,-3.54,-3.4711,-3.4427,-3.4367,-3.38,-3.3531,-3.3501,-3.3592,-3.3592,-3.3652,0.0,0.0,0.0,0.0,0.0,0.0,0.0,0.0,0.0,0.0,0.0,0.0,0.0,0.0,0.0,0.0,0.0,0.0,-1.3797,-1.2665,-1.1004,-0.8508,-0.8088,-0.8187,-0.8912,0.0,0.0,-1.4882,-1.63,-1.8009,-1.9973,-2.0631,-2.1493,-2.2571,-2.3451,-2.4581,-2.5796,-2.6112,-2.6915,-2.7953,-2.7347,-2.7501,-2.8014,-2.7873,-2.818,-2.8637,-2.8767,-2.9188,-2.9848,-3.1188,-3.3243,-3.5367,-3.6454,-3.7896,-3.9285,-3.9666,-4.123,-4.3137,-4.472,-4.6033,-4.724,-4.8394,-4.8858,-4.9052,-4.913,-4.9341,-4.9282,-4.8427,-4.7204,-4.6033,-4.5171,-4.6558,-4.7844,-4.7832,-5.0612,-5.2955,-5.3518,-5.2461,-5.1585,-5.1549,-4.998,-4.8418,-4.7142,-4.6232,-4.5209,-4.3964,-4.2432,-4.0679,-3.8714,-3.7313,-3.6045,-3.482,-3.3842,-3.312,-3.2695,-3.1808,-3.1117,-3.0647,-3.1741,-3.2565,-3.3048,-3.3728,-3.4277,-3.4711,-3.4218,-3.4277,-3.4681,-3.4023,-3.3739,-3.3785,-3.4089,-3.3928,-3.3602,-3.4701,-3.4769,-3.4345,0.0,0.0,0.0,0.0,0.0,0.0,0.0,0.0,0.0,0.0,0.0,0.0,0.0,0.0,0.0,0.0,0.0,0.0,0.0,-1.3761,-1.2156,-1.0109,-0.9364,-0.9023,-0.9127,0.0,0.0,0.0,0.0,0.0,-1.9014,-1.9836,-2.0721,-2.1629,-2.2476,-2.3472,-2.4539,-2.4878,-2.529,0.0,0.0,-2.561,-2.5812,-2.5923,-2.6406,-2.7054,-2.7321,-2.8264,-2.9637,-3.1493,-3.3736,-3.5964,-3.7225,-3.8482,-3.9655,-4.0419,-4.181,-4.331,-4.4341,-4.562,-4.6761,-4.7278,-4.7857,-4.8137,-4.7469,-4.7357,-4.7059,-4.5844,-4.4513,-4.3408,-4.2912,-4.4312,-4.5665,-4.6033,-4.8527,-5.08,-5.1863,-5.0899,-5.0098,-5.0174,-4.8428,-4.6826,-4.5898,-4.4218,-4.2834,-4.2055,-4.1384,-4.0305,-3.8698,-3.707,-3.5646,-3.455,-3.3317,-3.2319,-3.1476,-3.073,-3.0392,-3.0663,-3.1264,-3.2012,-3.2819,-3.3285,-3.3694,-3.4023,-3.3649,-3.3709,-3.3993,-3.3335,-3.3216,-3.3513,-3.3598,-3.3621,-3.3637,-3.4425,-3.4473,-3.4174,0.0,0.0,0.0,0.0,0.0,0.0,0.0,0.0,0.0,0.0,0.0,0.0,0.0,0.0,0.0,0.0,0.0,0.0,0.0,0.0,0.0,0.0,-1.1314,-1.0738,-0.9987,-1.1679,-1.2993,-1.3941,-1.5548,-1.7015,0.0,0.0,0.0,0.0,0.0,0.0,0.0,0.0,-2.3854,-2.3338,-2.3875,-2.3767,-2.3412,0.0,0.0,0.0,-2.598,-2.7417,-2.9438,-3.1855,-3.4095,-3.6071,-3.754,-3.8545,-3.9481,-4.0899,-4.2036,-4.3007,-4.3781,-4.5025,-4.6062,-4.6062,-4.6967,-4.7376,-4.5685,-4.5391,-4.4985,-4.3265,-4.2305,-4.1745,-4.1629,-4.245,-4.3428,-4.4319,-4.5384,-4.6965,-4.9472,-4.8309,-4.7585,-4.8743,-4.6765,-4.5086,-4.4568,-4.1923,-4.0164,-3.994,-4.0092,-3.9578,-3.8274,-3.6358,-3.4973,-3.428,-3.2689,-3.1432,-3.0563,-2.9685,-3.0025,-3.169,-3.0942,-3.149,-3.3093,-3.3169,-3.3275,-3.3365,-3.3275,-3.323,-3.3185,-3.2721,-3.2752,-3.3098,-3.285,-3.2993,-3.3478,-3.3659,-3.3691,-3.3691,0.0,0.0,0.0,0.0,0.0,0.0,0.0,0.0,0.0,0.0,-1.7146,-1.7626,0.0,0.0,0.0,0.0,0.0,0.0,0.0,0.0,0.0,0.0,0.0,0.0,-1.1449,-1.2314,-1.3565,-1.5196,-1.6474,-1.7703,0.0,0.0,0.0,0.0,0.0,0.0,0.0,0.0,-2.135,-2.1258,-2.1822,-2.1946,-2.2027,0.0,0.0,0.0,-2.5315,-2.6486,-2.7968,-2.944,-3.2415,-3.5904,-3.8372,-3.9652,-4.0578,-4.2016,-4.2758,-4.3258,-4.385,-4.4458,-4.489,-4.489,-4.5073,-4.48,-4.3118,-4.2762,-4.2306,-4.0694,-4.022,-3.9916,-3.9174,-4.0574,-4.2125,-4.3069,-4.4793,-4.6698,-4.8648,-4.7881,-4.697,-4.6619,-4.4306,-4.2138,-4.0554,-3.8851,-3.7207,-3.5816,-3.5785,-3.5909,-3.6168,-3.4716,-3.3577,-3.2871,-3.1375,-3.0524,-3.034,-2.8948,-2.8697,-2.9561,-2.9553,-3.0021,-3.0858,-3.1545,-3.2168,-3.2647,-3.2108,-3.1884,-3.1869,-3.239,-3.1944,-3.1151,-3.2756,-3.3059,-3.2774,-3.3918,-3.4331,-3.4331,0.0,0.0,0.0,0.0,0.0,0.0,0.0,-1.5832,-1.6051,-1.6051,-1.6244,-1.6617,-1.7229,-1.7034,-1.6879,0.0,0.0,0.0,0.0,0.0,0.0,0.0,0.0,0.0,-1.3311,-1.3535,-1.4275,-1.5556,0.0,-1.7933,-1.8618,-1.9422,-1.9798,-1.9811,-2.0087,-2.0213,-2.0213,-2.0213,-2.0213,-2.0288,-2.1142,-2.1493,0.0,0.0,0.0,0.0,0.0,-2.5447,-2.6396,-2.7301,-2.9624,-3.2699,-3.6238,-3.7786,-3.8688,-4.0578,-4.1261,-4.1597,-4.2575,-4.3358,-4.3886,-4.3886,-4.3896,-4.3379,-4.1283,-4.0472,-3.9811,-3.8584,-3.8021,-3.8002,-3.8867,-3.9543,-4.0349,-4.1646,-4.3618,-4.5317,-4.6192,-4.6365,-4.5846,-4.4245,-4.1943,-3.985,-3.8222,-3.6326,-3.4833,-3.404,-3.3094,-3.3001,-3.4099,-3.2715,-3.1644,-3.1016,-3.0303,-3.0116,-3.0425,-2.8897,-2.872,-2.9736,-2.9131,-2.9175,-2.9969,-3.0339,-3.0866,-3.1435,-3.0791,-3.0854,-3.143,-3.1512,-3.1475,-3.1582,-3.2553,-3.2916,-3.2977,-3.3693,-3.3931,-3.3931,0.0,0.0,0.0,0.0,0.0,0.0,0.0,-1.5276,-1.5543,-1.541,-1.5543,-1.5776,-1.6238,-1.6423,-1.6522,0.0,0.0,0.0,0.0,0.0,0.0,0.0,0.0,0.0,0.0,0.0,0.0,-1.5754,-1.7375,0.0,0.0,0.0,0.0,0.0,-1.9798,-1.9798,-1.9798,-1.9798,-1.9874,0.0,0.0,-2.1556,0.0,0.0,0.0,0.0,0.0,-2.394,-2.4291,-2.4903,-2.6212,-2.8234,-3.1649,-3.3979,-3.5944,-3.8162,-3.9003,-3.949,-4.1104,-4.2069,-4.2668,-4.2868,-4.2825,-4.21,-3.9626,-3.845,-3.7679,-3.6924,-3.6274,-3.6503,-3.8726,-3.871,-3.878,-4.0066,-4.1604,-4.2774,-4.323,-4.3916,-4.3685,-4.1809,-3.9766,-3.7905,-3.6381,-3.4047,-3.2493,-3.2269,-3.0559,-3.0284,-3.1952,-3.0955,-3.0088,-2.9594,-2.9579,-2.9819,-3.0298,-2.9034,-2.9034,-3.0298,-2.9101,-2.8975,-2.978,-2.9925,-3.0236,-3.0676,-3.0175,-3.044,-3.1197,-3.0967,-3.1294,-3.1966,-3.2276,-3.261,-3.2949,-3.3119,-3.3169,-3.3169,0.0,0.0,0.0,0.0,0.0,0.0,0.0,-1.5543,-1.541,-1.4835,-1.5276,-1.5632,-1.5676,-1.6194,-1.6522,0.0,0.0,0.0,0.0,0.0,0.0,0.0,0.0,0.0,0.0,0.0,0.0,-1.6347,-1.8031,0.0,0.0,0.0,0.0,0.0,0.0,-1.9798,-1.9798,-1.9798,0.0,0.0,0.0,0.0,0.0,0.0,0.0,0.0,0.0,-2.1639,-2.1099,-2.1655,-2.2249,-2.2954,-2.3788,-2.8266,-3.3561,-3.5416,-3.6664,-3.7927,-4.0113,-4.0774,-4.1016,-4.1764,-4.1421,-4.0328,-3.7969,-3.6792,-3.6145,-3.5783,-3.5678,-3.6073,-3.7426,-3.7831,-3.8033,-3.824,-3.8022,-3.8498,-4.0372,-4.0119,-3.9615,-3.9343,-3.7904,-3.6268,-3.4619,-3.1934,-2.9889,-2.8919,-2.7117,-2.7165,-2.9717,-2.9753,-2.9639,-2.9579,-2.9579,-2.9609,-2.9669,-2.8958,-2.8958,-2.9654,-2.9459,-2.975,-3.0454,-3.0964,-3.1242,-3.129,-3.1242,-3.097,-3.0553,-3.1738,-3.1536,-3.0635,-3.185,-3.1928,-3.1478,-3.2138,-3.2374,-3.2374,0.0,0.0,0.0,0.0,0.0,0.0,-1.5096,-1.4699,-1.4367,-1.4179,-1.4332,-1.4733,-1.5531,-1.6139,-1.6522,-1.6522,0.0,0.0,0.0,0.0,0.0,0.0,0.0,0.0,0.0,0.0,-1.6773,-1.7454,-1.8485,0.0,0.0,0.0,0.0,0.0,0.0,-1.9798,-1.9798,-1.9798,0.0,0.0,0.0,0.0,0.0,0.0,0.0,0.0,0.0,0.0,-2.1325,-2.1009,-2.1273,-2.1587,-2.0917,-2.3628,-2.7575,-3.0441,-3.2355,-3.4084,-3.6825,-3.8031,-3.8766,-3.9681,-3.9232,-3.8128,-3.6252,-3.5183,-3.4604,-3.4472,-3.4059,-3.4422,-3.6594,-3.5939,-3.5302,-3.6085,-3.6615,-3.731,-3.8289,-3.8748,-3.8606,-3.7619,-3.6271,-3.4736,-3.2924,-3.0802,-2.8861,-2.7296,-2.6782,-2.6734,-2.7175,-2.7186,-2.738,-2.7769,-2.7784,-2.8173,-2.8981,-2.8323,-2.8499,-2.9546,-2.9107,-2.9247,-2.9832,-3.0099,-3.0432,-3.0799,-3.0384,-3.0478,-3.0971,-3.1104,-3.1021,-3.0881,-3.1432,-3.1444,-3.1241,-3.1512,-3.163,-3.163,0.0,0.0,0.0,0.0,0.0,-1.541,-1.4789,-1.4147,-1.3564,-1.3226,-1.3348,-1.3846,-1.4926,-1.5909,-1.6529,-1.6729,-1.6609,0.0,0.0,0.0,0.0,0.0,0.0,0.0,0.0,0.0,-1.7591,-1.8455,-1.9158,-1.9422,0.0,0.0,-1.9962,-1.9798,0.0,0.0,0.0,0.0,0.0,0.0,0.0,0.0,0.0,0.0,0.0,0.0,0.0,0.0,0.0,0.0,0.0,-2.0566,-1.918,-2.0261,0.0,-2.6002,-2.8429,-3.063,-3.3333,-3.4971,-3.6225,-3.7359,-3.6852,-3.5785,-3.4721,-3.3709,-3.312,-3.3442,-3.3266,-3.3634,-3.5787,-3.4893,-3.4087,-3.4717,-3.5288,-3.5862,-3.6373,-3.7043,-3.7136,-3.6209,-3.4925,-3.3574,-3.2113,-3.0009,-2.7963,-2.6193,-2.6398,-2.6272,-2.5511,-2.5482,-2.5743,-2.6273,-2.6479,-2.698,-2.7946,-2.7643,-2.7917,-2.881,-2.8542,-2.8717,-2.935,-2.9312,-2.9778,-3.0591,-2.9664,-2.9969,-3.1041,-3.0253,-3.0202,-3.07,-3.0691,-3.0645,-3.0577,-3.0921,-3.0917,-3.0779,0.0,0.0,0.0,0.0,0.0,0.0,-1.4789,-1.4147,-1.3233,-1.2003,-1.2385,-1.3052,-1.3648,-1.5313,-1.6662,-1.7318,-1.6848,0.0,0.0,0.0,0.0,0.0,0.0,0.0,0.0,0.0,-1.897,-1.897,-2.0112,-2.0351,-1.9811,-2.0388,-2.0351,-1.9798,0.0,0.0,0.0,0.0,0.0,0.0,0.0,0.0,0.0,0.0,0.0,0.0,0.0,0.0,0.0,0.0,0.0,0.0,0.0,0.0,0.0,0.0,-2.5535,-2.7911,-3.0245,-3.1903,-3.3352,-3.5002,-3.4395,-3.3372,-3.3517,-3.2446,-3.1716,-3.2873,-3.3685,-3.4341,-3.4818,-3.5232,-3.5227,-3.4532,-3.364,-3.3437,-3.4559,-3.4396,-3.4379,-3.5031,-3.3921,-3.2931,-3.2426,-2.9492,-2.6964,-2.5323,-2.5198,-2.5198,-2.5198,-2.5198,-2.5331,-2.5616,-2.6138,-2.6408,-2.6408,-2.6918,-2.7216,-2.7216,-2.7794,-2.8491,-2.9189,-2.9072,-2.9803,-3.1123,-2.9651,-2.9588,-3.0525,-2.9459,-2.9213,-2.9527,-2.9518,-2.9315,-2.9171,-3.0228,-3.0238,-2.9842,0.0,0.0,0.0,0.0,0.0,0.0,0.0,-1.3867,-1.3223,-1.1953,-1.2385,-1.3052,-1.3648,-1.5324,-1.6662,-1.733,-1.71,0.0,0.0,0.0,0.0,0.0,0.0,0.0,0.0,0.0,-1.9196,-1.956,-1.9911,-1.9987,-1.9798,-1.9987,-1.9974,-1.9798,-2.0308,-2.0245,0.0,0.0,0.0,0.0,0.0,0.0,-2.3027,0.0,0.0,0.0,0.0,0.0,0.0,0.0,0.0,0.0,0.0,0.0,0.0,-1.9801,-2.1932,-2.4229,-2.6034,-2.7108,-2.8157,-2.9889,-2.9711,-2.9241,-2.9756,-2.9595,-2.9685,-3.0924,-3.1388,-3.1765,-3.2628,-3.27,-3.2335,-3.1456,-3.1813,-3.2243,-3.2429,-3.3322,-3.3864,-3.3571,-3.2713,-3.191,-3.122,-2.9722,-2.8137,-2.6605,-2.6572,-2.6438,-2.5995,-2.5544,-2.5505,-2.5978,-2.6178,-2.6498,-2.693,-2.7116,-2.741,-2.7818,-2.8246,-2.8848,-2.9551,-2.9884,-2.9897,-2.9729,-3.0276,-3.0126,-2.9521,-2.9493,-2.9639,-2.9909,-3.0115,-3.0131,-2.997,-2.9634,-3.0006,-3.0615,0.0,0.0,0.0,0.0,0.0,0.0,0.0,-1.4043,-1.3318,-1.2288,-1.2337,-1.2735,-1.3504,-1.5274,-1.6717,-1.7517,-1.7652,0.0,0.0,0.0,0.0,0.0,0.0,0.0,0.0,-1.9045,-1.9472,-1.9798,-1.9798,-1.9698,-1.951,-1.9953,-2.0092,-1.99,-2.0775,-2.0917,0.0,0.0,0.0,0.0,0.0,0.0,-2.2853,0.0,0.0,0.0,0.0,0.0,0.0,0.0,0.0,0.0,0.0,0.0,0.0,0.0,-1.9125,-2.0521,-2.2594,-2.3792,-2.4876,-2.662,-2.6499,-2.6274,-2.7904,-2.799,-2.8075,-2.9599,-3.0112,-3.0442,-3.0848,-3.0946,-3.0814,-3.0421,-3.108,-3.1826,-3.2289,-3.3363,-3.3701,-3.2558,-3.1787,-3.0934,-2.9849,-2.9718,-2.9172,-2.7806,-2.7447,-2.7084,-2.6584,-2.587,-2.562,-2.6,-2.5787,-2.5819,-2.6262,-2.6743,-2.72,-2.7588,-2.7981,-2.8625,-2.9438,-2.9581,-2.9541,-2.9435,-2.9796,-2.9677,0.0,-2.91,-2.928,-2.971,-2.9719,-2.9564,-2.9372,-2.9281,-2.9377,-2.9466,0.0,0.0,0.0,0.0,0.0,0.0,0.0,-1.455,-1.3611,-1.2956,-1.2346,-1.2339,-1.3311,-1.5132,-1.6722,-1.7796,0.0,0.0,0.0,0.0,0.0,0.0,0.0,0.0,-1.8858,-1.9459,-1.9798,-1.9798,-1.9761,-1.9497,-1.9032,-2.0171,-2.0413,-2.0059,-2.1172,-2.1716,0.0,0.0,0.0,0.0,0.0,0.0,0.0,0.0,0.0,0.0,0.0,0.0,0.0,0.0,0.0,0.0,0.0,0.0,0.0,0.0,0.0,0.0,0.0,-2.1485,-2.3029,-2.4639,-2.4304,-2.4318,-2.7316,-2.7151,0.0,-2.8688,-2.9626,-2.9992,-2.9455,-2.9849,-3.0396,-3.0771,-3.1032,-3.1803,-3.3456,-3.4124,-3.3619,-3.1379,-3.0703,-2.968,-2.7868,-2.9149,-2.9698,-2.8693,-2.7874,-2.7295,-2.7024,-2.6159,-2.5697,-2.5726,-2.5059,-2.4733,-2.4769,-2.6033,-2.6639,-2.6657,-2.725,-2.8021,-2.8918,-2.8443,-2.8823,-2.9761,-2.8386,-2.8469,-2.944,-2.8326,-2.8297,-2.8957,-2.8581,-2.8112,-2.7754,-2.914,-2.8417,-2.6976,0.0,0.0,0.0,0.0,0.0,0.0,0.0,0.0,0.0,0.0,-1.3406,-1.3399,-1.3614,-1.4729,-1.5997,0.0,0.0,0.0,0.0,0.0,0.0,0.0,0.0,0.0,-1.769,-1.9107,-1.9798,-1.9798,-1.9409,-1.9096,-1.902,-1.927,-1.9647,-2.0033,-2.1175,-2.1996,0.0,0.0,0.0,0.0,0.0,0.0,0.0,0.0,0.0,0.0,-2.2935,-2.3059,0.0,0.0,0.0,0.0,0.0,0.0,0.0,0.0,-1.6717,-1.5394,-1.5737,0.0,-1.8055,-1.9406,-2.0272,-2.1452,0.0,0.0,0.0,0.0,0.0,-2.8381,-2.8039,-2.8559,-2.8808,-2.814,-2.8848,-2.9971,-3.1345,-3.2849,-3.1521,-2.5338,-2.5782,-2.5286,-2.1965,-2.5041,-2.7419,-2.776,-2.8141,-2.801,-2.7209,-2.6097,-2.5621,-2.5927,-2.5169,-2.5012,-2.5465,-2.587,-2.6083,-2.6083,-2.7412,-2.8062,-2.817,-2.8615,-2.8294,-2.7399,-2.7061,-2.7284,-2.7912,-2.7638,-2.8114,-2.8975,-2.8902,-2.876,-2.8705,-2.9026,-2.814,-2.6775,0.0,0.0,0.0,0.0,0.0,0.0,0.0,0.0,0.0,0.0,0.0,-1.4266,-1.4402,-1.5488,0.0,0.0,0.0,0.0,0.0,0.0,0.0,0.0,0.0,-1.7682,-1.7587,-1.9055,-1.9631,-1.9319,-1.8741,-1.8362,-1.8154,-1.8652,-1.9176,-1.9673,-2.1399,-2.2365,0.0,0.0,0.0,0.0,-2.2634,0.0,0.0,0.0,0.0,0.0,-2.3441,-2.3464,0.0,-2.4403,-2.4282,-2.3807,0.0,0.0,0.0,0.0,-1.6623,-1.4735,-1.3512,-1.4607,-1.6296,-1.721,-1.8424,-1.9971,-2.1937,0.0,0.0,0.0,0.0,-2.7372,-2.7485,-2.8227,-2.8613,-2.7989,-2.9099,-3.032,-3.1091,-2.9526,-2.5898,-1.9538,-2.106,-2.0883,-1.637,-2.2751,-2.711,-2.6948,-2.7205,-2.7168,-2.6726,-2.5767,-2.5328,-2.5579,-2.5083,-2.4944,-2.5278,-2.5804,-2.5964,-2.5832,-2.7679,-2.8127,-2.7328,-2.7954,-2.7651,-2.6582,-2.6582,-2.6633,-2.668,-2.6933,-2.7526,-2.8242,-2.7985,-2.8336,-2.8969,-2.8613,-2.773,-2.6707,0.0,0.0,0.0,0.0,0.0,0.0,0.0,0.0,0.0,0.0,0.0,0.0,0.0,0.0,0.0,0.0,0.0,0.0,0.0,0.0,0.0,0.0,0.0,-1.7772,-1.762,-1.9052,-1.9374,-1.8596,-1.8073,-1.7547,-1.7096,-1.8025,-1.8722,-1.9307,-2.1671,-2.2724,0.0,0.0,0.0,-2.2844,-2.2844,0.0,0.0,0.0,0.0,0.0,0.0,0.0,0.0,-2.4894,-2.4934,-2.4601,-2.4507,0.0,0.0,0.0,0.0,0.0,-1.261,-1.3816,-1.5773,-1.6224,-1.7491,-1.912,-2.0903,0.0,0.0,0.0,0.0,-2.6673,-2.7432,-2.8246,-2.8783,-2.8676,-3.0154,-3.1193,-3.0873,-2.5799,-1.9908,-1.3966,-1.5823,-1.5879,-1.1548,-2.0623,-2.6707,-2.6395,-2.6163,-2.6002,-2.5922,-2.5399,-2.5103,-2.5138,-2.4986,-2.4898,-2.4888,-2.5611,-2.5833,-2.5537,-2.7451,-2.7738,-2.6626,-2.7119,-2.7046,-2.6514,-2.6473,-2.6193,-2.5821,-2.6245,-2.6756,-2.7229,-2.6775,-2.7346,-2.835,-2.7826,-2.7139,-2.6485,0.0,0.0,0.0,0.0,0.0,0.0,0.0,0.0,0.0,0.0,0.0,0.0,0.0,0.0,0.0,0.0,0.0,0.0,0.0,0.0,0.0,-1.7521,-1.7575,-1.7289,-1.6463,-1.8651,-1.9202,-1.7997,-1.7599,-1.7301,-1.7085,-1.6888,-1.786,-1.985,-2.1824,-2.2724,-2.2712,-2.3255,-2.3465,-2.3465,-2.3465,0.0,0.0,0.0,0.0,0.0,0.0,0.0,0.0,-2.5144,-2.5449,-2.5762,-2.5709,0.0,0.0,0.0,0.0,0.0,-1.3588,-1.3469,-1.3568,-1.3958,-1.5741,-1.7912,-1.9921,-2.1037,-2.2207,0.0,-2.5092,-2.5792,-2.7513,-2.7662,-2.7612,-2.7983,-2.965,-2.9969,-2.723,-2.4401,-1.8875,-0.884,-0.8338,-0.8864,-0.8959,-1.595,-2.223,-2.6408,-2.6934,-2.6491,-2.5154,-2.5415,-2.5499,-2.5284,-2.5352,-2.5337,-2.5233,-2.5067,-2.4934,-2.4768,-2.522,-2.5858,-2.6618,-2.7054,-2.6812,-2.608,-2.591,-2.5783,-2.5709,-2.561,-2.6025,-2.6701,-2.6631,-2.6258,-2.5808,-2.6171,-2.5941,-2.5473,0.0,0.0,0.0,0.0,0.0,0.0,0.0,0.0,0.0,0.0,0.0,0.0,0.0,0.0,0.0,0.0,0.0,0.0,0.0,0.0,0.0,-1.8232,-1.7912,-1.7397,-1.6643,-1.7699,-1.7497,-1.5918,-1.5701,-1.5463,-1.5142,-1.6296,-1.7936,-1.9969,-2.1495,-2.2338,-2.2727,-2.3325,-2.3595,-2.3595,0.0,0.0,0.0,0.0,0.0,0.0,0.0,0.0,0.0,0.0,-2.6177,-2.6033,-2.6214,0.0,0.0,0.0,0.0,0.0,-1.3902,-1.2967,-1.244,-1.2071,-1.4434,-1.7205,-1.8495,-2.0218,-2.1794,-2.2578,-2.456,-2.6623,-2.8193,-2.8389,-2.8109,-2.7603,-2.7619,-2.7342,-2.6266,-2.251,-1.6824,-0.8694,-0.3337,-0.0675,-0.1599,-0.9436,-1.6463,-2.135,-2.3841,-2.512,-2.5067,-2.5398,-2.555,-2.5465,-2.552,-2.5488,-2.536,-2.5173,-2.4974,-2.4771,-2.5446,-2.574,-2.571,-2.6287,-2.6054,-2.5169,-2.5088,-2.4985,-2.4875,-2.4799,-2.5217,-2.5897,-2.5474,-2.557,-2.5791,-2.4469,-2.4202,-2.4519,0.0,0.0,0.0,0.0,0.0,0.0,0.0,0.0,0.0,0.0,0.0,0.0,0.0,0.0,0.0,0.0,0.0,0.0,0.0,0.0,-1.9138,-1.8995,-1.8452,-1.7718,-1.6852,-1.6996,-1.6044,-1.3992,-1.3857,-1.353,-1.3053,-1.5588,-1.7759,-1.9591,-2.102,-2.2144,-2.2888,-2.3648,-2.3906,-2.3794,0.0,0.0,0.0,0.0,0.0,0.0,0.0,0.0,0.0,0.0,0.0,0.0,0.0,0.0,0.0,-2.2265,-2.0355,-1.8446,-1.5222,-1.3091,-1.0712,-0.615,-0.9913,-1.523,-1.7016,-1.9817,-2.1999,-2.1743,-2.3963,-2.6487,-2.8157,-2.7607,-2.6353,-2.4635,-2.4014,-2.3731,-2.3619,-1.9594,-1.4443,-0.8532,-0.0805,0.38,0.3168,-0.4374,-1.1175,-1.5946,-2.0947,-2.4115,-2.49,-2.5325,-2.557,-2.5611,-2.5508,-2.5399,-2.5282,-2.5215,-2.5107,-2.5,-2.5874,-2.583,-2.5007,-2.5527,-2.5348,-2.4596,-2.4528,-2.441,-2.4284,-2.4209,-2.4557,-2.5052,-2.4424,-2.4874,-2.5526,-2.3161,-2.2781,-2.3597,0.0,0.0,0.0,0.0,0.0,0.0,0.0,0.0,0.0,0.0,0.0,0.0,0.0,0.0,0.0,0.0,0.0,0.0,0.0,0.0,-2.0448,-1.9943,-1.9226,-1.8018,-1.6294,-1.6933,-1.6041,-1.3437,-1.2902,-1.2356,-1.1862,-1.4372,-1.6516,-1.8446,-2.0688,-2.233,-2.3429,-2.461,-2.4776,-2.4348,-2.4348,0.0,0.0,0.0,0.0,0.0,0.0,0.0,0.0,0.0,0.0,0.0,0.0,0.0,-2.6706,-2.5538,-2.3802,-2.1657,-1.8796,-1.446,-0.7114,0.7937,0.1225,-1.0328,-1.5594,-2.0091,-2.324,-2.3398,-2.3004,-2.3514,-2.6336,-2.3148,-1.9206,-1.6485,-1.8139,-1.8863,-1.6311,-1.5051,-1.1902,-0.5413,-0.1644,0.0308,0.0115,-0.323,-0.7518,-1.2663,-2.0566,-2.4872,-2.4205,-2.5146,-2.5683,-2.5683,-2.5201,-2.4956,-2.4936,-2.4884,-2.4983,-2.5274,-2.536,-2.5354,-2.5265,-2.512,-2.4993,-2.485,-2.4613,-2.4495,-2.4461,-2.4266,-2.4226,-2.428,-2.4226,-2.3897,-2.3345,-2.2586,-2.2341,-2.2614,0.0,0.0,0.0,0.0,0.0,0.0,0.0,0.0,0.0,0.0,0.0,0.0,0.0,0.0,0.0,0.0,0.0,0.0,0.0,-1.9979,-2.0065,-1.9886,-1.8982,-1.779,-1.6278,-1.5345,-1.3872,-1.176,-1.1132,-1.126,-1.2208,-1.4717,-1.7333,-1.9946,-2.1902,-2.3383,-2.4458,-2.5222,-2.5599,-2.5553,-2.5341,-2.5147,0.0,0.0,0.0,0.0,0.0,0.0,0.0,0.0,-2.6591,-2.5265,-2.4876,-2.4347,-2.3794,-2.347,-2.3152,-2.279,-2.2185,-1.4041,-0.2678,1.019,1.3418,0.0,0.0,-2.5162,-2.7712,-1.5391,-1.7108,-2.1383,-2.3039,-2.0078,-1.7073,-1.615,-1.6841,-1.6983,-1.5571,-1.428,-1.0863,-0.4066,-0.0394,0.2508,0.4658,0.446,0.1939,-0.3459,-1.1064,-1.7147,-2.0974,-2.2388,-2.2664,-2.1756,-2.2256,-2.2957,-2.3829,-2.4187,-2.4238,-2.3996,-2.4676,-2.4949,-2.4864,-2.4864,-2.4785,-2.4645,-2.4582,-2.4464,-2.4321,-2.4238,-2.421,-2.4205,-2.4188,-2.3555,-2.2609,-2.2383,-2.2298,-2.2389,0.0,0.0,0.0,0.0,0.0,0.0,0.0,0.0,0.0,0.0,0.0,0.0,0.0,0.0,0.0,0.0,0.0,0.0,-1.9652,-2.0041,-2.0269,-2.0255,-1.9405,-1.807,-1.6296,-1.4398,-1.2445,-1.0434,-0.9784,-1.03,-1.1944,-1.4671,-1.7388,-1.9976,-2.2133,-2.3989,-2.5648,-2.6404,-2.6901,-2.7186,-2.6937,-2.6757,0.0,0.0,0.0,0.0,0.0,0.0,0.0,0.0,-2.5436,-2.298,-2.1819,-2.111,-2.0662,-2.0494,-2.1274,-2.1959,-2.0896,-1.3144,-0.2444,0.9707,0.0,0.0,0.0111,-1.4999,-2.0778,-0.7111,-1.0795,-1.6604,-1.7103,-1.5993,-1.4985,-1.4798,-1.438,-1.4112,-1.4277,-1.2499,-0.8698,-0.1995,0.1239,0.4411,0.8088,0.9207,0.781,0.3199,-0.2864,-0.8533,-1.3466,-1.7652,-1.9693,-1.9348,-2.018,-2.1121,-2.2103,-2.2966,-2.2968,-2.2131,-2.3592,-2.4412,-2.4647,-2.419,-2.4026,-2.4095,-2.4002,-2.3943,-2.3894,-2.4111,-2.397,-2.3632,-2.4038,-2.3423,-2.2289,-2.2287,-2.231,-2.2349,0.0,0.0,0.0,0.0,0.0,0.0,0.0,0.0,0.0,0.0,0.0,0.0,0.0,0.0,0.0,0.0,0.0,0.0,-2.1168,-2.1286,-2.1255,-2.1177,-2.0743,-1.9127,-1.617,-1.4362,-1.2206,-0.968,-0.903,-0.9423,-1.0789,-1.3978,-1.6312,-1.7847,-2.0953,-2.4034,-2.6966,-2.82,-2.8891,-2.92,-2.9115,-2.882,-2.8441,0.0,0.0,0.0,0.0,0.0,0.0,0.0,-2.4871,-2.2313,-1.9217,-1.8144,-1.7865,-1.7231,-1.8509,-1.9045,-1.4105,-1.1772,-0.7198,0.759,0.0,0.0,2.7911,1.3795,0.0228,0.0115,-0.4594,-0.8627,-0.8289,-1.065,-1.2292,-1.123,-0.9902,-0.9663,-1.1357,-0.9037,-0.4948,0.1031,0.2943,0.5268,0.9053,0.964,0.8625,0.5944,0.2535,-0.0048,-0.1412,-1.0812,-1.7149,-1.9257,-1.9484,-1.9567,-1.9562,-2.103,-2.1073,-1.9774,-2.202,-2.3684,-2.47,-2.2982,-2.2547,-2.3153,-2.2764,-2.281,-2.3242,-2.3892,-2.343,-2.2411,-2.3685,-2.3388,-2.2302,-2.2298,-2.231,-2.2383,0.0,0.0,0.0,0.0,0.0,0.0,0.0,0.0,0.0,0.0,0.0,0.0,0.0,0.0,0.0,0.0,0.0,0.0,-1.9538,-1.9921,-2.0228,-2.0543,-2.0106,-1.9043,-1.7343,-1.3528,-1.0464,-0.8277,-0.9072,-1.0308,-1.1944,-1.4178,-1.686,-1.9851,-2.2754,-2.4966,-2.6549,-2.7564,-2.854,-2.9425,-2.9355,-2.9899,-3.0676,0.0,0.0,0.0,0.0,0.0,0.0,0.0,0.0,0.0,-1.6861,-1.4139,-1.1584,-1.259,-1.3822,-1.4268,-1.1501,-0.5049,0.2323,0.8283,1.8291,2.7591,3.1215,2.5361,1.6849,0.8593,0.2326,-0.2449,-0.4834,-0.6729,-0.7824,-0.7199,-0.6508,-0.5686,-0.4567,-0.3749,-0.2965,-0.2027,0.199,0.6812,1.2167,1.3005,1.2012,0.904,0.6022,0.3285,0.0739,-0.2871,-0.7909,-1.4606,-1.1728,-1.0188,-1.0489,-1.1274,-1.3022,-1.5598,-1.6462,-1.8322,-2.1016,-2.1354,-2.158,-2.1754,-2.2105,-2.2319,-2.2348,-2.1576,-2.1644,-2.2283,-2.2031,-2.2071,-2.2298,-2.2316,-2.231,-2.2377,0.0,0.0,0.0,0.0,0.0,0.0,0.0,0.0,0.0,0.0,0.0,0.0,0.0,0.0,0.0,0.0,0.0,0.0,0.0,-1.9317,-1.9783,-2.0234,-2.0181,-1.9277,-1.7433,-1.4178,-1.1458,-0.9297,-0.9318,-1.0446,-1.2603,-1.4283,-1.693,-2.028,-2.3162,-2.5365,-2.6956,-2.7702,-2.8947,-3.0464,-3.0508,-3.1041,-3.1712,0.0,0.0,0.0,0.0,0.0,0.0,0.0,0.0,0.0,-1.2779,-0.8523,-0.4065,-0.5845,-0.7173,-0.7439,-0.4238,0.2509,0.9747,1.4279,2.191,2.9211,3.2827,3.0355,2.4926,1.6393,0.9958,0.4668,0.0711,-0.1666,-0.2999,-0.285,-0.2308,-0.1418,0.007,0.0409,0.0266,-0.0456,0.371,0.8248,1.2225,1.3957,1.4096,1.2304,1.0254,0.801,0.5516,0.4861,0.1844,-0.4115,-0.2164,-0.112,-0.1341,-0.3978,-0.6725,-0.9438,-1.0966,-1.3238,-1.6146,-1.8377,-1.9423,-1.9615,-2.0536,-2.0953,-2.0886,-2.002,-2.0017,-2.0562,-2.1239,-2.1827,-2.232,-2.2483,-2.2497,-2.2527,0.0,0.0,0.0,0.0,0.0,0.0,0.0,0.0,0.0,0.0,0.0,0.0,0.0,0.0,0.0,0.0,0.0,0.0,0.0,0.0,-1.9647,-2.0138,-2.0651,-1.9676,-1.701,-1.6034,-1.4439,-1.2194,-1.0199,-1.0468,-1.2908,-1.4424,-1.6685,-1.9654,-2.2556,-2.5236,-2.7645,-2.8201,-2.9738,-3.1796,-3.1975,-3.1919,-3.1722,-3.1932,0.0,0.0,0.0,0.0,0.0,0.0,0.0,0.0,-0.8184,-0.2635,0.3173,0.2153,0.0922,0.0939,0.6083,1.0453,1.551,2.3367,2.7971,3.1127,3.3533,3.102,2.7086,2.3304,1.7801,1.2255,0.7638,0.438,0.2149,0.1608,0.2335,0.301,0.3173,0.3967,0.449,0.4583,0.7404,0.9633,1.0415,1.3329,1.5156,1.5143,1.4414,1.3267,1.1762,1.1729,1.0965,0.9144,0.7756,0.6842,0.654,0.1202,-0.1833,-0.2586,-0.5839,-0.8485,-1.0696,-1.4499,-1.6504,-1.7054,-1.8322,-1.8872,-1.8902,-1.8946,-1.8474,-1.8038,-2.0834,-2.2003,-2.2152,-2.2537,-2.2651,-2.2693,0.0,0.0,0.0,0.0,0.0,0.0,0.0,0.0,0.0,0.0,0.0,0.0,0.0,0.0,0.0,0.0,0.0,0.0,0.0,0.0,-1.8777,-1.9697,-2.0135,-1.9702,-1.8248,-1.7596,-1.6786,-1.5775,-1.4063,-1.336,-1.3554,-1.4603,-1.6797,-1.9905,-2.2279,-2.4356,-2.6164,-2.7428,-2.9082,-3.0878,-3.0928,-3.0918,-3.0849,-3.075,-3.0492,0.0,0.0,0.0,0.0,0.0,0.0,0.0,-0.8499,-0.2996,0.2048,0.8311,0.9245,0.9118,1.2963,1.6754,2.0994,2.666,3.1585,3.5385,3.656,3.5437,3.2746,2.7765,2.3474,1.8929,1.3248,1.0153,0.7649,0.514,0.6012,0.7241,0.7841,0.8544,0.9023,0.9005,1.0807,1.1874,1.1368,1.4047,1.535,1.4221,1.5223,1.545,1.4488,1.4178,1.3405,1.2058,1.0906,0.8892,0.5905,0.4488,0.2291,-0.0642,-0.2438,-0.4646,-0.7273,-1.1355,-1.4063,-1.5501,-1.6164,-1.6466,-1.6494,-1.6948,-1.7197,-1.7362,-1.8718,-1.9789,-2.0615,-2.0841,-2.1295,-2.1885,0.0,0.0,0.0,0.0,0.0,0.0,0.0,0.0,0.0,0.0,0.0,0.0,0.0,0.0,0.0,0.0,0.0,0.0,0.0,0.0,-1.8717,-2.0215,-2.0268,-2.0141,-1.9906,-1.9767,-1.9178,-1.8092,-1.8307,-1.7492,-1.5748,-1.5684,-1.731,-2.0332,-2.2557,-2.4075,-2.5089,-2.6087,-2.7558,-2.9227,-2.9501,-2.9369,-2.9007,-2.8894,-2.8945,-2.9175,-2.9721,0.0,0.0,0.0,0.0,0.0,0.0,0.0,0.0483,0.3902,0.784,1.2128,1.7025,2.1393,2.5877,3.1497,3.5238,3.7653,3.8085,3.7703,3.6328,3.2959,2.8115,2.2985,1.8124,1.4577,1.167,0.9346,0.969,1.0416,1.1042,1.1435,1.1636,1.1636,1.259,1.2986,1.23,1.4306,1.5262,1.4291,1.5662,1.6198,1.5482,1.5256,1.4603,1.3354,1.2502,1.0897,0.8622,0.7512,0.5423,0.2463,0.0552,-0.2342,-0.6218,-1.0222,-1.2667,-1.3862,-1.4584,-1.4972,-1.5189,-1.5854,-1.6383,-1.689,-1.8104,-1.9161,-2.0026,-2.0675,-2.1167,-2.1643,0.0,0.0,0.0,0.0,0.0,0.0,0.0,0.0,0.0,0.0,0.0,0.0,0.0,0.0,0.0,0.0,0.0,0.0,0.0,0.0,0.0,-2.0879,-2.0716,-2.0974,-2.1769,-2.2035,-2.1549,-2.0272,-2.218,-2.1808,-1.9305,-1.814,-1.8841,-2.124,-2.3187,-2.4238,-2.4564,-2.5193,-2.6111,-2.7191,-2.796,-2.7853,-2.7281,-2.74,-2.7672,-2.81,-2.8944,-2.8303,-2.7216,-2.8372,0.0,0.0,0.0,0.0,-0.2244,-0.1599,0.4215,1.207,1.9752,2.531,3.033,3.6056,3.8007,3.8519,3.8552,3.8508,3.8096,3.6899,3.1665,2.6145,2.2454,1.852,1.5279,1.3547,1.3244,1.3309,1.3571,1.3647,1.363,1.3588,1.374,1.37,1.3277,1.4399,1.5056,1.4808,1.5748,1.6194,1.5776,1.5776,1.5276,1.4133,1.3585,1.286,1.2003,1.0221,0.8184,0.5921,0.3089,-0.0966,-0.5941,-0.9512,-1.1532,-1.2244,-1.3265,-1.3964,-1.4442,-1.5272,-1.5877,-1.651,-1.8044,-1.9075,-1.9848,-2.0789,-2.122,-2.1512,0.0,0.0,0.0,0.0,0.0,0.0,0.0,0.0,0.0,0.0,0.0,0.0,0.0,0.0,0.0,0.0,0.0,0.0,0.0,0.0,0.0,-2.0719,-2.1447,-2.2443,-2.3693,-2.3699,-2.3738,-2.3816,-2.4398,-2.4698,-2.4729,-2.3276,-2.2902,-2.3407,-2.4348,-2.4855,-2.5098,-2.6372,-2.612,-2.4986,-2.6631,-2.7221,-2.72,-2.7853,-2.8009,-2.7942,-2.8256,-2.8219,-2.8082,-2.8496,-2.6471,0.0,0.0,0.0,-0.7973,0.3872,0.7266,0.9907,2.2319,2.9506,3.4275,3.7395,3.7904,3.7708,3.7944,3.7661,3.7,3.591,3.3313,3.0099,2.6341,2.2887,1.957,1.65,1.655,1.6759,1.6026,1.6174,1.6221,1.6022,1.5348,1.4821,1.4547,1.4501,1.4703,1.5182,1.552,1.5908,1.638,1.638,1.6051,1.5365,1.5264,1.4413,1.2677,1.2396,1.1187,0.9045,0.4583,-0.0092,-0.4909,-0.7551,-0.9599,-1.1079,-1.2162,-1.3101,-1.3971,-1.5124,-1.5786,-1.6186,-1.7507,-1.8603,-1.9467,-1.962,-2.0132,-2.0813,0.0,0.0,0.0,0.0,0.0,0.0,0.0,0.0,0.0,0.0,0.0,0.0,0.0,0.0,0.0,0.0,0.0,0.0,0.0,0.0,0.0,-2.2124,-2.2603,-2.3301,-2.4296,-2.4408,-2.4525,-2.4683,-2.5378,-2.563,-2.5454,-2.414,-2.4381,-2.5811,-2.4405,-2.4205,-2.4927,-2.467,-2.4384,-2.4203,-2.4935,-2.5262,-2.5383,-2.6051,-2.6236,-2.6202,-2.65,-2.6696,-2.6847,-2.7216,-2.623,-2.4284,-2.0987,0.0,0.0,0.0,-0.3493,0.7638,2.4705,3.1949,3.5152,3.7129,3.7547,3.7454,3.7281,3.7178,3.6967,3.6493,3.46,3.2102,2.8839,2.5916,2.3011,2.0121,1.9945,1.9713,1.8312,1.7961,1.7645,1.728,1.6007,1.5081,1.4989,1.4428,1.4409,1.5248,1.551,1.5864,1.6466,1.6522,1.6238,1.5632,1.5588,1.4892,1.3369,1.3369,1.1859,0.8834,0.583,0.2137,-0.2138,-0.5009,-0.8123,-1.1319,-1.2812,-1.4132,-1.525,-1.6186,-1.6921,-1.7552,-1.8402,-1.9031,-1.9489,-1.9662,-1.9965,-2.0376,0.0,0.0,0.0,0.0,0.0,0.0,0.0,0.0,0.0,0.0,0.0,0.0,0.0,0.0,0.0,0.0,0.0,0.0,0.0,0.0,0.0,-2.3447,-2.3536,-2.3985,-2.4949,-2.4909,-2.5031,-2.5288,-2.6071,-2.6048,-2.5221,-2.3752,-2.3783,-2.4993,-2.2839,-2.2681,-2.3934,-2.3172,-2.3046,-2.3436,-2.3866,-2.4009,-2.4017,-2.4646,-2.4839,-2.4827,-2.523,-2.5376,-2.5542,-2.6099,-2.5468,-2.4637,-2.5427,-2.2978,0.0,0.0,0.0,0.8574,2.645,3.2616,3.4406,3.616,3.6616,3.6635,3.6562,3.664,3.6672,3.6576,3.5203,3.3386,3.1222,2.8545,2.5941,2.3708,2.3105,2.2332,2.0749,1.9862,1.9133,1.8379,1.6926,1.5877,1.5764,1.4814,1.4653,1.5657,1.5683,1.5864,1.6466,1.6522,1.6281,1.582,1.5676,1.5084,1.405,1.3732,1.1816,0.84,0.7061,0.4182,-0.009,-0.2991,-0.6985,-1.1735,-1.3756,-1.5351,-1.6608,-1.7339,-1.7985,-1.8599,-1.9173,-1.9445,-1.9551,-1.985,-1.996,-2.0098,0.0,0.0,0.0,0.0,0.0,0.0,0.0,0.0,0.0,0.0,0.0,0.0,0.0,-1.844,-1.8795,-1.9087,-2.0212,-2.1499,-2.2816,-2.2893,-2.3204,-2.3939,-2.3978,0.0,-2.6167,-2.5542,-2.5653,-2.6599,-2.6773,-2.6369,-2.5346,-2.2985,-2.0662,-1.8503,-1.8905,-2.0106,-2.1853,-2.3185,-2.3067,-2.2153,-2.3943,-2.4413,-2.4159,-2.4906,-2.4974,-2.4748,-2.51,-2.5016,-2.4917,-2.5891,-2.5399,-2.4537,-2.5203,-2.4462,-2.3229,0.0,0.0,0.0,2.7198,3.097,3.2095,3.4577,3.4783,3.4669,3.5864,3.5902,3.5554,3.5122,3.4725,3.4338,3.3932,3.1079,2.8329,2.6945,2.5803,2.4663,2.3551,2.2333,2.1074,1.975,1.8657,1.7885,1.7519,1.6193,1.5836,1.6928,1.6112,1.5864,1.6466,1.6522,1.6479,1.6466,1.5908,1.5276,1.4663,1.3525,1.1627,0.9051,0.8403,0.5266,0.0042,-0.2051,-0.6166,-1.1845,-1.4426,-1.615,-1.7229,-1.8148,-1.8482,-1.8485,-1.9141,-1.947,-1.9615,-1.9759,-1.9858,-1.9905,0.0,0.0,0.0,0.0,0.0,0.0,0.0,0.0,0.0,0.0,0.0,0.0,0.0,-1.9214,-1.9975,-2.0572,-2.1777,-2.2742,-2.3296,-2.3975,-2.4564,-2.5016,-2.5526,-2.5991,-2.6354,-2.6116,-2.5933,-2.5867,-2.5774,-2.5261,-2.4301,-2.1007,-1.799,-1.5325,-1.5617,-1.633,-1.7431,-2.0097,-2.1096,-2.1038,-2.3084,-2.3568,-2.3214,-2.3867,-2.4074,-2.4059,-2.4637,-2.4866,-2.4995,-2.5591,-2.5546,-2.5151,-2.4937,-2.4589,-2.3985,-2.2783,-0.6704,1.1976,1.8241,2.5581,3.1814,3.3149,3.3855,3.4283,3.4603,3.5125,3.5483,3.5325,3.5115,3.4919,3.477,3.2944,3.1046,2.9761,2.8832,2.7851,2.6652,2.5098,2.3638,2.2476,2.0844,1.9475,1.8529,1.7335,1.6941,1.7559,1.6681,1.6384,1.7017,1.6722,1.6522,1.6522,1.6281,1.5688,1.4698,1.3474,1.1872,0.992,0.8665,0.6156,0.2492,-0.0721,-0.4302,-0.8252,-1.3337,-1.6512,-1.8062,-1.7635,-1.8008,-1.8843,-1.8821,-1.9002,-1.9275,-1.9281,-1.9292,-1.9315,0.0,0.0,0.0,0.0,0.0,0.0,0.0,0.0,0.0,0.0,0.0,0.0,0.0,0.0,-2.1259,-2.1905,-2.3044,-2.3779,-2.3896,-2.4831,-2.5446,-2.5646,-2.6257,-2.6564,-2.6473,-2.6623,-2.6339,-2.5593,-2.5492,-2.4834,-2.3535,-1.9528,-1.6139,-1.3369,-1.1167,-1.1521,-1.3878,-1.651,-1.8467,-2.0077,-2.2034,-2.2647,-2.2495,-2.3174,-2.3463,-2.3589,-2.4067,-2.424,-2.4347,-2.5084,-2.5026,-2.4704,-2.5066,-2.4582,-2.3851,-2.3334,-1.0466,0.4519,0.8821,1.8435,2.7998,3.1136,3.2658,3.3439,3.3736,3.4392,3.5064,3.5435,3.5346,3.5196,3.5166,3.4245,3.314,3.2036,3.0935,2.987,2.8883,2.7362,2.592,2.4856,2.3508,2.2186,2.088,1.9766,1.9222,1.943,1.8316,1.7811,1.82,1.7686,1.7187,1.6727,1.657,1.5983,1.4982,1.3773,1.2416,1.1022,0.8997,0.6954,0.4754,0.147,-0.1864,-0.5331,-0.9996,-1.3901,-1.696,-1.6687,-1.7178,-1.8106,-1.8052,-1.8251,-1.8585,-1.8521,-1.8572,-1.8694,0.0,0.0,0.0,0.0,0.0,0.0,0.0,0.0,0.0,-1.6728,0.0,0.0,0.0,0.0,0.0,-2.3056,-2.3995,-2.4592,-2.4664,-2.5319,-2.5691,-2.5673,-2.6091,-2.6431,-2.6617,-2.7075,-2.6896,-2.6042,-2.6085,-2.519,-2.3279,-1.8785,-1.5369,-1.2701,-0.6067,-0.6262,-1.1662,-1.2605,-1.5385,-1.9215,-2.0885,-2.176,-2.2098,-2.2908,-2.3289,-2.333,-2.3382,-2.311,-2.2992,-2.4341,-2.3927,-2.3246,-2.5558,-2.4619,-2.3009,-2.4313,-1.6586,-0.6219,0.0,0.0,0.0,2.8439,3.1081,3.2002,3.3259,3.3715,3.4166,3.5236,3.5321,3.5222,3.5279,3.499,3.4505,3.3755,3.201,3.0612,3.0128,2.9013,2.7865,2.6761,2.66,2.6013,2.4623,2.3526,2.2789,2.2555,2.1054,2.0077,1.9953,1.9397,1.8508,1.7233,1.6705,1.6151,1.5504,1.4378,1.3341,1.2266,0.9501,0.7642,0.6573,0.4292,0.0816,-0.3471,-0.4728,-0.846,-1.38,-1.5349,-1.6061,-1.6216,-1.6791,-1.7221,-1.7513,-1.7479,-1.771,-1.8045,0.0,0.0,0.0,0.0,0.0,0.0,-1.5888,-1.6283,-1.7208,0.0,0.0,0.0,-2.216,-2.2305,-2.2634,-2.32,-2.341,-2.3584,-2.3752,-2.5086,-2.5708,-2.5366,-2.6703,-2.7385,-2.7236,-2.766,-2.7545,-2.6874,-2.6745,-2.6283,-2.5466,-2.2358,-1.9806,-1.762,-1.3705,-1.2597,-1.3525,-1.0667,-1.1842,-1.5919,-1.7718,-1.8825,-1.952,-2.0899,-2.1633,-2.1989,-2.2551,-2.2845,-2.3144,-2.4022,-2.4378,-2.4628,-2.5183,-2.4417,-2.3503,-2.4261,-1.7311,-0.8196,-0.2712,0.0,0.0,0.0,0.0,0.0,3.1914,3.2602,3.3432,3.4379,3.5049,3.5428,3.5191,3.5748,3.5776,3.4397,3.2955,3.1948,3.1811,3.0785,2.9768,2.912,2.8811,2.8068,2.65,2.5604,2.4766,2.396,2.2235,2.1039,2.0527,1.9134,1.8031,1.7286,1.7133,1.6549,1.5504,1.4733,1.3807,1.2653,0.9727,0.8199,0.7657,0.053,-0.2994,-0.3684,-0.7295,-0.9466,-1.0629,-1.2592,-1.4122,-1.5177,-1.5107,-1.5278,-1.564,-1.6318,-1.6412,-1.6312,0.0,0.0,0.0,0.0,0.0,-1.9192,-1.833,-1.8622,-1.9202,0.0,0.0,0.0,-2.2925,-2.2616,-2.2591,-2.3144,-2.3335,-2.3587,-2.3949,-2.5676,-2.6429,-2.5856,-2.7447,-2.818,-2.7785,-2.8242,-2.8157,-2.7457,-2.7322,-2.6997,-2.6465,-2.5207,-2.3761,-2.2153,-2.0139,-1.8311,-1.6512,-1.2854,-1.2627,-1.4773,-1.5041,-1.6344,-1.8182,-1.8742,-1.9609,-2.0694,-2.1305,-2.1479,-2.1575,-2.2593,-2.345,-2.4138,-2.4507,-2.4154,-2.3674,-2.4197,-1.9682,-1.3871,-1.1122,-0.0552,1.1074,1.6859,0.0,0.0,2.8999,3.0847,3.2695,3.3743,3.4654,3.5149,3.4757,3.5114,3.5067,3.3814,3.2822,3.2294,3.2458,3.1583,3.0925,3.1031,3.0776,3.0202,2.9276,2.781,2.6636,2.587,2.3963,2.2322,2.119,1.9633,1.8535,1.7987,1.7747,1.719,1.6268,1.5428,1.4984,1.4887,1.0887,0.769,0.5032,-0.2314,-0.589,-0.649,-0.9384,-1.0359,-1.0016,-1.1094,-1.2423,-1.3784,-1.38,-1.4151,-1.4738,-1.5301,-1.5504,-1.5645,0.0,0.0,-2.2129,-2.1678,-2.153,-2.1374,-2.102,-2.083,-2.0898,0.0,-2.1988,-2.269,-2.3363,-2.2609,-2.2255,-2.2791,-2.3407,-2.4011,-2.4764,-2.663,-2.7429,-2.6766,-2.8198,-2.8794,-2.8317,-2.8757,-2.865,-2.7934,-2.7934,-2.7581,-2.6893,-2.7292,-2.6913,-2.5875,-2.484,-2.2766,-1.9872,-1.7103,-1.5625,-1.5049,-1.3236,-1.437,-1.7076,-1.6664,-1.7599,-1.9123,-1.9646,-1.9446,-1.9224,-2.0973,-2.1958,-2.2689,-2.38,-2.3891,-2.3645,-2.4145,-2.2688,-2.0863,-2.0782,-1.0888,0.0829,0.6672,1.5115,0.0,2.4545,2.7918,3.1032,3.2502,3.3672,3.4326,3.3921,3.3655,3.3259,3.2424,3.1962,3.1898,3.2351,3.1747,3.154,3.2332,3.2273,3.2107,3.2084,2.9808,2.8252,2.7958,2.5663,2.3502,2.17,2.0333,1.9369,1.8817,1.8302,1.7733,1.7216,1.6388,1.6507,1.7569,1.3173,0.7692,0.1279,-0.4241,-0.797,-1.01,-1.0686,-1.0992,-1.0968,-1.0564,-1.1148,-1.239,-1.2798,-1.3491,-1.4296,-1.4406,-1.485,-1.549,0.0,0.0,-2.4179,-2.2977,-2.336,-2.3554,-2.2765,-2.2064,-2.1694,-2.1832,-2.1255,-2.1076,-2.1688,-2.0631,-2.0454,-2.1852,-2.2359,-2.3225,-2.4626,-2.6336,-2.723,-2.7094,-2.831,-2.8965,-2.8847,-2.8946,-2.892,-2.8778,-2.8778,-2.8682,-2.8512,-2.8197,-2.752,-2.6498,-2.4627,-2.2928,-2.1338,-1.7652,-1.5437,-1.4365,-1.4042,-1.321,-1.2469,-1.566,-1.6353,-1.5821,-1.6937,-1.8089,-1.935,-2.1541,-2.2491,-2.2905,-2.3991,-2.4186,-2.41,-2.4256,-2.3555,-2.1758,-1.7375,-1.0979,-0.3907,0.2881,0.9494,0.0,1.7547,2.1075,2.4581,2.7241,3.019,3.228,3.2259,3.2627,3.2535,3.119,3.1185,3.1459,3.1881,3.1788,3.1771,3.193,3.2208,3.2267,3.1893,3.0299,2.9178,2.8791,2.5455,2.2736,2.1126,1.9793,1.8817,1.8263,1.7747,1.7162,1.6562,1.7623,1.7395,1.5841,1.7911,1.4028,0.4681,-0.4666,-0.8768,-0.8607,-0.9683,-1.0414,-1.0925,-1.0897,-1.1282,-1.1945,-1.2006,-1.2401,-1.2975,-1.3756,-1.4117,-1.4365,0.0,-2.5849,-2.6015,-2.5107,-2.5418,-2.5395,-2.4234,-2.3364,-2.2656,-2.2162,-2.0906,-1.9976,-1.9813,-1.9632,-1.9943,-2.1038,-2.1883,-2.2978,-2.4521,-2.6506,-2.7898,-2.8411,-2.9317,-2.9671,-2.9382,-2.9692,-2.9794,-2.9604,-2.9399,-2.9307,-2.9289,-2.844,-2.7807,-2.7278,-2.5754,-2.4269,-2.2697,-1.8677,-1.5667,-1.3437,-1.249,-1.1818,-1.1465,-1.2934,-1.3964,-1.4724,-1.5218,-1.6895,-1.9279,-2.124,-2.2125,-2.2569,-2.3907,-2.4038,-2.3798,-2.4132,-2.3364,-2.1713,-1.8566,-1.3773,-0.8495,-0.3782,0.2303,0.0,0.0,1.348,1.6513,1.7839,1.9713,2.1173,2.1464,2.3198,2.4662,2.4894,2.6965,2.8864,2.9676,3.0791,3.1506,3.1506,3.1723,3.175,3.1507,3.0497,2.9217,2.7772,2.5095,2.298,2.1684,2.0555,1.9498,1.8478,1.8207,1.7921,1.759,1.7616,1.8095,1.895,1.5322,1.1097,0.6208,-0.4315,-0.8996,-0.8874,-0.9826,-1.0663,-1.1297,-1.1082,-1.1659,-1.2657,-1.2283,-1.2591,-1.3251,-1.3735,-1.4251,-1.4852,-2.745,-2.7643,-2.7595,-2.711,-2.7072,-2.6674,-2.5367,-2.419,-2.2877,-2.1289,-1.9844,-1.8684,-1.7966,-1.8594,-1.9459,-2.0489,-2.1537,-2.2734,-2.4087,-2.6412,-2.8076,-2.8818,-2.9867,-3.0283,-2.9989,-3.0398,-3.0603,-3.0648,-3.0034,-2.9665,-2.9449,-2.8127,-2.7543,-2.7566,-2.627,-2.4868,-2.3185,-1.9169,-1.5598,-1.2453,-1.0498,-1.0119,-1.0797,-1.0372,-1.1529,-1.3437,-1.3857,-1.5845,-1.854,-2.0487,-2.1299,-2.1717,-2.3213,-2.3438,-2.3249,-2.3552,-2.2717,-2.1542,-2.0667,-1.6945,-1.2734,-1.0189,-0.4819,0.0439,0.0,0.0,0.0,0.84,0.9065,0.9772,1.0151,1.2456,1.4886,1.6598,1.9894,2.2991,2.5183,2.8701,3.1107,3.1278,3.117,3.1165,3.1476,3.0802,2.9293,2.664,2.5205,2.3981,2.2943,2.1786,2.0628,1.9528,1.909,1.8387,1.7321,1.636,1.6966,1.8986,1.0339,0.5744,0.4546,-0.437,-0.8786,-0.9392,-1.032,-1.1302,-1.2164,-1.1934,-1.2753,-1.4023,-1.3128,-1.3385,-1.4278,-1.4367,-1.5037,-1.5957,-2.816,-2.8546,-2.8764,-2.7995,-2.748,-2.6876,-2.5939,-2.3698,-2.0912,-1.7478,-1.6586,-1.6274,-1.6247,-1.6578,-1.7796,-2.0311,-2.1013,-2.1796,-2.2918,-2.5265,-2.6393,-2.5925,-2.8388,-3.0177,-3.1026,-3.0234,-3.0627,-3.2235,-3.0892,-2.9828,-2.9024,-2.6928,-2.62,-2.6555,-2.4017,-2.2493,-2.1589,-1.7501,-1.4276,-1.179,-0.9786,-0.8047,-0.7029,-1.0048,-1.0316,-0.9495,-1.285,-1.4735,-1.6126,-1.8985,-1.9999,-2.0272,-2.1382,-2.2197,-2.2625,-2.1781,-2.1905,-2.193,-2.0233,-1.8365,-1.6111,-1.3125,-1.0066,-0.7052,-0.4171,0.0,0.2172,0.3119,0.0,0.6975,0.682,0.0,0.0,0.8421,0.8795,1.0881,1.6381,2.4861,3.0773,3.1547,3.1006,3.1142,3.2576,3.1831,3.0074,2.7201,2.6666,2.6029,2.5007,2.29,2.1779,2.1999,2.0147,1.6831,1.2024,1.3105,1.1135,0.6136,0.6706,0.343,-0.3289,-0.6215,-0.8013,-0.8864,-1.057,-1.2313,-1.3968,-1.47,-1.5343,-1.5782,-1.4384,-1.4584,-1.5722,-1.6069,-1.6495,-1.6993,-2.9567,-2.9738,-2.9659,-2.8692,-2.8458,-2.7811,-2.5932,-2.2731,-1.9383,-1.6359,-1.5941,-1.5824,-1.5388,-1.6727,-1.8102,-1.9225,-2.095,-2.2359,-2.3242,-2.5869,-2.7468,-2.7593,-2.9198,-3.021,-3.0363,-3.0435,-3.0751,-3.13,-3.0352,-2.9723,-2.9295,-2.6962,-2.5563,-2.4896,-2.2864,-2.0824,-1.8802,-1.5525,-1.2716,-1.0245,-0.7978,-0.6293,-0.5301,-0.7017,-0.755,-0.8069,-1.2146,-1.3794,-1.4481,-1.7021,-1.8378,-1.9177,-1.9978,-2.1097,-2.2183,-2.1786,-2.1756,-2.1533,-2.0076,-1.8845,-1.7353,-1.4868,-1.322,-1.1667,-0.9682,-0.8559,-0.768,-0.7014,0.0,0.0,0.0,0.0,0.0,0.0,-0.0836,0.0456,0.5715,0.5232,1.1436,3.0536,3.2194,3.19,3.2246,3.1547,2.9973,2.7265,2.7579,2.7121,2.5332,2.4604,2.384,2.295,2.1778,1.834,1.2431,0.8553,0.5487,0.3205,-0.0354,-0.1156,0.047,-0.0382,-0.0515,-0.0242,-0.3649,-0.656,-0.9028,-1.1262,-1.3346,-1.5117,-1.5368,-1.5947,-1.6691,-1.6981,-1.7422,-1.7902,-3.116,0.0,-3.0356,-2.9973,-2.9456,-2.8218,-2.5533,-2.2025,-1.8863,-1.6507,-1.6118,-1.5873,-1.5487,-1.7127,-1.8556,-1.9002,-2.1364,-2.2979,-2.3501,-2.6134,-2.7826,-2.8079,-2.9383,-2.9801,-2.9178,-3.0269,-3.061,-3.0149,-2.9704,-2.9504,-2.9434,-2.7158,-2.5413,-2.4048,-2.152,-1.8988,-1.6375,-1.3235,-1.0623,-0.8398,-0.6332,-0.4725,-0.3821,-0.4624,-0.5711,-0.7245,-1.0748,-1.2255,-1.2986,-1.4759,-1.6235,-1.7484,-1.8304,-1.9604,-2.0825,-2.1008,-2.1054,-2.0742,-1.9396,-1.8517,-1.7503,-1.5488,-1.4817,-1.4381,-1.3402,-1.394,-1.4651,-1.4604,-1.5546,0.0,0.0,0.0,-1.4935,-0.96,0.0,-0.9375,-0.6356,-1.0349,-0.304,2.5468,3.1168,3.2461,3.1764,3.1593,3.0434,2.7761,2.8353,2.7919,2.585,2.5255,2.4272,2.2806,2.2145,1.8012,1.0006,0.4802,0.1753,0.0715,-0.4326,-0.3048,0.3751,0.3556,0.3979,0.4586,0.0222,-0.3294,-0.6188,-0.9214,-1.1921,-1.436,-1.6065,-1.6883,-1.7201,-1.7755,-1.8323,-1.8792,-3.2852,-3.1525,-3.0829,-3.2145,-3.0299,-2.7609,-2.4587,-2.181,-1.9506,-1.8038,-1.6732,-1.6156,-1.6711,-1.7469,-1.8639,-2.0381,-2.2328,-2.3436,-2.3352,-2.5455,-2.6342,-2.5369,-2.785,-2.8701,-2.7611,-2.9435,-3.0108,-2.9448,-2.9295,-2.9197,-2.9164,-2.7187,-2.5775,-2.4652,-1.9584,-1.6618,-1.507,-1.0574,-0.7838,-0.6407,-0.5127,-0.3489,-0.1961,-0.4092,-0.5494,-0.6621,-0.8081,-0.9722,-1.1432,-1.2464,-1.3532,-1.4626,-1.6219,-1.7316,-1.8091,-1.8475,-1.9217,-1.9493,-1.776,-1.7231,-1.6773,-1.4721,-1.4758,-1.5138,-1.4719,-1.5233,-1.602,-1.6991,-1.7211,-1.7642,-1.8784,-1.8367,-1.7708,-1.7284,-1.7843,0.0,0.0,-1.5081,-0.4291,1.4609,2.6349,3.2493,3.1514,3.2452,3.1968,2.9158,2.9092,2.8589,2.7204,2.4083,2.2029,2.1376,2.04,1.3938,0.152,0.2672,0.0829,-0.4053,-0.2545,-0.0188,0.2823,0.2375,0.1867,0.1149,-0.2706,-0.5909,-0.858,-1.1093,-1.284,-1.4141,-1.6387,-1.7175,-1.7171,-1.862,-1.9402,-1.9765,-3.3641,-3.2689,-3.1897,-3.2253,-3.0623,-2.8125,-2.4776,-2.1863,-1.9878,-1.9188,-1.8284,-1.7862,-1.8371,-1.9421,-2.0664,-2.2035,-2.3264,-2.4231,-2.4885,-2.6501,-2.7477,-2.7726,-2.8711,-2.9348,-2.9478,-3.0134,-3.0376,-3.0141,-2.9539,-2.9291,-2.9198,-2.6841,-2.4717,-2.2715,-1.8586,-1.5284,-1.255,-0.9502,-0.7489,-0.6298,-0.4518,-0.2951,-0.1725,-0.3154,-0.3949,-0.4575,-0.7066,-0.8855,-1.0095,-1.1133,-1.2553,-1.4106,-1.5267,-1.6729,-1.7994,-1.841,-1.9113,-1.947,-1.7973,-1.8198,-1.8423,-1.6646,-1.7012,-1.7599,-1.6815,-1.7168,-1.779,-1.7973,-1.8544,-1.9103,-1.9572,-1.9015,-1.8835,-2.0091,-2.1024,-2.2084,0.0,-1.3319,-0.2914,0.4441,1.9182,2.7202,2.3316,2.1459,1.8549,1.3865,1.6628,1.8604,1.8724,2.0388,2.1071,2.0528,2.0852,1.6403,0.6704,0.8058,0.5745,-0.0177,0.1502,0.4308,0.8045,0.8783,0.9487,0.9857,0.4838,0.0945,-0.2151,-0.6593,-0.9583,-1.1623,-1.4544,-1.5921,-1.6482,-1.8756,-1.9598,-1.9669,-3.441,-3.3859,-3.3202,-3.2879,-3.0689,-2.8066,-2.5429,-2.2411,-2.0492,-2.0482,-2.0002,-1.9877,-2.0481,-2.1767,-2.2987,-2.3835,-2.478,-2.5541,-2.6051,-2.7221,-2.8158,-2.8636,-2.9316,-2.9813,-3.0178,-3.063,-3.0509,-2.9806,-2.9746,-2.9595,-2.93,-2.7076,-2.5017,-2.2875,-1.8612,-1.4962,-1.1773,-0.87,-0.682,-0.574,-0.4008,-0.2853,-0.227,-0.3281,-0.3669,-0.3982,-0.6391,-0.8036,-0.9244,-0.9903,-1.1307,-1.3111,-1.4437,-1.5641,-1.6712,-1.762,-1.8364,-1.8764,-1.805,-1.855,-1.9095,-1.8143,-1.8636,-1.9091,-1.8439,-1.875,-1.9032,-1.8931,-1.9393,-1.9961,-2.0494,-1.9943,-2.0074,-2.2003,-2.2917,-2.4205,0.0,-1.5004,-0.6342,-0.6294,1.2808,2.3729,1.793,1.1003,0.5987,0.3846,0.8465,1.1927,1.3121,1.8221,2.0857,2.0323,1.9697,1.6293,0.971,1.2069,1.0102,0.3892,0.6809,0.9222,1.1121,1.1848,1.2131,1.1787,0.7375,0.3688,0.0343,-0.4131,-0.7274,-0.9552,-1.3044,-1.4716,-1.5515,-1.809,-1.9251,-1.9588,-3.5051,-3.4774,-3.4427,-3.3913,-3.0509,-2.7446,-2.6399,-2.3462,-2.1487,-2.1989,-2.1876,-2.2115,-2.2942,-2.4404,-2.5419,-2.5847,-2.6741,-2.7061,-2.6574,-2.7728,-2.8292,-2.8078,-2.944,-3.0075,-2.9699,-3.0896,-3.0612,-2.8742,-2.9883,-3.0123,-2.9425,-2.7971,-2.6545,-2.4862,-1.9576,-1.5613,-1.2599,-0.8343,-0.5987,-0.4927,-0.3787,-0.3357,-0.3433,-0.4448,-0.4919,-0.5074,-0.5935,-0.7346,-0.8792,-0.8782,-0.993,-1.169,-1.3553,-1.4082,-1.4419,-1.6201,-1.7031,-1.7451,-1.7874,-1.8301,-1.8711,-1.9235,-1.9517,-1.9646,-1.967,-1.976,-1.9849,-1.9874,-1.9886,-2.0258,-2.1513,-2.1236,-2.1393,-2.3176,-2.3846,-2.539,-2.8898,-1.9895,-1.3902,-1.6549,0.6796,2.0641,1.4372,0.153,-0.4844,-0.1131,0.4585,0.8659,1.0463,1.7528,2.1223,2.0612,1.7358,1.3924,1.0283,1.449,1.3643,0.7813,1.2867,1.4067,1.1855,1.1533,0.9864,0.7144,0.4981,0.2182,-0.109,-0.391,-0.6145,-0.8117,-1.1966,-1.3785,-1.4556,-1.6904,-1.8513,-1.96,-3.4339,-3.3542,-3.2652,-3.1837,-2.953,-2.7277,-2.5666,-2.4304,-2.3685,-2.4167,-2.4277,-2.4448,-2.4979,-2.5719,-2.6405,-2.6854,-2.6824,-2.6851,-2.7088,-2.7012,-2.7562,-2.8719,-2.9108,-2.9868,-3.0974,-3.1302,-3.1228,-3.0791,-3.0117,-2.999,-3.0167,-2.8311,-2.673,-2.5223,-2.0019,-1.6307,-1.3585,-0.9954,-0.7873,-0.7134,-0.677,-0.6599,-0.6572,-0.6805,-0.7431,-0.7977,-0.6576,-0.7236,-0.8772,-0.8689,-0.9863,-1.169,-1.3553,-1.4082,-1.4419,-1.6201,-1.6807,-1.6992,-1.7657,-1.8427,-1.9148,-1.9796,-2.0197,-2.0548,-2.089,-2.0732,-2.0552,-2.0966,-2.1054,-2.1335,-2.2201,-2.1822,-2.1985,-2.3825,-2.4642,-2.5641,-2.7476,-2.0314,-1.4552,-1.3642,-0.6885,-0.3029,-0.4859,-0.9236,-1.2975,-1.5455,-0.4566,0.2756,0.4015,1.524,2.1225,2.0257,2.0456,1.8788,1.5068,1.7328,1.66,1.2827,1.4208,1.409,1.2608,1.2484,1.0776,0.7842,0.5898,0.302,-0.0484,-0.3744,-0.5889,-0.7517,-1.1556,-1.4526,-1.6724,-1.8123,-1.9075,-1.9726,-3.487,-3.3535,-3.2034,-3.0752,-2.9607,-2.8197,-2.6134,-2.5137,-2.4731,-2.5194,-2.5791,-2.6306,-2.6414,-2.7112,-2.7656,-2.7989,-2.7271,-2.7137,-2.7806,-2.7663,-2.8182,-2.9504,-2.9889,-3.0524,-3.1467,-3.1824,-3.1674,-3.1091,-3.0588,-3.0422,-3.0427,-2.8611,-2.6993,-2.5369,-2.1429,-1.7707,-1.4156,-1.0639,-0.8961,-0.8557,-0.8554,-0.8449,0.0,-0.8424,-0.868,-0.8891,-0.7586,-0.8087,-0.9264,-0.9034,-0.992,-1.1372,-1.31,-1.3611,-1.3937,-1.5643,-1.6289,-1.6612,-1.7438,-1.8349,-1.929,-2.0064,-2.0489,-2.0806,-2.1054,-2.0945,-2.0806,-2.1066,-2.1129,-2.1437,-2.2419,-2.209,-2.2321,-2.4321,-2.525,-2.5926,-2.6649,-2.2997,-1.9837,-1.8763,-1.7353,-1.69,-1.805,-1.7287,-1.7888,-2.0746,-1.1053,-0.2823,0.2172,1.5103,2.2207,2.1907,2.201,2.0802,1.8186,1.8543,1.7416,1.4709,1.5242,1.4549,1.2871,1.2919,1.1064,0.7662,0.5949,0.341,0.0137,-0.3491,-0.5458,-0.6653,-1.1802,-1.5517,-1.8166,-1.9326,-1.9721,-1.9774,-3.5903,-3.4224,-3.2298,-3.0842,-3.0488,-2.9737,-2.7651,-2.6433,-2.5757,-2.5982,-2.7064,-2.7729,-2.7555,-2.8359,-2.8863,-2.8861,-2.8037,-2.7729,-2.8397,-2.8719,-2.9226,-3.0024,-3.0719,-3.1155,-3.1285,-3.1839,-3.1599,-3.0507,-3.0937,-3.0935,-3.0495,-2.9056,-2.7442,-2.5621,-2.3041,-1.9144,-1.432,-1.1306,-1.0046,-1.0231,-1.0111,-1.0034,-1.0034,-1.0034,-0.9876,-0.9547,-0.9395,-0.9569,-0.9788,-0.9539,-1.003,-1.1052,-1.252,-1.307,-1.3425,-1.4932,-1.5684,-1.6207,-1.7068,-1.8013,-1.8991,-2.0062,-2.0379,-2.0482,-2.074,-2.0819,-2.0819,-2.0819,-2.0882,-2.1245,-2.2378,-2.2221,-2.2595,-2.4619,-2.5568,-2.6092,-2.6045,-2.6102,-2.6182,-2.6367,-2.4084,0.0,-2.5318,-2.2283,-2.0345,-2.0748,-1.3863,-0.5772,0.3052,1.6108,2.3506,2.3949,2.2125,2.0636,1.9663,1.8312,1.6667,1.4835,1.5788,1.5073,1.2956,1.325,1.1232,0.7443,0.5947,0.3723,0.0807,-0.2851,-0.5045,-0.6681,-1.2718,-1.6709,-1.9241,-2.0478,-2.0543,-2.0046,-3.6046,-3.4712,-3.3489,-3.359,-3.2169,-3.0991,-3.0922,-3.0077,-2.9207,-2.845,-2.8986,-2.921,-2.8661,-2.8775,-2.8832,-2.8617,-2.8412,-2.8225,-2.8102,-2.8126,-2.834,-2.8627,-2.8785,-2.9198,-2.9924,-3.0043,-3.0238,-3.0507,-3.0072,-3.0329,-3.1198,-3.0337,-2.8822,-2.6751,-2.3492,-1.913,-1.4181,-1.3776,-1.3838,-1.4209,-1.4155,-1.414,-1.414,-1.414,-1.3916,-1.3439,-1.3245,-1.1611,-0.9533,-0.9421,-1.0314,-1.1772,-1.2704,-1.3485,-1.4213,-1.5108,-1.5469,-1.5703,-1.6436,-1.6774,-1.7381,-1.9268,-1.9371,-1.9473,-2.1019,-2.1343,-2.1343,-2.1343,-2.1707,-2.2168,-2.2542,-2.2958,-2.355,-2.4358,-2.5103,-2.5347,-2.4823,-2.5211,-2.5211,-2.4258,-2.2899,-2.2149,-2.2419,-2.105,-2.0274,-2.068,-0.7356,0.1782,0.4103,1.6704,2.3505,2.2749,1.9998,1.8491,1.8345,1.5812,1.4855,1.5454,1.5152,1.4549,1.3663,1.4185,1.2493,0.9004,0.7652,0.5135,0.1764,-0.0976,-0.5575,-1.1277,-1.4943,-1.8112,-2.0735,-2.1722,-2.1915,-2.1539,-3.6593,-3.5876,-3.5214,-3.5126,-3.4201,-3.3374,-3.3057,-3.2365,-3.1349,-3.0042,-3.0388,-3.0415,-2.946,-2.9355,-2.9326,-2.9214,-2.8608,-2.8384,-2.8633,-2.8355,-2.841,-2.8946,-2.8987,-2.9167,-2.9579,-2.9579,-2.9729,-3.0028,-3.0014,-3.0115,-3.0413,-3.0238,-2.8997,-2.6688,-2.2538,-1.877,-1.5447,-1.523,-1.5171,-1.5251,-1.5433,-1.54,-1.5138,-1.4957,-1.4591,-1.4229,-1.3868,-1.2716,-1.1326,-1.1247,-1.1764,-1.2573,-1.3364,-1.3914,-1.4392,-1.5167,-1.5254,-1.5145,-1.5532,-1.5729,-1.6137,-1.7367,-1.8024,-1.8682,-1.9799,-2.061,-2.1066,-2.1066,-2.128,-2.1617,-2.2038,-2.2958,-2.3666,-2.3948,-2.4541,-2.4754,-2.4097,-2.4557,-2.4652,-2.3728,-2.2585,-2.2203,-2.3087,-2.0954,-1.8702,-1.6677,-0.4386,0.3938,0.6088,1.5908,2.1259,2.0868,1.8828,1.7478,1.6938,1.5992,1.5504,1.5429,1.5551,1.5152,1.4283,1.456,1.2969,0.9931,0.8224,0.6494,0.4443,-0.1079,-0.7228,-1.3565,-1.7311,-2.0092,-2.2007,-2.2183,-2.1918,-2.1426,-3.7436,-3.7134,-3.6927,-3.6529,-3.6109,-3.5605,-3.4851,-3.4118,-3.297,-3.1182,-3.1227,-3.0911,-2.9701,-2.9577,-2.9532,-2.9475,-2.8574,-2.8338,-2.9117,-2.8639,-2.8598,-2.916,-2.9146,-2.9146,-2.9146,-2.9146,-2.922,-2.937,-2.979,-2.9848,-2.9503,-2.9809,-2.8571,-2.5928,-2.1901,-1.9083,-1.7382,-1.688,-1.6519,-1.6349,-1.6714,-1.6475,-1.5904,-1.553,-1.5005,-1.4453,-1.409,-1.374,-1.3476,-1.3399,-1.3305,-1.3373,-1.4025,-1.4269,-1.4449,-1.51,-1.498,-1.4648,-1.4648,-1.4797,-1.507,-1.5637,-1.671,-1.7791,-1.8412,-1.9556,-2.0453,-2.0501,-2.0729,-2.1081,-2.1602,-2.2741,-2.3595,-2.3595,-2.4178,-2.4388,-2.3684,-2.4193,-2.4373,-2.3879,-2.301,-2.2934,-2.4,-2.1392,-1.7575,-1.2622,-0.3608,0.3447,0.7555,1.4492,1.8583,1.904,1.7797,1.6838,1.6129,1.6401,1.609,1.5319,1.5996,1.5688,1.4514,1.4652,1.3274,1.0697,0.8968,0.7623,0.6016,-0.215,-0.8568,-1.3749,-1.8893,-2.1498,-2.2322,-2.2231,-2.1582,-2.0789,-3.8821,-3.8287,-3.8038,-3.8541,-3.7549,-3.6662,-3.6492,-3.5873,-3.4403,-3.1887,-3.1048,-3.0211,-2.9054,-2.8903,-2.8802,-2.8453,-2.8369,-2.8407,-2.8643,-2.8606,-2.836,-2.7784,-2.7805,-2.7805,-2.7805,-2.7805,-2.8068,-2.8682,-2.8667,-2.8962,-2.9518,-2.9496,-2.7689,-2.4465,-2.2911,-2.1255,-1.9599,-1.9522,-1.9745,-2.0117,-2.0161,-1.9372,-1.8263,-1.8212,-1.7239,-1.593,-1.5882,-1.5532,-1.5109,-1.4734,-1.4389,-1.4085,-1.4213,-1.4436,-1.4788,-1.4844,-1.4531,-1.4199,-1.4199,-1.416,-1.4387,-1.5091,-1.5669,-1.6481,-1.7859,-1.897,-1.9721,-1.9883,-2.0785,-2.1636,-2.171,-2.2741,-2.3595,-2.3595,-2.4178,-2.4388,-2.3684,-2.4193,-2.4567,-2.4492,-2.4388,-2.3954,-2.2956,-2.2049,-1.8657,-1.1663,-0.5161,0.1123,0.7012,1.2778,1.6476,1.7927,1.6443,1.6035,1.686,1.5426,1.4876,1.5319,1.5566,1.5039,1.3909,1.4468,1.3611,1.1653,1.0831,0.8262,0.3946,-0.3928,-0.833,-1.0896,-1.8524,-2.113,-2.07,-2.1983,-2.1574,-2.0268,-4.0225,-3.9904,-3.9713,-3.9647,-3.8385,-3.7411,-3.7357,-3.6014,-3.4591,-3.353,-3.2414,-3.1275,-2.9971,-2.9841,-2.9624,-2.9116,-2.8689,-2.8527,-2.8622,-2.8203,-2.7859,-2.7625,-2.7625,-2.7625,-2.7625,-2.7625,-2.7709,-2.7979,-2.8327,-2.8473,-2.8388,-2.9076,-2.8233,-2.6141,-2.46,-2.3167,-2.1777,-2.1335,-2.0938,-2.0613,-2.0839,-2.0289,-1.9247,-1.8964,-1.8261,-1.7355,-1.7069,-1.6582,-1.6022,-1.5618,-1.5031,-1.4516,-1.4213,-1.4246,-1.4394,-1.4394,-1.4337,-1.4185,-1.3854,-1.381,-1.3951,-1.4124,-1.4932,-1.5897,-1.6756,-1.7874,-1.8856,-1.9258,-2.0567,-2.1697,-2.1697,-2.2741,-2.3595,-2.3595,-2.3819,-2.3924,-2.364,-2.3834,-2.3879,-2.3505,-2.346,-2.3255,-2.2758,-2.1449,-1.8058,-1.1955,-0.5371,0.1088,0.7315,1.2576,1.6132,1.7845,1.6255,1.5733,1.6467,1.5355,1.4795,1.4784,1.4968,1.4595,1.3815,1.405,1.31,1.1223,1.1332,0.9678,0.6171,-0.252,-0.6504,-0.804,-1.6748,-1.9866,-1.9467,-1.9339,-1.8986,-1.848,-4.0926,-4.0665,-4.0383,-3.9754,-3.8623,-3.7766,-3.7534,-3.6032,-3.4755,-3.432,-3.3248,-3.2018,-3.0697,-3.0522,-3.0135,-2.9109,-2.8382,-2.8008,-2.8008,-2.7365,-2.6991,-2.6991,-2.6991,-2.6991,-2.6991,-2.7235,-2.7325,-2.7325,-2.7951,-2.7993,-2.7625,-2.8496,-2.829,-2.7172,-2.5925,-2.4633,-2.3395,-2.2898,-2.2092,-2.1093,-2.1377,-2.0791,-1.967,-1.9387,-1.8758,-1.8058,-1.7701,-1.7159,-1.6533,-1.6106,-1.5542,-1.4831,-1.4287,-1.4149,-1.4188,-1.4188,-1.4317,-1.4397,-1.3978,-1.3838,-1.3757,-1.362,-1.4366,-1.5333,-1.5885,-1.6977,-1.8102,-1.8858,-2.0289,-2.1503,-2.1669,-2.2741,-2.3595,-2.3595,-2.3595,-2.3595,-2.3595,-2.3445,-2.3236,-2.2981,-2.2951,-2.2877,-2.2739,-2.121,-1.7924,-1.227,-0.5631,0.1007,0.7507,1.2387,1.5787,1.7551,1.6191,1.5625,1.6115,1.5297,1.4644,1.4163,1.4512,1.4283,1.3552,1.3294,1.2425,1.1115,1.1399,1.0012,0.694,-0.1633,-0.5516,-0.6894,-1.5543,-1.8407,-1.7557,-1.6847,-1.6582,-1.6583,-4.0736,-4.0167,-3.9569,-3.8762,-3.8213,-3.7669,-3.6924,-3.6185,-3.5169,-3.3689,-3.2919,-3.2019,-3.0756,-3.0576,-2.9797,-2.781,-2.6991,-2.6617,-2.6617,-2.6004,-2.563,-2.563,-2.563,-2.563,-2.563,-2.6273,-2.6602,-2.6602,-2.7295,-2.7625,-2.7625,-2.761,-2.724,-2.651,-2.651,-2.5687,-2.4292,-2.4305,-2.3515,-2.2264,-2.2264,-2.119,-1.9602,-1.9602,-1.8762,-1.7578,-1.7578,-1.7265,-1.6732,-1.6356,-1.5802,-1.5127,-1.4353,-1.4234,-1.4401,-1.4401,-1.4558,-1.4709,-1.4663,-1.4247,-1.3815,-1.3779,-1.4115,-1.4599,-1.5341,-1.6356,-1.7459,-1.8759,-2.0033,-2.1079,-2.16,-2.2741,-2.3595,-2.3595,-2.3595,-2.3595,-2.3595,-2.3071,-2.2906,-2.352,-2.3595,-2.334,-2.2783,-2.1916,-1.8754,-1.2485,-0.6339,0.0189,0.7353,1.1803,1.4876,1.6685,1.5879,1.5625,1.6115,1.4971,1.4123,1.3496,1.4333,1.4061,1.2881,1.2187,1.1814,1.1765,1.1116,0.8741,0.4912,-0.2201,-0.5962,-0.8008,-1.5418,-1.687,-1.4755,-1.5049,-1.4942,-1.4744,-4.0466,-4.0203,-3.9739,-3.8756,-3.8077,-3.7432,-3.6898,-3.6114,-3.5253,-3.4326,-3.4013,-3.297,-3.0664,-2.9659,-2.8742,-2.7641,-2.6559,-2.5914,-2.5914,-2.5719,-2.5615,-2.5615,-2.5615,-2.5615,-2.5615,-2.5809,-2.5914,-2.5914,-2.6572,-2.7126,-2.7625,-2.7625,-2.7712,-2.7897,-2.7292,-2.6313,-2.5092,-2.4496,-2.3327,-2.1744,-2.1744,-2.1194,-2.0382,-2.0382,-1.9851,-1.9049,-1.8709,-1.8148,-1.7443,-1.6629,-1.5887,-1.52,-1.4698,-1.4536,-1.4595,-1.4595,-1.4948,-1.5231,-1.4789,-1.456,-1.4329,-1.3909,-1.4204,-1.4653,-1.4887,-1.6173,-1.7526,-1.8287,-1.975,-2.1046,-2.1589,-2.2747,-2.3595,-2.3595,-2.3595,-2.3595,-2.3595,-2.3071,-2.2686,-2.272,-2.2481,-2.2288,-2.2285,-2.1298,-1.845,-1.319,-0.6821,0.0064,0.7412,1.1479,1.5083,1.8253,1.6178,1.5414,1.6366,1.4669,1.3551,1.3076,1.3357,1.3025,1.2129,1.1431,1.1132,1.1007,0.8813,0.6716,0.4321,-0.2835,-0.6353,-0.7664,-1.2011,-1.334,-1.2657,-1.2244,-1.234,-1.2918,-3.9761,-3.9732,-3.9389,-3.8095,-3.7219,-3.6481,-3.5873,-3.523,-3.4523,-3.3761,-3.366,-3.2892,-3.0883,-2.9275,-2.805,-2.7162,-2.6123,-2.5455,-2.5241,-2.5001,-2.4852,-2.4852,-2.4852,-2.4852,-2.4852,-2.5106,-2.5241,-2.5241,-2.5899,-2.6557,-2.72,-2.72,-2.756,-2.8203,-2.7372,-2.6467,-2.543,-2.4422,-2.3091,-2.1537,-2.1277,-2.084,-2.0338,-2.0338,-1.9987,-1.9472,-1.9096,-1.8437,-1.7618,-1.6998,-1.63,-1.5707,-1.5437,-1.5389,-1.5332,-1.5096,-1.5466,-1.5876,-1.5466,-1.5197,-1.4971,-1.4595,-1.4778,-1.5107,-1.5332,-1.6244,-1.7289,-1.8053,-1.9293,-2.0522,-2.1541,-2.2569,-2.3325,-2.3565,-2.3595,-2.3595,-2.3595,-2.2847,-2.2445,-2.2757,-2.2124,-2.197,-2.258,-2.1578,-1.896,-1.4245,-0.7661,-0.0908,0.5788,1.085,1.4868,1.7569,1.6052,1.5581,1.6396,1.4738,1.3671,1.3238,1.2472,1.1855,1.1382,0.989,0.8762,0.7866,0.5788,0.3067,-0.032,-0.5364,-0.8327,-0.9888,-1.2067,-1.2778,-1.2434,-1.1733,-1.1809,-1.2423,-3.867,-3.8718,-3.8379,-3.6795,-3.5862,-3.5005,-3.4159,-3.3676,-3.3093,-3.2347,-3.2195,-3.1833,-3.1055,-2.9287,-2.7688,-2.6502,-2.5737,-2.5124,-2.4672,-2.3998,-2.358,-2.3578,-2.3535,-2.352,-2.3475,-2.4148,-2.4492,-2.4582,-2.5241,-2.5869,-2.6512,-2.6512,-2.6841,-2.741,-2.6797,-2.6125,-2.5293,-2.4128,-2.279,-2.1445,-2.0898,-2.0253,-1.9698,-1.9698,-1.9397,-1.897,-1.8883,-1.8254,-1.7375,-1.7338,-1.6961,-1.6522,-1.6522,-1.6522,-1.638,-1.582,-1.6051,-1.6522,-1.6522,-1.6051,-1.5588,-1.5588,-1.5588,-1.5764,-1.6411,-1.6552,-1.6875,-1.7995,-1.8753,-1.9656,-2.1313,-2.2201,-2.2862,-2.3445,-2.3535,-2.3535,-2.3535,-2.2514,-2.2169,-2.3368,-2.2499,-2.2299,-2.3443,-2.254,-2.0021,-1.5486,-0.8741,-0.2522,0.2779,0.9794,1.4179,1.5264,1.5704,1.5998,1.6233,1.5153,1.4268,1.3569,1.1635,1.0622,1.042,0.7629,0.5117,0.2982,0.207,-0.1973,-0.7976,-0.9523,-1.1757,-1.4283,-1.4889,-1.4597,-1.3784,-1.3052,-1.2803,-1.2968,-3.6948,-3.6911,-3.6523,-3.5097,-3.5175,-3.4959,-3.3422,-3.3128,-3.2715,-3.1625,-3.097,-3.0108,-2.8772,-2.8174,-2.7431,-2.6205,-2.5219,-2.476,-2.5044,-2.4124,-2.3568,-2.3446,-2.3111,-2.2652,-2.2158,-2.2802,-2.3625,-2.4582,-2.4746,-2.5196,-2.5839,-2.5839,-2.5929,-2.6063,-2.5914,-2.5195,-2.4125,-2.3789,-2.2394,-2.0347,-2.0201,-1.9536,-1.8581,-1.8581,-1.8505,-1.8342,-1.7928,-1.7601,-1.7313,-1.6873,-1.6635,-1.6522,-1.6522,-1.6522,-1.6466,-1.6324,-1.638,-1.6522,-1.6522,-1.6051,-1.5588,-1.5588,-1.5588,-1.5852,-1.6896,-1.7118,-1.7434,-1.8498,-1.9237,-1.9958,-2.0784,-2.1898,-2.2768,-2.2877,-2.2892,-2.2892,-2.2892,-2.2504,-2.2309,-2.257,-2.2847,-2.3047,-2.3222,-2.233,-1.9946,-1.5678,-0.9219,-0.3347,0.162,0.7954,1.2661,1.5245,1.5704,1.6213,1.6789,1.5315,1.358,1.1495,1.0398,0.9052,0.7477,0.5659,0.3214,0.025,-0.2408,-0.6951,-1.2627,-1.4009,-1.6176,-1.8374,-1.5971,-1.4916,-1.4596,-1.3154,-1.2705,-1.2938,-3.4818,-3.4999,-3.4806,-3.372,-3.3743,-3.3468,-3.2135,-3.1638,-3.1145,-3.0512,-2.9932,-2.9279,-2.845,-2.8027,-2.7398,-2.6399,-2.5253,-2.4535,-2.4397,-2.3526,-2.2899,-2.2613,-2.2365,-2.2054,-2.171,-2.2054,-2.2577,-2.3281,-2.358,-2.4059,-2.4702,-2.5016,-2.533,-2.56,-2.53,-2.4758,-2.4036,-2.3163,-2.2016,-2.069,-1.988,-1.9139,-1.8554,-1.8298,-1.8053,-1.779,-1.7488,-1.7212,-1.6936,-1.6622,-1.6522,-1.6522,-1.6522,-1.6522,-1.6522,-1.6522,-1.6522,-1.6522,-1.6522,-1.6238,-1.6008,-1.6008,-1.6201,-1.6532,-1.7146,-1.7504,-1.7907,-1.8727,-1.9181,-1.9682,-2.0533,-2.1291,-2.1954,-2.2425,-2.2793,-2.2991,-2.2965,-2.3111,-2.3123,-2.2919,-2.3194,-2.3151,-2.2492,-2.1944,-1.9738,-1.5185,-0.9857,-0.484,-0.0241,0.5582,1.0435,1.4087,1.5135,1.5839,1.6331,1.4562,1.2512,1.0213,0.86,0.6511,0.3934,0.1406,-0.1895,-0.5788,-0.8349,-1.2527,-1.7543,-1.774,-1.9027,-2.057,-1.7996,-1.6598,-1.5897,-1.4753,-1.406,-1.3784,-3.2813,-3.3198,-3.3235,-3.2394,-3.2056,-3.1552,-3.0566,-2.9753,-2.9242,-2.9142,-2.8681,-2.8384,-2.845,-2.7791,-2.7063,-2.642,-2.528,-2.4284,-2.3519,-2.2738,-2.2095,-2.1702,-2.1584,-2.15,-2.1395,-2.15,-2.1605,-2.1695,-2.2263,-2.2847,-2.3475,-2.4059,-2.4687,-2.527,-2.4717,-2.4477,-2.4343,-2.2571,-2.1701,-2.134,-1.9655,-1.885,-1.8546,-1.8126,-1.7652,-1.725,-1.725,-1.6936,-1.6522,-1.6522,-1.6522,-1.6522,-1.6522,-1.6552,-1.6637,-1.6637,-1.668,-1.671,-1.6637,-1.668,-1.6752,-1.6752,-1.7076,-1.7422,-1.7504,-1.7907,-1.838,-1.8893,-1.9006,-1.9345,-2.0363,-2.0647,-2.1054,-2.2132,-2.2855,-2.3258,-2.3304,-2.3844,-2.4011,-2.3513,-2.3427,-2.2888,-2.1592,-2.1281,-1.9274,-1.4573,-1.0601,-0.6579,-0.2525,0.2636,0.7247,1.1136,1.3351,1.4468,1.4498,1.2735,1.069,0.8377,0.5987,0.3128,-0.0156,-0.3608,-0.7788,-1.2492,-1.4196,-1.7574,-2.179,-2.0778,-2.0936,-2.1664,-1.9997,-1.8576,-1.741,-1.6764,-1.5872,-1.5005,-3.2048,-3.2046,-3.1807,-3.0754,-3.1078,-3.0878,-2.8989,-2.8431,-2.8076,-2.7618,-2.6187,-2.5454,-2.6065,-2.5456,-2.498,-2.4862,-2.4093,-2.3677,-2.3817,-2.288,-2.2068,-2.1549,-2.1106,-2.0602,-2.0004,-2.0572,-2.1141,-2.1695,-2.1799,-2.2173,-2.2817,-2.2936,-2.331,-2.3909,-2.3804,-2.3759,-2.3714,-2.2897,-2.1684,-2.0243,-1.9446,-1.8182,-1.686,-1.6785,-1.6722,-1.666,-1.666,-1.6597,-1.6522,-1.6522,-1.6522,-1.6522,-1.6522,-1.6795,-1.7188,-1.7188,-1.7504,-1.7747,-1.7312,-1.7504,-1.7867,-1.7867,-1.7907,-1.8106,-1.8535,-1.8727,-1.893,-1.9479,-1.9566,-1.9632,-1.9824,-2.0318,-2.1054,-2.2192,-2.249,-2.2754,-2.3305,-2.3866,-2.3838,-2.2968,-2.3215,-2.2746,-2.0938,-1.9924,-1.7968,-1.4445,-1.1052,-0.78,-0.4692,-0.1339,0.1488,0.3615,0.8285,1.0302,0.9365,0.9051,0.6897,0.2927,0.1557,-0.127,-0.5322,-0.7236,-1.0846,-1.5648,-1.6895,-1.9604,-2.3092,-2.2689,-2.2453,-2.2179,-2.0304,-1.9417,-1.9053,-1.7666,-1.6744,-1.6077,-2.9523,-2.9308,-2.9016,-2.85,-2.8647,-2.8471,-2.7541,-2.7108,-2.6783,-2.6356,-2.5391,-2.4838,-2.4997,-2.4678,-2.4354,-2.3934,-2.3596,-2.321,-2.2681,-2.2199,-2.1722,-2.1252,-2.0756,-2.0228,-1.9726,-1.9989,-2.0303,-2.0602,-2.0976,-2.1321,-2.162,-2.1979,-2.2488,-2.3086,-2.2742,-2.2772,-2.3041,-2.2039,-2.0973,-1.9919,-1.8946,-1.7909,-1.6909,-1.6595,-1.6522,-1.6522,-1.6522,-1.6522,-1.6522,-1.6522,-1.6522,-1.6552,-1.6837,-1.7118,-1.7353,-1.7666,-1.7907,-1.8066,-1.7787,-1.7907,-1.8106,-1.8106,-1.8341,-1.8612,-1.8855,-1.9132,-1.9406,-1.9639,-1.969,-1.9782,-1.9965,-2.0294,-2.0813,-2.182,-2.2659,-2.3215,-2.3185,-2.4349,-2.443,-2.25,-2.2691,-2.1888,-1.9009,-1.8264,-1.6677,-1.3542,-1.153,-0.9432,-0.705,-0.4873,-0.299,-0.1371,0.4017,0.6546,0.5819,0.4809,0.2389,-0.135,-0.3144,-0.619,-1.0399,-1.2425,-1.5459,-1.9212,-2.0141,-2.1616,-2.3314,-2.2245,-2.1609,-2.1117,-1.9707,-1.9178,-1.9067,-1.8078,-1.7572,-1.73,-2.7502,-2.7207,-2.6953,-2.6916,-2.674,-2.6539,-2.6355,-2.5986,-2.565,-2.5369,-2.483,-2.4425,-2.4368,-2.413,-2.3748,-2.319,-2.3139,-2.2769,-2.1827,-2.1764,-2.1538,-2.1023,-2.0649,-2.033,-2.0015,-2.0015,-2.0015,-2.0015,-2.0419,-2.0692,-2.0843,-2.1255,-2.1814,-2.2428,-2.1919,-2.1979,-2.2368,-2.1201,-2.0333,-1.9601,-1.8553,-1.7706,-1.7076,-1.668,-1.6522,-1.6522,-1.6522,-1.6522,-1.6522,-1.6522,-1.6522,-1.6595,-1.7105,-1.7394,-1.7585,-1.8145,-1.838,-1.8458,-1.8341,-1.838,-1.8458,-1.8458,-1.8779,-1.9095,-1.9095,-1.9406,-1.969,-1.969,-1.969,-1.9782,-2.0089,-2.0246,-2.063,-2.1549,-2.2719,-2.3389,-2.3067,-2.4265,-2.4274,-2.1927,-2.1852,-2.0741,-1.7626,-1.7063,-1.5875,-1.3314,-1.2386,-1.1311,-0.9872,-0.8585,-0.7246,-0.5964,-0.0383,0.2176,0.1443,0.0111,-0.2165,-0.5336,-0.7388,-1.053,-1.4719,-1.6874,-1.9412,-2.2166,-2.2796,-2.3263,-2.3391,-2.1811,-2.0751,-2.0088,-1.9185,-1.8731,-1.8579,-1.8078,-1.7987,-1.8131,-2.7548,-2.7331,-2.7125,-2.6916,-2.674,-2.6355,-2.5605,-2.5208,-2.4951,-2.4864,-2.3686,-2.3119,-2.387,-2.305,-2.2446,-2.2395,-2.2395,-2.2333,-2.2254,-2.2254,-2.1886,-2.1039,-2.0959,-2.0926,-2.0894,-2.0894,-2.0894,-2.0894,-2.0512,-2.0647,-2.1265,-2.091,-2.1141,-2.1769,-2.1724,-2.1724,-2.1724,-2.1021,-2.0109,-1.9113,-1.8381,-1.7463,-1.6552,-1.6522,-1.6522,-1.6522,-1.6522,-1.6522,-1.6522,-1.6522,-1.6522,-1.6595,-1.7105,-1.7626,-1.8145,-1.8688,-1.9207,-1.9479,-1.8968,-1.9207,-1.9566,-1.9566,-1.9603,-1.9639,-1.9639,-1.969,-1.969,-1.969,-1.969,-1.9726,-1.9747,-2.007,-2.0686,-2.1872,-2.2164,-2.2437,-2.3023,-2.2859,-2.2256,-2.1102,-2.0458,-1.9507,-1.8062,-1.7034,-1.6056,-1.5174,-1.4095,-1.348,-1.3334,-1.2637,-1.1879,-1.1063,-0.5607,-0.3617,-0.561,-0.5194,-0.6488,-0.9582,-1.0614,-1.3337,-1.7451,-1.9064,-2.121,-2.3677,-2.4015,-2.4101,-2.3863,-2.259,-2.1346,-2.0104,-1.9244,-1.8612,-1.8092,-1.7544,-1.7666,-1.8013,-2.6151,-2.5912,-2.5699,-2.5606,-2.5338,-2.5016,-2.4685,-2.4551,-2.4372,-2.4144,-2.3656,-2.3289,-2.318,-2.2789,-2.2473,-2.2293,-2.231,-2.231,-2.231,-2.231,-2.2003,-2.1399,-2.1368,-2.1244,-2.1007,-2.0991,-2.0862,-2.055,-2.0382,-2.0281,-2.0309,-2.0173,-2.0438,-2.1066,-2.0647,-2.0677,-2.0998,-1.9994,-1.9176,-1.8423,-1.7828,-1.7146,-1.6522,-1.6522,-1.6522,-1.6522,-1.6522,-1.6522,-1.6522,-1.6522,-1.671,-1.7076,-1.7626,-1.8185,-1.8688,-1.9244,-1.953,-1.9639,-1.9442,-1.953,-1.969,-1.969,-1.969,-1.969,-1.969,-1.969,-1.969,-1.969,-1.969,-1.9782,-2.0035,-2.0177,-2.0561,-2.131,-2.1809,-2.2077,-2.2,-2.2228,-2.1759,-1.9987,-1.9851,-1.902,-1.6753,-1.6416,-1.5998,-1.4989,-1.4556,-1.4297,-1.4297,-1.4089,-1.3968,-1.4019,-1.1555,-1.0035,-0.965,-1.009,-1.1531,-1.3882,-1.5512,-1.7608,-2.0097,-2.1518,-2.2935,-2.4227,-2.427,-2.4134,-2.3795,-2.2611,-2.1333,-2.003,-1.9355,-1.8659,-1.8066,-1.7867,-1.7947,-1.8092,-2.5303,-2.5061,-2.4869,-2.4869,-2.4559,-2.4284,-2.4284,-2.4247,-2.4113,-2.3896,-2.3774,-2.3522,-2.3069,-2.2822,-2.2634,-2.2436,-2.2349,-2.231,-2.231,-2.231,-2.2163,-2.1823,-2.1823,-2.1705,-2.1415,-2.1415,-2.1181,-2.0699,-2.0583,-2.0296,-1.9874,-1.9747,-1.9944,-2.0378,-1.9899,-1.9944,-2.0326,-1.9322,-1.8574,-1.8066,-1.7504,-1.6993,-1.6522,-1.6522,-1.6595,-1.671,-1.6552,-1.671,-1.6993,-1.6795,-1.7118,-1.7626,-1.8185,-1.8727,-1.9207,-1.9603,-1.969,-1.969,-1.969,-1.969,-1.969,-1.969,-1.969,-1.969,-1.969,-1.969,-1.969,-1.969,-1.969,-1.9818,-2.0212,-2.0314,-2.0449,-2.0926,-2.1292,-2.141,-2.1047,-2.1322,-2.0858,-1.8999,-1.9128,-1.8443,-1.61,-1.6203,-1.6128,-1.5311,-1.541,-1.5531,-1.5531,-1.5531,-1.5684,-1.604,-1.5983,-1.528,-1.3858,-1.3936,-1.4827,-1.6542,-1.8271,-1.9836,-2.1311,-2.2746,-2.3815,-2.4513,-2.4589,-2.4433,-2.4028,-2.3087,-2.1883,-2.0604,-2.0082,-1.9386,-1.8607,-1.8317,-1.8257,-1.8338,-2.5303,-2.5141,-2.501,-2.501,-2.4723,-2.4512,-2.4495,-2.4339,-2.419,-2.419,-2.3917,-2.3692,-2.3692,-2.3117,-2.2721,-2.2695,-2.2463,-2.231,-2.231,-2.231,-2.231,-2.231,-2.231,-2.231,-2.231,-2.231,-2.2077,-2.1582,-2.1213,-2.0764,-2.028,-1.9874,-1.969,-1.969,-1.969,-1.969,-1.9639,-1.9132,-1.8574,-1.8066,-1.7504,-1.6993,-1.6522,-1.6522,-1.6837,-1.7229,-1.671,-1.7188,-1.8027,-1.7504,-1.7666,-1.8224,-1.8727,-1.9281,-1.969,-1.9711,-1.9711,-1.9675,-1.9711,-1.9711,-1.9711,-1.969,-1.969,-1.969,-1.969,-1.969,-1.969,-1.969,-1.969,-1.9818,-2.0212,-2.0314,-2.0449,-2.0926,-2.0583,-2.0314,-2.0314,-1.9929,-1.9281,-1.8224,-1.8106,-1.7666,-1.6595,-1.6522,-1.6522,-1.6522,-1.6993,-1.7312,-1.7312,-1.7312,-1.7325,-1.7312,-1.8495,-1.9009,-1.8829,-1.6504,-1.5954,-1.7247,-1.817,-1.9351,-2.0781,-2.2457,-2.3676,-2.4549,-2.5137,-2.5164,-2.4764,-2.4231,-2.3252,-2.2063,-2.1598,-2.0806,-1.9811,-1.8789,-1.8567,-1.8717,-2.539,-2.516,-2.501,-2.501,-2.4836,-2.4654,-2.4528,-2.4444,-2.4357,-2.4209,-2.4113,-2.3958,-2.3732,-2.3522,-2.3323,-2.3069,-2.2989,-2.2832,-2.2616,-2.2398,-2.231,-2.231,-2.231,-2.231,-2.231,-2.231,-2.2077,-2.1582,-2.1213,-2.0764,-2.028,-1.9874,-1.969,-1.969,-1.969,-1.969,-1.9639,-1.9132,-1.8574,-1.8066,-1.7504,-1.6993,-1.6552,-1.6909,-1.7146,-1.7353,-1.7544,-1.7827,-1.8066,-1.7907,-1.8224,-1.8727,-1.9281,-1.9566,-1.9747,-2.0035,-1.9576,-1.9125,-1.9681,-1.9244,-1.8812,-1.9506,-1.969,-1.969,-1.969,-1.969,-1.969,-1.969,-1.969,-1.9747,-1.9874,-1.9874,-1.9909,-2.0085,-1.998,-1.9874,-1.9874,-1.9782,-1.9281,-1.8224,-1.8438,-1.8083,-1.6633,-1.6886,-1.6961,-1.6547,-1.6993,-1.7312,-1.7312,-1.8098,-1.8741,-1.9093,-1.9945,-2.0415,-2.0552,-1.9493,-1.908,-1.9307,-2.0511,-2.1394,-2.2075,-2.3235,-2.4095,-2.4733,-2.5047,-2.5116,-2.4996,-2.4832,-2.4128,-2.3118,-2.2839,-2.1885,-2.0571,-1.9811,-1.9233,-1.8717,-2.4494,-2.4272,-2.4162,-2.4134,-2.3998,-2.3844,-2.3733,-2.3603,-2.3572,-2.3786,-2.3474,-2.3417,-2.3844,-2.3213,-2.2797,-2.291,-2.2508,-2.2154,-2.1965,-2.1713,-2.1557,-2.1557,-2.1451,-2.1674,-2.2293,-2.231,-2.2003,-2.1368,-2.1118,-2.0665,-2.0054,-1.9803,-1.969,-1.969,-1.969,-1.969,-1.9639,-1.9132,-1.8688,-1.838,-1.7827,-1.7435,-1.7146,-1.7504,-1.7747,-1.7947,-1.8066,-1.838,-1.8688,-1.8496,-1.8765,-1.9281,-1.9788,-1.9929,-1.9939,-2.0104,-1.9681,-1.9227,-1.9419,-1.8947,-1.8578,-1.9175,-1.9421,-1.9591,-1.9884,-1.9929,-1.998,-2.0174,-2.0208,-2.0208,-2.0208,-2.007,-1.9929,-1.9929,-1.9803,-1.969,-1.969,-1.969,-1.9281,-1.8224,-1.8383,-1.8015,-1.6633,-1.6835,-1.7061,-1.7144,-1.7229,-1.7504,-1.7907,-1.8611,-1.9308,-1.9872,-2.0946,-2.1531,-2.1584,-2.1831,-2.1555,-2.0719,-2.1645,-2.2283,-2.2625,-2.3554,-2.4227,-2.4659,-2.4956,-2.5168,-2.5266,-2.5227,-2.48,-2.417,-2.4033,-2.3231,-2.2074,-2.1172,-2.0384,-1.9721,-2.3076,-2.2899,-2.2871,-2.2812,-2.2652,-2.2509,-2.2498,-2.2241,-2.2297,-2.301,-2.2379,-2.2389,-2.386,-2.2446,-2.1695,-2.2399,-2.1485,-2.0849,-2.0845,-2.0598,-2.0431,-2.0407,-2.0159,-2.067,-2.2046,-2.2107,-2.1716,-2.0894,-2.083,-2.0424,-1.9743,-1.9621,-1.963,-1.969,-1.969,-1.969,-1.969,-1.9169,-1.893,-1.8855,-1.838,-1.8145,-1.8106,-1.8145,-1.8458,-1.8855,-1.8419,-1.8855,-1.9639,-1.9132,-1.9317,-1.9818,-2.0177,-2.0348,-2.0325,-2.0035,-1.9904,-1.9666,-1.8978,-1.8767,-1.8735,-1.8783,-1.8994,-1.9371,-2.0084,-2.0255,-2.0405,-2.0894,-2.0959,-2.0926,-2.0926,-2.055,-2.0246,-2.0246,-1.9929,-1.969,-1.969,-1.969,-1.9332,-1.8302,-1.8185,-1.7787,-1.6752,-1.6637,-1.7034,-1.8027,-1.7706,-1.7867,-1.8855,-1.9049,-1.9368,-1.9951,-2.1592,-2.2326,-2.2013,-2.3356,-2.3223,-2.1615,-2.2035,-2.2399,-2.2775,-2.3635,-2.4174,-2.4487,-2.4911,-2.524,-2.5488,-2.5427,-2.529,-2.511,-2.5027,-2.4599,-2.3895,-2.2641,-2.1854,-2.1242,-2.3018,-2.2893,-2.2812,-2.2793,-2.2756,-2.2681,-2.252,-2.2441,-2.2401,-2.2412,-2.2243,-2.2252,-2.2607,-2.226,-2.2081,-2.2253,-2.1694,-2.1295,-2.1193,-2.0888,-2.0603,-2.0407,-2.0336,-2.0387,-2.0491,-2.0491,-2.0396,-2.0221,-1.9634,-1.951,-1.9846,-1.9204,-1.9196,-1.969,-1.969,-1.969,-1.969,-1.9566,-1.9281,-1.8893,-1.8765,-1.8458,-1.8145,-1.8574,-1.8817,-1.893,-1.9244,-1.9479,-1.969,-1.9566,-1.9823,-2.0193,-2.028,-2.055,-2.0783,-2.0475,-1.9771,-1.9074,-1.8915,-1.8417,-1.8043,-1.8577,-1.8876,-1.9218,-1.9824,-1.9973,-2.0194,-2.0847,-2.0731,-2.0449,-2.0449,-2.0104,-1.9839,-1.9839,-1.9747,-1.969,-1.969,-1.969,-1.9442,-1.8817,-1.8727,-1.8458,-1.7827,-1.7747,-1.7867,-1.8066,-1.838,-1.865,-1.8893,-2.0094,-2.0691,-2.054,-2.205,-2.2607,-2.2029,-2.2638,-2.2772,-2.2451,-2.3058,-2.3454,-2.3697,-2.4192,-2.457,-2.4877,-2.5025,-2.5222,-2.5427,-2.5418,-2.5368,-2.5302,-2.4962,-2.4591,-2.4134,-2.3231,-2.2479,-2.1699,-2.1895,-2.1743,-2.1696,-2.1658,-2.162,-2.1575,-2.1464,-2.1368,-2.1409,-2.1694,-2.1318,-2.1356,-2.212,-2.1512,-2.1029,-2.0969,-2.0752,-2.0517,-2.0352,-2.0099,-1.9868,-1.9726,-1.9602,-1.9473,-1.9337,-1.9201,-1.9348,-1.971,-1.9318,-1.9129,-1.9076,-1.8668,-1.8555,-1.8762,-1.9303,-1.9558,-1.9573,-1.9863,-1.9949,-1.9869,-1.9671,-1.9534,-1.9489,-1.9416,-1.9379,-1.9383,-1.9295,-1.9287,-1.9333,-1.9672,-1.9713,-1.9751,-2.0623,-2.062,-2.0277,-2.0415,-1.9814,-1.9052,-1.8834,-1.8464,-1.8222,-1.856,-1.8732,-1.9031,-1.9844,-2.0031,-2.0174,-2.0616,-2.0525,-2.0189,-1.9704,-1.9731,-1.9679,-1.9281,-1.948,-1.969,-1.969,-1.969,-1.9479,-1.8968,-1.8893,-1.8688,-1.8145,-1.8106,-1.8224,-1.8458,-1.8727,-1.9103,-1.9528,-2.036,-2.0976,-2.1296,-2.233,-2.2847,-2.2798,-2.3201,-2.3423,-2.3465,-2.3478,-2.3744,-2.4228,-2.4407,-2.4678,-2.4998,-2.5063,-2.5233,-2.5459,-2.5409,-2.5425,-2.5408,-2.5153,-2.4831,-2.4444,-2.3704,-2.2922,-2.2051,-2.0659,-2.0481,-2.048,-2.0403,-2.0337,-2.033,-2.0312,-2.018,-2.0318,-2.0975,-2.0378,-2.0388,-2.1721,-2.0679,-1.9821,-1.9682,-1.9669,-1.9591,-1.939,-1.9214,-1.9067,-1.9034,-1.8664,-1.85,-1.8604,-1.8248,-1.8437,-1.9197,-1.9092,-1.8744,-1.8203,-1.8159,-1.8023,-1.7923,-1.8871,-1.9311,-1.9342,-1.984,-2.027,-2.0575,-2.0205,-2.027,-2.0543,-1.9953,-1.97,-1.962,-1.9001,-1.8795,-1.889,-1.9509,-1.9391,-1.9231,-2.0796,-2.0522,-1.9721,-2.0147,-1.9842,-1.9268,-1.8739,-1.8623,-1.8678,-1.8678,-1.8698,-1.8943,-1.9852,-2.0079,-2.0189,-2.0425,-2.0366,-2.0042,-1.9202,-1.9375,-1.9421,-1.8876,-1.9186,-1.9555,-1.9675,-1.969,-1.9566,-1.9177,-1.914,-1.8977,-1.8507,-1.8468,-1.8698,-1.92,-1.9251,-1.96,-2.0382,-2.0467,-2.0901,-2.1805,-2.2344,-2.2861,-2.3342,-2.3788,-2.4063,-2.4113,-2.3584,-2.3749,-2.4543,-2.4575,-2.4766,-2.5065,-2.5132,-2.5291,-2.5505,-2.5439,-2.5446,-2.5486,-2.5302,-2.5061,-2.4708,-2.3971,-2.3158,-2.2371,-2.0504,-2.0444,-2.0405,-2.0405,-2.0385,-2.0385,-2.0392,-2.0353,-2.0384,-2.0499,-2.0348,-2.0321,-2.0523,-2.0359,-2.0162,-1.9963,-1.9953,-1.989,-1.9743,-1.9604,-1.9423,-1.917,-1.8308,-1.8056,-1.8604,-1.7876,-1.7794,-1.8353,-1.784,-1.7831,-1.829,-1.7983,-1.8121,-1.8647,-1.8801,-1.8879,-1.8879,-1.8974,-1.9035,-1.9095,-1.9035,-1.9035,-1.9095,-1.8985,-1.8938,-1.8938,-1.8826,-1.8795,-1.881,-1.8906,-1.9256,-1.9703,-1.9956,-2.0301,-2.049,-1.9967,-1.9723,-1.9497,-1.8797,-1.877,-1.8949,-1.8949,-1.9084,-1.9232,-1.9385,-1.9594,-1.9949,-2.0617,-2.0291,-1.985,-1.9705,-1.8981,-1.8578,-1.9083,-1.8967,-1.9031,-1.96,-1.969,-1.9803,-2.0074,-2.0093,-2.0093,-2.0024,-2.0008,-2.0196,-2.0682,-2.0715,-2.0781,-2.0894,-2.1244,-2.1355,-2.1135,-2.193,-2.2187,-2.1878,-2.2566,-2.3055,-2.3348,-2.3723,-2.4191,-2.476,-2.4872,-2.5072,-2.534,-2.5349,-2.5447,-2.5582,-2.5459,-2.5446,-2.5476,-2.5168,-2.4943,-2.4678,-2.365,-2.3194,-2.2947,-2.0443,-2.0449,-2.0453,-2.0453,-2.0453,-2.0465,-2.0451,-2.0415,-2.0402,-2.0402,-2.0363,-2.0366,-2.0358,-2.0331,-2.023,-2.0065,-2.0031,-1.9934,-1.9802,-1.9738,-1.9439,-1.8832,-1.8382,-1.8066,-1.788,-1.7309,-1.7351,-1.8039,-1.8031,-1.8007,-1.7966,-1.7973,-1.7955,-1.7945,-1.8536,-1.8882,-1.9035,-1.9277,-1.9574,-1.9891,-1.9662,-1.9714,-1.9866,-1.9476,-1.9307,-1.9256,-1.8826,-1.8674,-1.8741,-1.9171,-1.9241,-1.9277,-2.0085,-1.9992,-1.9611,-1.9838,-1.9628,-1.9254,-1.9055,-1.9164,-1.9338,-1.9338,-1.9448,-1.958,-1.958,-1.967,-1.9758,-1.9793,-1.9485,-1.9061,-1.8457,-1.8442,-1.8485,-1.8383,-1.8865,-1.9451,-1.9954,-2.0035,-2.0193,-2.0616,-2.0879,-2.0895,-2.0715,-2.0863,-2.099,-2.0991,-2.0991,-2.1086,-2.1306,-2.1491,-2.1628,-2.1721,-2.2106,-2.2411,-2.2588,-2.2851,-2.3336,-2.3991,-2.4303,-2.4567,-2.4804,-2.4974,-2.5172,-2.5409,-2.5486,-2.5543,-2.5591,-2.5506,-2.5463,-2.5476,-2.5241,-2.4905,-2.4412,-2.352,-2.3069,-2.2822]}]]